[[[{"header":{"parameterUnit":"kt","parameterCategory":2,"dx":1,"dy":1,"la1":29.285339999999998,"la2":30.599998999999997,"lo1":-89.70041500000002,"lo2":-87.6738589999976,"nx":112,"ny":82,"refTime":"2022-10-08T00:00:00:Z","depth":0,"parameterNumber":1,"parameterNumberName":"U-component_of_WINDS"},"data":[6.0004,6.0897,6.086,5.5468,5.4849,5.4094,4.8424,4.8027,4.8728,4.8406,0.0,0.0,0.0,0.0,0.0,0.0,0.0,0.0,0.0,4.2893,0.0,0.0,0.0,0.0,0.0,0.0,0.0,5.9419,5.9893,6.2547,6.8654,7.0124,7.1563,7.3444,7.3939,7.4238,7.4238,7.4238,7.4359,7.4681,7.5178,7.5621,7.5942,7.6827,7.7269,7.7269,7.7658,7.7779,7.7779,7.7779,7.8141,7.8584,7.802,7.8463,7.9337,7.7819,7.743,7.7779,7.7779,7.7779,7.7779,7.7779,7.7779,7.7832,7.8463,7.8664,7.9157,8.1606,8.2278,8.2687,8.4432,8.4539,8.4397,8.5433,8.5954,8.668,8.8261,8.943,9.0631,9.2347,9.271,9.2975,9.4087,9.4296,9.4052,9.3223,9.3125,9.2881,9.2187,9.2089,9.1845,9.1222,9.1124,9.0977,9.0577,9.0528,9.0382,9.005,9.0001,9.0001,9.0001,9.0001,9.0001,9.0001,9.0001,9.0001,9.0001,9.0001,9.0001,9.0001,9.0001,9.0001,5.6736,5.7442,5.7284,5.1296,5.0347,4.9623,4.4551,4.4195,4.4789,0.0,0.0,0.0,0.0,0.0,0.0,0.0,0.0,0.0,0.0,0.0,4.3945,4.4513,0.0,0.0,0.0,0.0,5.6074,5.9496,5.982,6.2277,6.7851,6.9377,7.0874,7.2683,7.3454,7.3939,7.4238,7.4238,7.4238,7.4238,7.4801,7.5018,7.5058,7.5942,7.6344,7.6344,7.6666,7.6786,7.6786,7.6786,7.7148,7.7631,7.7028,7.751,7.8383,7.6867,7.6545,7.6786,7.6786,7.6786,7.6786,7.6786,7.6786,7.6907,7.751,7.7671,7.8199,8.0695,8.1402,8.1832,8.3623,8.368,8.3838,8.5681,8.5642,8.5903,8.8302,8.8884,8.9327,9.1133,9.1445,9.1815,9.2919,9.2539,9.21,9.21,9.21,9.1807,9.1113,9.1016,9.0723,9.0099,9.0001,9.0001,9.0001,9.0001,9.0001,9.0001,9.0001,9.0001,9.0001,9.0001,9.0001,9.0001,9.0001,9.0001,9.0001,9.0001,9.0001,9.0001,8.966,8.9269,5.4988,5.3696,5.2465,4.7078,4.5702,4.4941,4.1927,4.2896,4.4157,0.0,0.0,0.0,0.0,0.0,0.0,0.0,0.0,0.0,0.0,4.2856,4.4672,4.6342,5.0233,5.3772,5.6241,5.3529,5.4186,6.0301,5.7654,5.9107,6.6825,6.8121,6.9607,7.1746,7.2618,7.3484,7.4238,7.4238,7.4238,7.4238,7.4238,7.4238,7.4238,7.5018,7.542,7.546,7.6344,7.6706,7.6706,7.6706,7.6706,7.6746,7.6706,7.6706,7.6585,7.5741,7.5982,7.6706,7.6706,7.6706,7.6706,7.6706,7.6706,7.6706,7.6746,7.6746,7.6746,7.6786,7.6786,7.6786,7.6786,7.6786,7.8068,8.3375,8.4678,8.6203,9.152,9.2773,9.2834,9.2895,9.2955,9.2955,9.2967,9.1368,9.0001,9.0001,9.0001,9.0001,9.0001,9.0001,9.0001,9.0001,9.0001,9.0001,9.0001,9.0001,9.0001,9.0001,9.0001,9.0001,9.0001,9.0001,9.0001,9.0001,9.0001,9.0001,9.0001,9.0001,9.0001,8.9953,8.8879,8.7805,4.9706,5.057,5.1036,4.7103,4.675,4.6549,4.336,0.0,0.0,0.0,0.0,0.0,0.0,0.0,0.0,0.0,0.0,4.6206,4.4633,4.8175,5.1341,5.2477,5.3635,5.5699,5.9156,5.8639,5.9649,6.3468,6.0974,6.1376,6.6258,6.7869,6.9161,7.0295,7.1671,7.2728,7.3419,7.3419,7.3679,7.4238,7.4238,7.4238,7.4238,7.4479,7.456,7.46,7.4842,7.4962,7.4962,7.4962,7.5259,7.5741,7.5204,7.4962,7.4922,7.4681,7.4721,7.4962,7.4962,7.4962,7.4962,7.4962,7.4962,7.5043,7.5621,7.5822,7.5942,7.6585,7.6786,7.6786,7.6786,7.6304,7.6178,7.7717,7.9015,8.0588,8.2808,8.4706,8.6638,8.8484,8.8851,8.9269,9.0622,9.0392,9.0001,9.0001,9.0001,9.0001,9.0001,9.0001,9.0001,9.0001,9.0001,9.0001,9.0001,9.0001,9.0001,9.0001,9.0001,9.0001,9.0001,9.0001,9.0001,9.0001,9.0001,9.0001,9.0001,9.0001,8.9611,8.883,8.7707,8.6967,0.0,0.0,0.0,0.0,0.0,0.0,4.227,0.0,4.2041,0.0,0.0,0.0,0.0,0.0,0.0,0.0,4.5523,4.7859,4.6079,5.0662,5.4563,5.5405,5.7646,5.9611,6.0802,6.0593,6.1622,6.4731,6.2156,6.1927,6.5553,6.7206,6.8402,6.9119,7.0966,7.2305,7.2991,7.335,7.3809,7.4238,7.4238,7.4238,7.4238,7.4238,7.4238,7.4238,7.4238,7.4238,7.4238,7.4238,7.452,7.4857,7.4439,7.4238,7.4238,7.4238,7.4238,7.4238,7.4238,7.4238,7.4238,7.4238,7.4238,7.4319,7.4842,7.4897,7.5018,7.554,7.6518,7.7331,7.7331,7.7788,7.8486,7.9634,8.0716,8.1946,8.358,8.5134,8.6601,8.816,8.84,8.8749,8.9806,9.0001,9.0001,9.0001,9.0001,9.0001,9.0001,9.0001,9.0001,9.0001,9.0001,9.0001,9.0001,9.0001,9.0001,9.0001,9.0001,9.0001,9.0001,8.9562,8.9123,8.8577,8.8635,8.8635,8.8635,8.8635,8.8098,8.7024,8.639,8.5804,0.0,0.0,0.0,0.0,4.5288,0.0,0.0,0.0,4.2777,4.0389,0.0,4.1299,4.1419,0.0,0.0,4.1577,4.6825,5.0121,4.7631,5.2393,5.6381,5.7078,6.175,6.4025,6.1863,6.1011,6.1808,6.467,6.2264,6.1884,6.4746,6.6315,6.7397,6.7956,7.0147,7.1755,7.2495,7.3506,7.4012,7.4077,7.4158,7.4238,7.4238,7.4238,7.4238,7.4238,7.4238,7.4238,7.4238,7.4238,7.4238,7.4238,7.4238,7.4238,7.4238,7.4238,7.4238,7.4238,7.4238,7.4238,7.4238,7.4238,7.4238,7.4238,7.4238,7.4238,7.4238,7.4238,7.5961,7.7726,7.7726,7.9405,8.183,8.4522,8.5475,8.6376,8.9014,8.9767,9.0001,9.0001,9.0001,9.0001,9.0001,9.0001,9.0001,9.0001,9.0001,9.0001,9.0001,9.0001,9.0001,9.0001,9.0001,9.0001,9.0001,8.9904,8.9855,8.9855,8.9708,8.966,8.966,8.8732,8.7756,8.6724,8.6675,8.6675,8.6675,8.6675,8.609,8.4974,8.4974,8.4437,0.0,0.0,0.0,0.0,0.0,4.3202,0.0,0.0,0.0,5.0046,4.9591,4.8846,4.9902,4.9084,4.8986,5.1285,5.4637,5.6522,5.5046,5.9559,6.3087,6.3251,6.4215,6.4708,6.4253,6.4063,6.4215,6.486,6.4329,6.4253,6.486,6.5881,6.6525,6.6688,6.8237,6.9412,7.0211,7.1587,7.2536,7.3152,7.3876,7.4238,7.4238,7.4238,7.4238,7.4238,7.4238,7.4238,7.4238,7.4238,7.4238,7.4238,7.4238,7.4238,7.4238,7.4238,7.4238,7.4238,7.4238,7.4238,7.4238,7.4238,7.4238,7.4238,7.4238,7.4238,7.4238,7.4238,7.4586,7.5038,7.5038,7.5383,7.6432,7.9072,8.1274,8.3549,8.6256,8.8494,9.0001,9.0001,9.0001,9.0001,9.0001,9.0001,9.0001,9.0001,9.0001,9.0001,9.0001,9.0001,9.0001,9.0001,9.0001,9.0001,9.0001,8.922,8.8732,8.8732,8.7854,8.7309,8.7309,8.7114,8.6919,8.6675,8.6675,8.6675,8.6675,8.6675,8.5755,8.3906,8.3906,8.3808,0.0,0.0,0.0,4.1479,0.0,0.0,0.0,4.2683,4.4234,4.6913,4.6567,4.7,5.1173,5.0396,5.0114,5.2974,5.6805,5.9795,6.0803,6.3256,6.4898,6.4898,6.4898,6.4898,6.4898,6.4898,6.4898,6.4898,6.4898,6.4898,6.4898,6.5685,6.61,6.61,6.7528,6.8555,6.8931,7.0424,7.1365,7.1721,7.2984,7.3554,7.3554,7.4037,7.4238,7.4238,7.4238,7.4238,7.4238,7.4238,7.4238,7.4238,7.4238,7.4238,7.4238,7.4238,7.4238,7.4238,7.4238,7.4238,7.4238,7.4238,7.4238,7.4238,7.4238,7.4238,7.4238,7.4238,7.519,7.6176,7.6176,7.7155,7.8442,7.9781,8.1044,8.2401,8.3792,8.5066,8.6376,8.7783,8.9072,8.966,8.8586,8.883,8.9025,8.8382,8.8333,8.8333,8.8333,8.8333,8.8333,8.8333,8.8333,8.8333,8.8333,8.7903,8.7561,8.7561,8.7073,8.6675,8.6675,8.6187,8.595,8.595,8.5413,8.5121,8.5121,8.5121,8.4584,8.3613,8.3613,8.3613,0.0,0.0,0.0,0.0,0.0,0.0,3.7581,3.9574,4.2188,4.3754,4.4469,4.6292,5.1444,5.1554,5.1528,5.3753,5.7542,6.1122,6.3747,6.4591,6.4898,6.4898,6.4898,6.4898,6.4898,6.4898,6.4898,6.4898,6.4898,6.4898,6.4898,6.5449,6.5694,6.5694,6.7025,6.7845,6.7969,6.9515,7.0325,7.0513,7.1934,7.2629,7.2669,7.3353,7.3715,7.3715,7.3876,7.3956,7.3997,7.4158,7.4037,7.3715,7.3715,7.3715,7.3715,7.3715,7.3715,7.3715,7.3715,7.3715,7.3715,7.3715,7.3715,7.3715,7.3916,7.3956,7.3997,7.4158,7.6112,7.8253,7.8757,8.0335,8.1826,8.2377,8.2303,8.2351,8.2837,8.3094,8.3731,8.5216,8.7163,8.8203,8.6911,8.7512,8.7805,8.6821,8.6675,8.6675,8.6675,8.6675,8.6675,8.6675,8.6675,8.6675,8.6675,8.648,8.6382,8.6382,8.6243,8.6097,8.6097,8.5267,8.4828,8.4828,8.4053,8.3613,8.3613,8.3613,8.3613,8.3613,8.3613,8.3613,0.0,0.0,0.0,0.0,3.5974,0.0,4.39,4.4449,4.5488,5.2852,5.6288,5.7568,5.6371,5.7999,5.9567,5.9872,6.04,6.0866,6.1251,6.3382,6.4898,6.4898,6.4898,6.4898,6.4898,6.4898,6.4898,6.4898,6.4898,6.4898,6.4898,6.5021,6.5021,6.5021,6.5771,6.646,6.6969,6.8607,6.9658,7.0212,7.1198,7.1703,7.1703,7.1784,7.1824,7.1864,7.2669,7.3031,7.3111,7.3916,7.3272,7.1824,7.1824,7.1824,7.1824,7.1824,7.1824,7.1824,7.1824,7.1824,7.1824,7.1824,7.1824,7.1985,7.279,7.3031,7.3192,7.3997,7.6112,7.8694,8.1026,8.1102,8.1222,8.3546,8.3372,8.3363,8.5659,8.6994,8.686,8.3783,8.3363,8.4243,8.6328,8.6772,8.6821,8.6724,8.6675,8.6675,8.6675,8.6675,8.6675,8.6675,8.6675,8.6675,8.6675,8.5853,8.5316,8.5316,8.4437,8.3955,8.3955,8.3857,8.376,8.376,8.3662,8.3613,8.3613,8.3613,8.3613,8.3613,8.3613,8.3613,0.0,0.0,0.0,3.3189,0.0,0.0,3.8945,4.1155,4.3816,4.9191,5.1028,5.2608,5.5725,5.6173,5.6565,5.8213,5.85,5.9571,6.2788,6.285,6.3098,6.4714,6.4898,6.4898,6.4898,6.4898,6.4898,6.4898,6.4898,6.4898,6.4898,6.4898,6.4898,6.4898,6.5204,6.5449,6.5755,6.6715,6.7583,6.8255,6.9535,7.0367,7.0778,7.1301,7.1542,7.1582,7.1945,7.2105,7.2146,7.2508,7.2226,7.1542,7.1542,7.1542,7.1542,7.1542,7.1542,7.1542,7.1542,7.1542,7.1542,7.1542,7.1542,7.1623,7.1985,7.2105,7.2186,7.2548,7.3451,7.4542,7.5645,7.5599,7.5919,7.8433,7.8666,7.9116,8.1593,8.2547,8.299,8.3225,8.4232,8.5052,8.4906,8.5413,8.5609,8.4974,8.4877,8.4877,8.4877,8.4877,8.4877,8.4877,8.4877,8.4877,8.4877,8.4486,8.4193,8.4193,8.3857,8.3613,8.3613,8.3613,8.3613,8.3613,8.3613,8.3613,8.3613,8.3613,8.3613,8.3613,8.3613,8.3613,2.7258,0.0,0.0,0.0,0.0,0.0,3.6586,3.9333,4.2146,4.5479,4.6554,4.8277,5.2863,5.3629,5.3754,5.4202,5.5539,5.7945,6.2069,6.2292,6.2726,6.4714,6.4898,6.4898,6.4898,6.4898,6.4898,6.4898,6.4898,6.4898,6.4898,6.4898,6.4898,6.4898,6.4898,6.5082,6.5449,6.5939,6.6609,6.7398,6.8557,6.9324,6.9852,7.0496,7.0778,7.0818,7.1059,7.1019,7.0778,7.0778,7.0778,7.0778,7.0778,7.0778,7.0778,7.0778,7.0778,7.0778,7.0778,7.0778,7.0778,7.0778,7.0778,7.0858,7.11,7.118,7.122,7.1462,7.256,7.3632,7.3632,7.4485,7.5728,7.7543,7.7738,7.8034,7.9836,8.0185,8.0868,8.3147,8.4779,8.5365,8.3857,8.4193,8.4437,8.3711,8.3613,8.3613,8.3613,8.3613,8.3613,8.3613,8.3613,8.3613,8.3613,8.3613,8.3613,8.3613,8.3613,8.3613,8.3613,8.3613,8.3613,8.3613,8.3613,8.3613,8.3613,8.3613,8.3418,8.3173,8.3173,8.2978,0.0,0.0,0.0,3.2626,3.3564,3.5214,4.1471,4.204,4.2097,4.5235,4.8014,4.9479,4.8271,5.2363,5.4192,4.8916,5.2553,5.6242,5.688,6.1483,6.4836,6.4898,6.4898,6.4898,6.4898,6.4898,6.4898,6.4898,6.4898,6.4898,6.4898,6.4898,6.4898,6.4898,6.4898,6.5511,6.6791,6.6852,6.7519,6.8726,6.8826,6.8826,6.8826,6.8927,6.8867,6.8907,6.9791,6.9671,6.8867,6.8867,6.8867,6.8867,6.8867,6.8867,6.8867,6.8867,6.8867,6.8867,6.8867,6.8867,6.8867,6.8867,6.8867,6.9027,6.9912,7.0214,7.0416,7.1301,7.5081,7.8849,7.8849,8.1838,8.4781,8.4837,8.4059,8.3335,8.339,8.3444,8.3444,8.3559,8.3662,8.3662,8.3613,8.3613,8.3613,8.3613,8.3613,8.3613,8.3613,8.3613,8.3613,8.3613,8.3613,8.3613,8.3613,8.3613,8.3613,8.3613,8.3613,8.3613,8.3613,8.3613,8.3613,8.3613,8.3613,8.3613,8.3613,8.3613,8.3076,8.2103,8.2103,8.146,2.6859,2.8597,3.0805,3.4105,3.6161,3.8149,4.1187,4.2809,4.3975,4.5027,4.6305,4.7081,4.6609,4.9141,5.0853,4.9476,5.1177,5.3886,5.7511,5.8551,6.0296,6.3737,6.4617,6.4898,6.4898,6.4898,6.4898,6.4898,6.4898,6.4898,6.4898,6.4898,6.4898,6.4898,6.4898,6.5143,6.5572,6.5572,6.6244,6.7519,6.7519,6.8003,6.8786,6.8786,6.8786,6.8826,6.9108,6.8806,6.8041,6.8605,6.8786,6.8786,6.8786,6.8786,6.8786,6.8786,6.8786,6.8786,6.8786,6.8786,6.8786,6.8786,6.8786,6.8867,6.9208,6.9228,6.9309,6.9691,7.0964,7.2306,7.2306,7.4498,7.7595,8.0855,8.1398,8.1602,8.3238,8.3613,8.3613,8.3613,8.3613,8.3613,8.3613,8.3613,8.3613,8.3613,8.3613,8.3613,8.3613,8.3613,8.3613,8.3613,8.3613,8.3613,8.3613,8.3613,8.3613,8.3613,8.3613,8.3613,8.3613,8.3613,8.3613,8.3613,8.3613,8.2827,8.1358,8.1358,8.1212,8.0874,8.0874,8.0627,2.7705,2.9497,3.1531,3.5584,3.8315,4.0336,4.187,4.3376,4.4572,4.4572,4.4743,4.4942,4.5141,4.6101,4.7115,4.7689,4.8929,5.1181,5.4725,5.6042,5.786,6.1247,6.3337,6.4542,6.4542,6.4807,6.4898,6.4898,6.4898,6.4898,6.4898,6.4898,6.4898,6.4898,6.4898,6.4898,6.4898,6.5143,6.5663,6.6483,6.6483,6.6708,6.7267,6.7505,6.7565,6.7605,6.8205,6.8165,6.7784,6.8485,6.8786,6.8786,6.8786,6.8786,6.8786,6.8786,6.8786,6.8786,6.8786,6.8786,6.8786,6.8786,6.8786,6.8786,6.8786,6.9446,7.0122,7.0122,7.1446,7.2756,7.2756,7.4633,7.7268,8.0449,8.1216,8.1657,8.3238,8.3613,8.3613,8.3613,8.3613,8.3613,8.3613,8.3613,8.3613,8.3613,8.3613,8.3613,8.3613,8.3613,8.3613,8.3613,8.3613,8.3613,8.3613,8.3613,8.3613,8.3613,8.3613,8.3613,8.3613,8.3613,8.3418,8.3027,8.3027,8.2094,8.0285,8.0285,8.009,7.9749,7.9749,7.9505,2.7999,2.9758,3.1673,3.7284,4.0018,4.17,4.3461,4.3859,4.3859,4.3859,4.3491,4.3264,4.3747,4.3406,4.3264,4.3745,4.6043,4.8074,4.8903,5.3904,5.7485,5.7778,6.1188,6.3554,6.363,6.4352,6.4845,6.4822,6.4898,6.4898,6.4898,6.4898,6.4898,6.4898,6.4898,6.4898,6.4898,6.5572,6.5796,6.574,6.574,6.5369,6.4644,6.5131,6.5324,6.5324,6.7029,6.7742,6.7803,6.8546,6.8786,6.8786,6.8786,6.8786,6.8786,6.8786,6.8786,6.8786,6.8786,6.8786,6.8786,6.8786,6.8786,6.8786,6.8786,7.0438,7.2346,7.2463,7.5899,7.9557,7.9669,8.1547,8.3347,8.3347,8.3504,8.3613,8.3613,8.3613,8.3613,8.3613,8.3613,8.3564,8.3515,8.3515,8.3515,8.3467,8.3418,8.3467,8.3467,8.3467,8.3467,8.3467,8.3467,8.3418,8.3369,8.3418,8.3467,8.3467,8.3467,8.3418,8.3418,8.3418,8.2929,8.1952,8.1908,8.1318,8.0139,8.0139,7.9602,7.8627,7.8627,7.8141,3.1019,3.3945,3.6515,4.0277,4.1586,4.2183,4.3122,4.3349,4.3349,4.3349,4.3235,4.2866,4.2069,4.2183,4.2467,4.261,4.3588,4.5707,4.9484,5.1748,5.4444,5.8009,5.9947,6.1239,6.1846,6.2643,6.3403,6.401,6.4617,6.4898,6.4898,6.4898,6.4898,6.4898,6.4898,6.4898,6.4898,6.5082,6.5396,6.5873,6.5873,6.5999,6.6287,6.6468,6.5524,6.4,6.6099,6.699,6.7029,6.8305,6.8786,6.8786,6.8786,6.8786,6.8786,6.8786,6.8786,6.8786,6.8786,6.8786,6.8786,6.8786,6.8786,6.8786,6.8786,6.9266,7.0122,7.1993,7.3415,7.4806,7.6687,7.8997,8.0837,8.0837,8.2207,8.3613,8.3613,8.3613,8.3613,8.3613,8.3613,8.332,8.2539,8.2392,8.2148,8.1212,8.1114,8.1362,8.1952,8.1509,8.1362,8.1952,8.146,8.0972,8.0435,8.0874,8.1411,8.1952,8.146,8.1114,8.1114,8.1114,8.0968,8.0724,7.9996,7.902,7.7995,7.7995,7.7848,7.7555,7.7555,7.7409,3.0464,3.4076,3.7854,4.096,4.1955,4.2268,4.2638,4.2695,4.2695,4.2695,4.2496,4.2069,4.1358,4.1529,4.1756,4.1756,4.2069,4.3236,4.5969,4.7885,5.0428,5.4153,5.6595,5.8533,5.9986,6.0935,6.1676,6.2074,6.2871,6.3456,6.3896,6.4238,6.458,6.4898,6.4898,6.4898,6.4898,6.4898,6.5082,6.5449,6.5128,6.4965,6.504,6.5181,6.4825,6.4132,6.6013,6.6569,6.6488,6.8105,6.8606,6.8425,6.8666,6.8786,6.8786,6.8786,6.8786,6.8786,6.8786,6.8786,6.8786,6.8786,6.8786,6.8786,6.8786,6.9585,7.0735,7.2111,7.4054,7.6071,7.7484,7.9669,8.1547,8.1547,8.2584,8.332,8.2339,8.2143,8.2143,8.2143,8.2143,8.1948,8.1362,8.1216,8.1021,8.0383,8.0285,8.0432,8.0923,8.0529,8.048,8.0923,8.0529,8.0139,7.9801,8.009,8.048,8.0923,8.0529,8.0285,8.0285,8.0285,8.009,7.9602,7.8529,7.7751,7.7165,7.7165,7.7165,7.7165,7.7165,7.7165,2.9166,3.2784,3.7262,4.0334,4.15,4.1955,4.2041,4.1984,4.1955,4.2041,4.1472,4.0988,4.0988,4.099,4.1047,4.1047,4.1159,4.1327,4.1661,4.4018,4.658,4.8899,5.2484,5.5562,5.7746,5.9021,5.9758,5.9872,6.0631,6.1466,6.236,6.3023,6.3782,6.4617,6.4594,6.4693,6.4746,6.4746,6.4845,6.4898,6.4238,6.3554,6.293,6.3367,6.4072,6.4959,6.6183,6.6426,6.6061,6.7943,6.8365,6.7882,6.8546,6.8786,6.8786,6.8786,6.8786,6.8786,6.8786,6.8786,6.8786,6.8786,6.8786,6.8786,6.8786,7.0415,7.2368,7.266,7.6032,7.9527,7.9859,8.1549,8.3119,8.3119,8.3119,8.2583,8.0724,8.0285,8.0285,8.0285,8.0285,8.0285,8.0285,8.0135,8.0041,7.9895,7.9895,7.9895,7.9895,7.9895,7.9895,7.9895,7.9895,7.9895,7.9895,7.9895,7.9895,7.9895,7.9895,7.9895,7.9895,7.9895,7.9456,7.8529,7.7653,7.7165,7.7165,7.7165,7.7165,7.7165,7.7165,7.7165,3.3479,3.5385,3.7148,3.974,4.0478,4.0761,4.1273,4.0988,4.0706,4.1273,4.0422,3.9598,3.9598,4.0052,4.0393,4.0393,4.0848,4.1883,4.3812,4.4562,4.5744,4.7995,5.0583,5.2599,5.3731,5.6371,5.8256,5.8885,5.9758,6.0631,6.1428,6.1618,6.2074,6.2968,6.3006,6.3348,6.3934,6.3972,6.4314,6.4898,6.4746,6.4693,6.4542,6.4603,6.4755,6.4959,6.5755,6.6,6.6,6.7459,6.7943,6.7882,6.8546,6.8786,6.8786,6.8786,6.8786,6.8786,6.8786,6.8786,6.8786,6.8786,6.8786,6.8786,6.8786,6.9985,7.1649,7.3667,7.5679,7.7645,7.9664,8.0506,8.087,8.087,8.087,8.0773,8.033,8.0285,8.0285,8.0285,8.0285,8.0285,8.0285,7.9554,7.8727,7.7848,7.7702,7.7702,7.7702,7.7702,7.7702,7.7702,7.7702,7.7702,7.7702,7.7702,7.7702,7.7702,7.7702,7.7702,7.7702,7.7702,7.7604,7.7458,7.7263,7.7165,7.7165,7.7165,7.7165,7.7165,7.7165,7.7165,3.2298,3.456,3.6807,3.803,3.9001,3.991,4.0535,4.0194,3.9825,4.0138,3.9712,3.9285,3.9285,3.9513,3.974,3.974,3.9996,4.06,4.1706,4.2164,4.3243,4.5503,4.7061,4.9073,5.1867,5.3493,5.5022,5.6667,5.7556,5.8429,5.9264,5.9682,6.0517,6.1846,6.1884,6.2264,6.3158,6.3196,6.3516,6.4352,6.4352,6.4542,6.486,6.4086,6.3706,6.3766,6.4827,6.5102,6.4898,6.6596,6.7156,6.6913,6.7943,6.8305,6.8365,6.8666,6.8565,6.8202,6.8202,6.7881,6.7478,6.7478,6.7478,6.7478,6.7478,6.7975,6.8995,7.135,7.3365,7.5413,7.7768,7.9293,8.0285,8.0285,7.9456,7.8627,7.8627,7.8627,7.8627,7.8627,7.8627,7.8627,7.8627,7.8239,7.7751,7.7263,7.7165,7.7165,7.7165,7.7165,7.7165,7.7165,7.7165,7.7165,7.7165,7.7165,7.7165,7.7165,7.7165,7.7165,7.7165,7.7165,7.7165,7.7165,7.7165,7.7165,7.7165,7.7165,7.7165,7.7165,7.6629,7.6385,3.0962,3.3479,3.6409,3.6885,3.7831,3.8916,3.9825,3.9427,3.8888,3.8888,3.8774,3.8717,3.8859,3.8888,3.8916,3.9058,3.92,3.9285,3.9285,3.9712,4.0698,4.2517,4.4256,4.6469,4.9552,5.1281,5.2795,5.4141,5.5319,5.6341,5.723,5.7822,5.8847,6.0403,6.0441,6.0859,6.1752,6.1942,6.2415,6.3213,6.3403,6.382,6.439,6.3196,6.2588,6.2626,6.3809,6.3958,6.3636,6.5431,6.5883,6.552,6.6787,6.7267,6.7387,6.8044,6.784,6.7336,6.7336,6.6852,6.6289,6.6289,6.6289,6.6404,6.6825,6.7219,6.7926,7.0137,7.24,7.4502,7.6265,7.8152,7.9602,7.9602,7.8334,7.7165,7.7165,7.7165,7.7165,7.7165,7.7165,7.7165,7.7165,7.7165,7.7165,7.7165,7.697,7.6873,7.6873,7.6873,7.6873,7.6873,7.7019,7.7165,7.7165,7.7165,7.7165,7.7165,7.7165,7.7165,7.7165,7.6677,7.6433,7.6433,7.6433,7.6433,7.6433,7.6433,7.6433,7.6433,7.5652,7.5261,3.3178,3.4428,3.6096,3.7854,3.7569,3.7234,3.8973,3.8485,3.7683,3.7683,3.7177,3.6949,3.7569,3.7683,3.7882,3.8452,3.8969,3.9285,3.9285,3.9342,3.9424,3.969,4.3988,4.6308,4.4641,5.0646,5.3932,5.2005,5.3865,5.5468,5.6212,5.6379,5.6873,5.7838,5.7876,5.8256,5.9037,5.9872,6.0669,6.1446,6.2264,6.274,6.2816,6.2664,6.2588,6.2588,6.2724,6.2762,6.2762,6.3547,6.3821,6.388,6.5074,6.5541,6.5658,6.6298,6.649,6.6409,6.6409,6.6369,6.6289,6.6289,6.6289,6.6652,6.8672,7.0171,7.1675,7.3929,7.5634,7.6854,7.7056,7.7307,7.7458,7.7458,7.7311,7.7165,7.7165,7.7165,7.7165,7.7165,7.7165,7.7165,7.7165,7.7165,7.7165,7.7165,7.6385,7.575,7.575,7.575,7.575,7.575,7.6629,7.7165,7.7165,7.7165,7.7165,7.7165,7.7165,7.7165,7.7165,7.5261,7.4188,7.4188,7.4188,7.4188,7.4188,7.4188,7.4188,7.4188,7.409,7.4041,2.981,3.1232,3.2967,3.3707,3.5527,3.7255,3.7547,3.7262,3.7056,3.7455,3.7312,3.7113,3.6971,3.7255,3.7483,3.7341,3.7803,3.8201,3.8201,3.8542,3.877,3.877,4.0972,4.3334,4.5649,4.8583,5.1257,5.344,5.4454,5.5126,5.5468,5.5468,5.5847,5.6683,5.6721,5.71,5.799,5.837,5.9188,6.0517,6.0916,6.0802,6.0251,6.084,6.1106,6.1106,6.1106,6.1314,6.1808,6.2654,6.3001,6.306,6.3903,6.4254,6.4371,6.5361,6.535,6.4969,6.5369,6.5064,6.4887,6.6263,6.6765,6.7167,6.9379,7.0427,7.1344,7.3601,7.4663,7.5402,7.6765,7.7165,7.7019,7.6385,7.6238,7.6043,7.531,7.5164,7.5164,7.5164,7.5164,7.5164,7.5164,7.5164,7.5164,7.5164,7.4822,7.4529,7.4529,7.4529,7.4529,7.4529,7.492,7.5164,7.5164,7.5164,7.5164,7.5164,7.5164,7.5164,7.5164,7.4334,7.3895,7.3895,7.3895,7.3895,7.3895,7.3895,7.3895,7.3846,7.3212,7.2919,2.7791,2.8974,3.048,3.1061,3.3507,3.586,3.5925,3.5811,3.6011,3.7284,3.7227,3.6885,3.6629,3.6722,3.6885,3.6551,3.7113,3.7512,3.7512,3.7911,3.8195,3.8195,3.9281,4.1221,4.4324,4.6619,4.909,5.208,5.3773,5.4684,5.4684,5.4912,5.5278,5.5795,5.5847,5.6151,5.6774,5.704,5.7708,5.8923,5.9416,5.9188,5.8353,5.9264,5.9644,5.9682,5.9948,6.0365,6.0935,6.16,6.1866,6.1925,6.2527,6.2875,6.3165,6.4165,6.4227,6.388,6.4332,6.4098,6.3837,6.5464,6.6502,6.7489,6.9651,7.0813,7.1855,7.4077,7.4692,7.5096,7.6714,7.6921,7.6434,7.5359,7.5115,7.4871,7.4041,7.3895,7.3895,7.3895,7.3895,7.3895,7.3895,7.3895,7.3895,7.3895,7.3895,7.3748,7.3456,7.3407,7.3407,7.3407,7.37,7.3895,7.3895,7.3895,7.3895,7.3895,7.3895,7.3602,7.2967,7.2919,7.2919,7.2919,7.2919,7.2919,7.2919,7.2919,7.2919,7.2919,7.2185,7.1843,2.8671,2.8963,2.9457,3.1388,3.1872,3.2413,3.4219,3.4116,3.4371,3.6999,3.6466,3.5783,3.6409,3.6011,3.5811,3.6458,3.7113,3.7512,3.7512,3.754,3.754,3.754,4.0065,4.0916,3.8791,4.5128,4.8419,4.6107,5.0898,5.3848,5.3848,5.4608,5.5012,5.5012,5.5012,5.5012,5.5012,5.5809,5.6174,5.6212,5.7936,5.8332,5.7572,5.8315,5.8695,5.8771,5.9644,6.0062,6.0062,6.0062,6.0062,6.0118,6.0646,6.1267,6.1941,6.2557,6.3115,6.356,6.36,6.356,6.356,6.356,6.5176,6.7489,6.9651,7.1907,7.4128,7.6463,7.7165,7.7165,7.7165,7.6434,7.5359,7.4139,7.3895,7.3895,7.3895,7.3895,7.3895,7.3895,7.3895,7.3895,7.3895,7.3895,7.3895,7.3895,7.3895,7.3504,7.2478,7.2331,7.2331,7.2331,7.326,7.3895,7.3895,7.3895,7.3895,7.3895,7.3895,7.2919,7.0863,7.0814,7.0814,7.0814,7.0814,7.0814,7.0814,7.0814,7.0814,7.0814,7.0765,7.0765,2.7115,2.8075,2.891,3.0748,3.1559,3.2356,3.419,3.511,3.584,3.6665,3.6543,3.6153,3.5925,3.6458,3.6807,3.6551,3.7113,3.7512,3.7512,3.7512,3.7512,3.7512,3.8342,3.9895,4.2605,4.3671,4.5926,5.01,5.0642,5.1394,5.2824,5.3772,5.4228,5.4228,5.476,5.5012,5.5012,5.524,5.5658,5.6174,5.6759,5.6873,5.6645,5.7534,5.7914,5.7952,5.8771,5.9112,5.9188,5.9796,6.0062,6.0118,6.025,6.042,6.0703,6.1228,6.1846,6.2406,6.2852,6.3282,6.3837,6.5409,6.6502,6.7759,7.1488,7.3102,7.418,7.6513,7.7165,7.702,7.6287,7.5261,7.4139,7.3065,7.2772,7.2577,7.1892,7.1745,7.1745,7.1745,7.1745,7.1745,7.1745,7.1745,7.1745,7.1745,7.1745,7.1599,7.1257,7.1257,7.1257,7.1257,7.155,7.1745,7.1745,7.1745,7.1745,7.1745,7.1745,7.1452,7.0768,7.0765,7.0765,7.0765,7.0765,7.0765,7.0765,7.0765,7.0765,7.0765,7.0765,7.0765,2.596,2.7156,2.7863,3.0299,3.0862,3.1218,3.2942,3.3422,3.3648,3.443,3.4571,3.4647,3.4797,3.6096,3.7028,3.6579,3.7113,3.7512,3.7512,3.7512,3.7512,3.7512,3.7512,3.8688,4.1823,4.1653,4.352,4.8797,4.9022,4.98,5.1953,5.2848,5.3506,5.381,5.4304,5.4722,5.5012,5.5012,5.524,5.5734,5.5734,5.5734,5.5772,5.6607,5.704,5.7062,5.7914,5.8239,5.837,5.9188,5.953,5.9568,5.991,6.0194,6.042,6.0721,6.1228,6.1902,6.2573,6.3003,6.3686,6.6229,6.7651,6.9003,7.2584,7.4282,7.53,7.6765,7.6872,7.6238,7.4773,7.3845,7.3016,7.1989,7.1745,7.155,7.0912,7.0765,7.0765,7.0765,7.0765,7.0765,7.0765,7.0765,7.0765,7.0765,7.0765,7.0765,7.0765,7.0765,7.0765,7.0765,7.0765,7.0765,7.0765,7.0765,7.0765,7.0765,7.0765,7.0765,7.0765,7.0765,7.0765,7.0765,7.0765,7.0765,7.0765,7.0765,7.0765,7.0765,7.0765,7.0765,2.4909,2.6048,2.6633,2.9817,2.9753,2.9379,3.0948,2.9805,2.8902,3.0724,3.1102,3.1552,3.3015,3.4958,3.6323,3.66,3.7006,3.7376,3.7512,3.7433,3.7433,3.7512,3.7512,3.7613,3.7966,3.9415,4.1474,4.3998,4.6477,4.8853,5.1119,5.1975,5.2772,5.362,5.3696,5.4114,5.4898,5.4898,5.4898,5.4898,5.4974,5.5012,5.5012,5.5772,5.606,5.6136,5.7078,5.7458,5.7496,5.8277,5.8619,5.8695,5.9606,6.0249,6.07,6.0777,6.1172,6.1846,6.2462,6.2741,6.3242,6.612,6.8468,7.055,7.2947,7.5151,7.6818,7.7017,7.6238,7.492,7.2868,7.2282,7.194,7.101,7.0765,7.0765,7.0765,7.0765,7.0765,7.0765,7.0765,7.0765,7.0765,7.0765,7.0765,7.0765,7.0716,7.0622,7.0622,7.0524,7.0521,7.0521,7.0521,7.0524,7.0622,7.0622,7.0619,7.0524,7.0521,7.0521,7.0521,7.0573,7.0622,7.0622,7.0716,7.0716,7.0622,7.0716,7.0716,7.0622,7.0716,7.0765,2.1976,2.4271,2.615,2.731,2.8137,2.9164,3.1048,3.0107,2.8907,2.9162,2.9242,2.9466,3.0194,3.2195,3.4493,3.6914,3.6008,3.5593,3.7297,3.6763,3.65,3.7404,3.7512,3.8793,4.1969,3.9815,4.1109,4.7967,4.6197,4.6399,5.0067,5.114,5.1671,5.191,5.2468,5.3228,5.4114,5.4114,5.4114,5.4114,5.4708,5.5012,5.5012,5.5202,5.5278,5.5316,5.6151,5.6493,5.6569,5.7404,5.7838,5.7914,5.8695,5.911,5.9298,5.9984,6.059,6.1172,6.179,6.235,6.3242,6.612,6.7435,6.8522,7.248,7.3463,7.3659,7.5451,7.4578,7.2966,7.2478,7.1745,7.1059,7.0814,7.0765,7.0765,7.0765,7.0765,7.0765,7.0765,7.0765,7.0765,7.0765,7.0765,7.0765,7.0765,6.999,6.9408,6.9408,6.8677,6.8233,6.8233,6.8233,6.853,6.9359,6.9408,6.9067,6.8238,6.8233,6.8233,6.8233,6.8969,6.9408,6.9408,7.028,7.0329,6.9408,7.0329,7.028,6.9457,7.0329,7.0765,2.0165,2.2448,2.3859,2.2949,2.4559,2.6443,2.6758,2.6485,2.6086,2.5943,2.5897,2.6565,2.8701,2.9666,3.1356,3.4979,3.4773,3.4709,3.6144,3.6027,3.601,3.6646,3.6955,3.8067,4.0314,3.9565,4.1177,4.6684,4.5925,4.6552,4.9764,5.0409,5.0912,5.1292,5.1709,5.2355,5.319,5.286,5.286,5.319,5.4076,5.4494,5.4494,5.4822,5.5012,5.5012,5.5468,5.5658,5.5734,5.6569,5.691,5.6986,5.7876,5.818,5.8201,5.875,5.9298,6.0033,6.087,6.1425,6.2381,6.6591,6.7976,6.8821,7.322,7.4203,7.388,7.4627,7.3259,7.1599,7.1599,7.1159,7.0765,7.0765,7.0765,7.0765,7.0765,7.0765,7.0765,7.0765,7.0329,6.9941,6.9941,6.9551,6.9209,6.9209,6.8677,6.8291,6.8291,6.7799,6.7457,6.7457,6.7457,6.7701,6.8286,6.8291,6.8091,6.7506,6.7457,6.7457,6.7457,6.7994,6.8291,6.8291,6.8916,6.8916,6.8291,6.8916,6.8916,6.8291,6.8965,6.9209,1.8714,2.0147,2.0534,1.8693,2.0486,2.2461,2.146,2.1733,2.2174,2.2207,2.2352,2.3591,2.7161,2.7316,2.8025,3.1503,3.3054,3.405,3.4793,3.5189,3.5468,3.5732,3.6244,3.6729,3.7006,3.8893,4.1128,4.39,4.5504,4.7416,4.9849,4.9944,5.0295,5.1064,5.1102,5.1443,5.2078,5.1595,5.1633,5.2267,5.319,5.3696,5.3848,5.4532,5.486,5.5012,5.5012,5.5012,5.505,5.5734,5.6037,5.6113,5.6948,5.7344,5.7344,5.7496,5.799,5.8726,5.9991,6.0811,6.2128,6.74,6.9208,6.9976,7.4082,7.5213,7.4871,7.37,7.2136,7.0765,7.0765,7.0765,7.0765,7.0765,7.0765,7.0765,7.0765,7.0622,7.0475,7.0475,6.9554,6.8778,6.8778,6.8042,6.7457,6.7457,6.7311,6.7213,6.7213,6.7067,6.6969,6.6969,6.6969,6.7018,6.7213,6.7213,6.7116,6.6969,6.6969,6.6969,6.6969,6.6969,6.7018,6.7213,6.736,6.736,6.7213,6.736,6.736,6.7213,6.736,6.7457,1.6298,1.6461,1.6913,1.8524,1.8515,1.8596,2.0337,2.014,1.9665,1.9925,2.0645,2.1752,2.337,2.5054,2.6353,2.6767,2.9684,3.2465,3.4104,3.3918,3.4152,3.56,3.5861,3.6595,3.8354,3.7837,3.9665,4.5262,4.4777,4.5877,4.9717,4.9944,4.9982,5.0181,5.0181,5.0219,5.0371,5.0988,5.1367,5.1481,5.2317,5.3076,5.3848,5.3962,5.438,5.5012,5.5012,5.5012,5.5012,5.5126,5.5202,5.5278,5.6075,5.6417,5.6493,5.7268,5.761,5.7996,5.9971,6.239,6.526,6.8622,6.9972,7.0818,7.3365,7.3504,7.2624,7.1501,7.101,7.0765,7.0765,7.0765,7.0765,7.0765,7.0765,7.0765,7.0765,6.999,6.9311,6.9311,6.8433,6.7701,6.7701,6.7555,6.7457,6.7457,6.6677,6.6134,6.6134,6.5353,6.481,6.481,6.481,6.5158,6.6037,6.6134,6.5744,6.4859,6.481,6.481,6.481,6.481,6.5249,6.6134,6.6969,6.7018,6.6134,6.7018,6.6969,6.6183,6.7018,6.7457,1.5115,1.508,1.5293,1.6349,1.6704,1.7025,1.7962,1.8355,1.8722,1.9491,1.9805,2.0628,2.2956,2.3687,2.4533,2.6334,2.832,3.0315,3.207,3.2579,3.311,3.3885,3.4557,3.527,3.6244,3.8357,4.088,4.3753,4.5635,4.75,4.9433,4.9802,4.9944,4.9944,4.9944,4.9944,4.9944,5.0371,5.056,5.0608,5.1443,5.2051,5.248,5.2886,5.3569,5.438,5.438,5.4646,5.5012,5.5012,5.5012,5.505,5.5392,5.5544,5.562,5.6052,5.6417,5.7118,5.9273,6.138,6.3803,6.8077,6.9646,7.0231,7.2349,7.2331,7.1354,7.0912,7.0765,7.0765,7.0765,7.0765,7.0765,7.0765,7.0765,7.0573,6.9941,6.9408,6.8827,6.8242,6.7311,6.6622,6.6622,6.6134,6.5744,6.5744,6.5353,6.5054,6.5054,6.4663,6.4321,6.4321,6.4321,6.4517,6.5054,6.5054,6.4859,6.437,6.4321,6.4321,6.4321,6.4321,6.4566,6.5054,6.55,6.55,6.5054,6.55,6.55,6.5061,6.5549,6.5744,1.4783,0.0,1.5099,1.5179,1.58,1.638,0.0,1.6952,1.7968,1.8801,1.9003,1.9851,2.2475,2.2528,2.3079,2.5957,2.7087,2.8135,2.9717,3.1014,3.2021,3.2437,3.3272,3.3809,3.3809,3.7997,4.1033,4.1681,4.5633,4.8356,4.9148,4.9528,4.9849,4.9944,4.9944,4.9944,4.9944,4.9944,4.9944,4.9944,5.0636,5.1102,5.133,5.1937,5.2696,5.3544,5.3544,5.4,5.476,5.476,5.4822,5.5012,5.5012,5.5012,5.5012,5.5012,5.5392,5.624,5.8412,6.0014,6.1902,6.6736,6.8813,6.9722,7.1425,7.1403,7.0765,7.0765,7.0765,7.0765,7.0765,7.0765,7.0765,7.0765,7.0524,7.0088,6.9168,6.8583,6.8042,6.7213,6.6232,6.55,6.55,6.4859,6.4321,6.4321,6.4321,6.4321,6.4321,6.4321,6.4321,6.4321,6.4321,6.4321,6.4321,6.3882,6.3687,6.3931,6.3931,6.4077,6.4321,6.4321,6.4321,6.4321,6.4321,6.4321,6.4321,6.4321,6.4321,6.4321,6.4321,6.4321,0.0,1.6033,1.6619,1.6892,1.6566,1.6156,1.614,1.641,0.0,1.642,1.7832,1.9279,1.9994,2.1253,2.243,2.3278,2.4775,2.6282,2.745,2.906,3.0697,3.2281,3.2563,3.2589,3.2589,3.5014,3.77,4.0336,4.2992,4.5856,4.9016,4.9196,4.9433,4.9944,4.9944,4.9944,4.9944,4.9944,4.9944,4.9944,4.9982,5.0484,5.1292,5.1367,5.1823,5.262,5.262,5.3076,5.3924,5.3924,5.4342,5.5012,5.5012,5.5012,5.5012,5.5012,5.505,5.5362,5.7499,5.9631,6.188,6.4675,6.7548,7.0034,7.0682,7.0814,7.0765,7.0765,7.0765,7.0765,7.0765,7.0765,7.0765,7.0765,6.9941,6.9071,6.9022,6.7506,6.6086,6.6037,6.5158,6.4468,6.4468,6.437,6.4321,6.4321,6.4321,6.4321,6.4321,6.4321,6.4321,6.4321,6.4321,6.4321,6.4321,6.2466,6.1693,6.2669,6.2677,6.3206,6.4273,6.4321,6.4321,6.4321,6.4321,6.4321,6.4321,6.4321,6.4321,6.4321,6.4321,6.4321,1.5787,1.6318,1.6666,1.6529,1.6308,1.6049,1.5606,1.5404,1.545,1.5897,1.6283,1.7135,1.9217,2.0061,2.127,2.3831,2.5295,2.6683,2.8272,2.9606,3.0521,3.0852,3.1502,3.1991,3.1991,3.5414,3.8067,3.9169,4.2736,4.5623,4.739,4.8084,4.8551,4.8738,4.8738,4.9142,4.9944,4.9944,4.9944,4.9944,4.9944,5.0143,5.0447,5.0447,5.095,5.1747,5.1747,5.2241,0.0,5.3,5.3544,5.4304,5.4304,5.4608,5.5012,5.5012,5.5012,5.5493,5.8994,6.0908,6.2491,6.6123,6.8257,6.9613,7.0123,7.0262,7.0354,7.0628,7.0765,7.0765,7.0765,7.0765,7.0765,7.0765,6.9893,6.8827,6.8144,6.6872,6.5695,6.5054,6.4615,6.4321,6.4321,6.4321,6.4321,6.4321,6.3735,6.3255,6.3255,6.271,6.227,6.227,6.227,6.227,6.227,6.1538,6.1205,6.1595,6.1644,6.1791,6.227,6.2913,6.3255,6.3255,6.398,6.4321,6.4321,6.4321,6.4321,6.4321,6.4321,6.4321,1.6223,1.6666,1.6983,1.6856,1.673,1.6445,1.5638,1.5179,1.4956,1.5176,1.509,1.5595,1.7662,1.8801,2.0383,2.3175,2.5068,2.6813,2.861,2.9788,3.0391,3.0229,3.0878,3.1346,3.1346,3.5299,3.7956,3.8219,4.2265,4.5071,4.604,4.677,4.7147,4.7147,4.7322,4.7906,4.8971,4.8962,4.9169,4.9574,4.9574,4.9726,4.9944,4.9944,5.0295,5.0912,5.0912,5.1367,5.2127,5.2127,5.262,5.3468,5.3734,5.419,5.4684,5.4898,5.5441,5.6383,5.9397,6.1504,6.3374,6.6266,6.7974,6.9054,6.9567,6.9706,6.9891,7.0536,7.0765,7.0765,7.0765,7.0765,7.0622,7.028,6.9311,6.8238,6.7164,6.6134,6.5158,6.4468,6.4321,6.4321,6.4321,6.4321,6.4321,6.4321,6.3352,6.258,6.258,6.1693,6.1049,6.1049,6.1049,6.0766,6.0082,6.0033,6.018,6.0522,6.057,6.0668,6.101,6.1742,6.2132,6.2132,6.2905,6.3491,6.3784,6.3784,6.398,6.4321,6.4321,6.4321,1.6603,1.7204,1.776,1.8185,1.7964,1.7397,1.634,1.5819,1.5171,1.3869,1.4314,1.4934,1.4968,1.7412,1.9781,2.0856,2.3632,2.6242,2.7954,2.9216,3.0151,3.0651,3.0728,3.0728,3.0728,3.4239,3.6783,3.7646,4.1165,4.3838,4.5171,4.5253,4.5253,4.5253,4.5789,4.6287,4.682,4.6865,4.7505,4.8756,4.8756,4.9165,4.9906,4.9906,4.9991,4.9944,4.9944,5.0447,5.1292,5.1292,5.1747,5.2582,5.3468,5.3861,5.3975,5.4722,5.6331,5.8183,5.8183,6.1007,6.4537,6.4537,6.6314,6.8539,6.9054,6.9194,6.9427,7.0444,7.0765,7.0765,7.0765,7.0765,7.0475,6.9311,6.8193,6.7164,6.6134,6.5103,6.4321,6.4321,6.4321,6.4321,6.4321,6.4321,6.4321,6.4321,6.3304,6.2531,6.2531,6.1644,6.0961,6.0961,6.0961,6.0131,5.8081,5.7935,5.8374,5.9409,5.9458,5.9936,6.0961,6.101,6.101,6.101,6.1049,6.1546,6.258,6.258,6.3157,6.4321,6.4321,6.4321,1.6603,1.7204,1.765,1.7492,1.7381,1.6971,1.5717,1.5147,1.4461,1.3072,1.2986,1.3777,1.5702,1.7103,1.9047,2.2485,2.4541,2.6242,2.7954,2.9216,2.9995,3.0151,3.0495,3.0728,3.0728,3.176,3.3689,3.6678,3.9188,4.1603,4.3794,4.3418,4.3523,4.4456,4.459,4.5239,4.6287,4.6287,4.6707,4.7467,4.7467,4.8018,4.9174,4.9174,4.9431,4.9944,4.9944,5.0105,5.0371,5.0371,5.0864,5.1671,5.1937,5.3689,5.6039,5.6276,5.8113,6.0659,6.2097,6.3466,6.4779,6.6266,6.7265,6.7974,6.8539,6.8914,6.9334,7.003,7.0492,7.0765,7.0765,7.0765,7.0475,6.9311,6.8193,6.7164,6.6134,6.5103,6.4321,6.4321,6.4321,6.4321,6.4321,6.3645,6.3108,6.3108,6.1595,6.0385,6.0385,5.9497,5.8813,5.8813,5.8813,5.8569,5.8021,5.7935,5.8032,5.8374,5.8374,5.852,5.8851,5.9545,5.9985,5.9985,6.0668,6.1156,6.1498,6.1498,6.1644,6.2026,6.2026,6.2026,1.5836,1.6369,1.6724,1.6603,1.6588,1.6264,1.5131,1.4673,1.4098,1.2722,1.244,1.2951,1.4589,1.6065,1.8192,2.1722,2.402,2.6085,2.7928,2.9216,2.9917,2.9917,3.0391,3.0728,3.0728,3.0728,3.2356,3.6267,3.9025,4.1241,4.2832,4.2405,4.25,4.3315,4.3351,4.3832,4.4792,4.4792,4.5242,4.6066,4.6066,4.6746,4.7988,4.7988,4.8572,4.9507,4.9507,4.965,4.9944,4.9944,5.0295,5.0884,5.2055,5.3865,5.5987,5.7092,5.9455,6.2265,6.3476,6.4754,6.5979,6.7265,6.7363,6.7224,6.8162,6.8633,6.9054,6.9752,7.0215,7.0538,7.0674,7.0426,6.9697,6.814,6.7311,6.653,6.55,6.481,6.4321,6.4321,6.4321,6.4321,6.4321,6.3352,6.258,6.258,6.0824,5.9458,5.9458,5.8569,5.7935,5.7935,5.7935,5.7935,5.7935,5.7935,5.7935,5.7935,5.7935,5.7935,5.7935,5.852,5.8862,5.8862,5.9497,5.9985,6.0424,6.0424,6.0619,6.1049,6.1681,6.1995,1.4648,1.5008,1.5386,1.5633,1.5734,1.5502,1.4493,1.4311,1.3957,1.2637,1.2344,1.2376,1.2504,1.4879,1.7491,1.9567,2.2852,2.5831,2.787,2.9121,2.9821,2.9917,3.0339,3.0676,3.0728,3.0728,3.2264,3.5998,3.9597,4.1808,4.2156,4.2156,4.2156,4.2156,4.2156,4.2416,4.2884,4.2884,4.3507,4.4727,4.4727,4.5435,4.6663,4.6663,4.7384,4.8634,4.8634,4.909,4.9878,4.9878,4.9916,5.0257,5.3037,5.4294,5.4834,5.751,6.044,6.3164,6.3164,6.4978,6.741,6.7504,6.6803,6.6195,6.7644,6.8162,6.849,6.9469,6.989,7.0077,7.0582,6.9893,6.8486,6.6671,6.6037,6.5598,6.4566,6.4321,6.4321,6.4321,6.4321,6.4321,6.4224,6.3206,6.2384,6.2287,6.058,5.9312,5.9312,5.852,5.7935,5.7935,5.7935,5.7935,5.7935,5.7935,5.7935,5.7935,5.7935,5.7935,5.7935,5.7935,5.7935,5.7935,5.7935,5.845,5.9543,5.9543,6.01,6.1228,6.2617,6.3269,1.4369,1.4689,1.5008,1.5328,1.5604,1.5358,1.3962,1.3801,1.3485,1.1977,1.1671,1.1991,1.3031,1.5622,1.827,2.0255,2.3547,2.6286,2.7551,2.8282,2.9027,2.9821,3.0021,3.0281,3.0676,3.0728,3.1714,3.4087,3.6446,3.9069,4.2026,4.2156,4.2156,4.2156,4.2156,4.2242,4.2329,4.2329,4.2696,4.3361,4.3361,4.406,4.5317,4.5317,4.6029,4.7264,4.7264,4.7943,4.906,4.906,4.9393,5.018,5.2323,5.4622,5.6912,5.9064,6.174,6.4343,6.4343,6.4802,6.5494,6.6196,6.5775,6.5073,6.5397,6.6328,6.7355,6.7952,6.9035,7.0077,7.0582,6.9893,6.8876,6.8437,6.7067,6.5598,6.4566,6.4321,6.4321,6.4321,6.4321,6.4077,6.3108,6.2083,6.1107,6.0238,5.9106,5.8228,5.8228,5.8032,5.7935,5.7935,5.7935,5.7935,5.7935,5.7935,5.7935,5.7935,5.7935,5.7935,5.7935,5.7935,5.7935,5.7935,5.7935,5.8572,5.9947,5.9947,6.071,6.208,6.244,6.2584,1.3428,1.3934,1.4197,1.4544,1.4695,1.4572,1.3713,1.3611,1.3327,1.2096,1.1828,1.1974,1.2391,1.5298,1.8069,1.9536,2.2941,2.571,2.6736,2.7304,2.7929,2.8737,2.9038,2.9468,3.0262,3.1195,3.2661,3.4872,3.6849,3.9201,4.2026,4.2156,4.2156,4.2156,4.2156,4.2156,4.2156,4.2156,4.2329,4.2625,4.2625,4.3101,4.398,4.398,4.4727,4.591,4.6133,4.6805,4.7996,4.9525,5.041,5.111,5.4406,5.659,5.8239,6.0161,6.2221,6.3998,6.3998,6.4278,6.4699,6.4701,6.4372,6.4045,6.4559,6.5255,6.5996,6.6674,6.751,6.8305,6.898,6.838,6.7506,6.7506,6.633,6.5005,6.4468,6.4321,6.4321,6.4321,6.4321,6.398,6.2775,6.1742,6.0668,5.9604,5.8618,5.7935,5.7935,5.7935,5.7935,5.7935,5.7935,5.7935,5.7935,5.7935,5.7935,5.7935,5.7935,5.7935,5.7935,5.7935,5.8261,5.8944,5.8944,5.9704,6.121,6.121,6.1603,6.2416,6.3081,6.3429,1.2418,1.3133,1.3342,1.3618,1.3641,1.3623,1.3403,1.3386,1.3109,1.2244,1.2075,1.1954,1.1509,1.4725,1.7733,1.8551,2.2129,2.5115,2.5981,2.6466,2.6889,2.7399,2.7846,2.8526,2.9532,3.1239,3.3398,3.6186,3.8167,4.0086,4.1899,4.2085,4.2156,4.2156,4.2156,4.2156,4.2156,4.2156,4.2156,4.2156,4.2156,4.2416,4.2805,4.2805,4.347,4.4609,4.4967,4.5678,4.6858,4.993,5.1271,5.1916,5.6619,5.8422,5.8685,6.0825,6.2171,6.2876,6.2876,6.3437,6.4043,6.3156,6.2876,6.3063,6.3949,6.4278,6.4598,6.5445,6.5855,6.6265,6.7149,6.6633,6.589,6.589,6.5061,6.4321,6.4321,6.4321,6.4321,6.4321,6.4321,6.3931,6.2571,6.1595,6.0619,5.9399,5.8472,5.7935,5.7935,5.7935,5.7935,5.7935,5.7935,5.7935,5.7935,5.7935,5.7935,5.7935,5.7935,5.8036,5.8299,5.8299,5.8981,6.0454,6.049,6.1246,6.2767,6.2767,6.2907,6.3186,6.4357,6.4955,1.2139,1.271,1.2803,1.3067,1.3133,1.2988,1.2523,1.2427,1.2241,1.156,1.1413,1.1386,1.1319,1.4956,1.8156,1.8752,2.2504,2.5573,2.613,2.6287,2.6464,2.6889,2.6981,2.7426,2.8457,2.9365,3.1437,3.5422,3.7551,3.9354,4.1046,4.1807,4.2156,4.2156,4.2156,4.2156,4.2156,4.2156,4.2156,4.2156,4.2156,4.2199,4.2286,4.2286,4.2617,4.3245,4.364,4.4509,4.5867,4.8175,4.9647,5.085,5.5486,5.7396,5.7701,6.0593,6.1747,6.1797,6.1797,6.1891,6.2027,6.1887,6.1797,6.1844,6.1984,6.2686,6.3476,6.391,6.5014,6.622,6.68,6.6416,6.589,6.589,6.5061,6.4321,6.4321,6.4321,6.4321,6.4321,6.4321,6.3687,6.1595,6.1107,6.0375,5.8423,5.8032,5.7935,5.7935,5.7935,5.7935,5.7935,5.7935,5.7935,5.7935,5.7935,5.7935,5.7935,5.7935,5.8474,5.9741,5.9763,6.049,6.2064,6.2064,6.2802,6.422,6.422,6.4955,6.6306,6.6472,6.6571,1.1882,1.2537,1.2697,1.2948,1.3027,1.2961,1.275,1.2684,1.2525,1.193,1.1943,1.2238,1.2885,1.5683,1.8367,1.9908,2.2648,2.4749,2.5283,2.5372,2.554,2.6001,2.6043,2.6557,2.7813,2.9206,3.1371,3.4673,3.6198,3.8142,4.0868,4.1309,4.1736,4.2156,4.2156,4.2156,4.2156,4.2156,4.2156,4.2156,4.2156,4.2156,4.2156,4.2156,4.2718,4.3665,4.3365,4.4409,4.6549,4.9069,5.0791,5.2184,5.6306,5.7886,5.8149,6.0052,6.0721,6.0815,6.1419,6.1653,6.1653,6.1653,6.1653,6.1653,6.1653,6.1937,6.2442,6.313,6.3855,6.454,6.5224,6.5226,6.5054,6.5054,6.4663,6.4321,6.4321,6.4321,6.4321,6.4321,6.4321,6.3638,6.144,6.1049,6.0365,5.8228,5.7935,5.8224,5.9018,5.8399,5.7935,5.7935,5.7935,5.7935,5.7935,5.866,5.9129,5.9129,5.9924,6.0722,6.1353,6.1389,6.2064,6.3567,6.3602,6.4377,6.5851,6.5851,6.6184,6.6834,6.6834,6.6834,1.1602,1.2247,1.2472,1.2776,1.2803,1.2803,1.2803,1.2803,1.2724,1.2338,1.2405,1.2914,1.4188,1.6208,1.8444,2.073,2.2692,2.4081,2.4614,2.4684,2.4832,2.5205,2.5246,2.5747,2.6936,2.8788,3.1031,3.3723,3.4701,3.6681,3.9967,4.0346,4.0891,4.1879,4.1879,4.1985,4.2156,4.2156,4.2156,4.2156,4.2156,4.2156,4.2156,4.2156,4.2934,4.4265,4.3665,4.4824,4.7223,4.9834,5.1581,5.3029,5.6425,5.7945,5.8201,5.9271,5.9832,6.016,6.0998,6.1232,6.1278,6.1559,6.1653,6.1653,6.1653,6.1653,6.1782,6.2423,6.2811,6.315,6.3777,6.4154,6.4321,6.4321,6.4321,6.4321,6.4321,6.4655,6.4863,6.4405,6.5021,6.4927,6.2896,6.2382,6.1561,5.9367,5.8734,5.8981,6.0454,5.9777,5.9092,5.9068,5.8697,5.8623,5.9031,5.9668,6.0237,6.0635,6.1745,6.2557,6.2907,6.2942,6.3636,6.5124,6.5124,6.5717,6.6834,6.6834,6.6834,6.6834,6.6834,6.6834,1.1223,1.1725,1.1804,1.2181,1.2285,1.2285,1.2285,1.2285,1.2285,1.2259,1.2259,1.2734,1.43,1.6287,1.8367,2.0475,2.255,2.4081,2.4614,2.4684,2.4708,2.4749,2.4726,2.4956,2.5543,2.7239,2.9487,3.2355,3.3282,3.4882,3.7575,3.8393,3.9495,4.1024,4.1102,4.1416,4.2199,4.2156,4.2156,4.2156,4.2156,4.2156,4.2156,4.2156,4.2934,4.435,4.4691,4.5671,4.7225,4.9458,5.0843,5.1861,5.465,5.6267,5.7173,5.8201,5.9224,6.0066,6.0113,6.0113,6.03,6.1283,6.1653,6.1653,6.1653,6.1653,6.1653,6.1696,6.2295,6.3023,6.3066,6.3699,6.4321,6.4321,6.4321,6.4321,6.4321,6.5598,6.6253,6.4655,6.6842,6.8469,6.6872,6.6052,6.4868,6.2502,6.0923,6.0526,6.2064,6.2434,6.2434,6.2205,6.0851,6.0563,6.2028,6.0887,6.0707,6.217,6.2346,6.3012,6.4357,6.4425,6.5158,6.6703,6.6736,6.6768,6.6834,6.6834,6.6834,6.6834,6.6834,6.6834,1.1463,1.1649,1.1804,1.2353,1.2378,1.2245,1.2245,1.2245,1.2245,1.2245,1.3176,1.4528,1.628,1.7852,1.9672,2.194,2.2655,2.3097,2.3612,2.3682,2.3799,2.4127,2.4921,2.5773,2.6639,2.7749,2.9445,3.1882,3.3098,3.4609,3.6559,3.7436,3.8399,3.946,3.9992,4.0383,4.0703,4.1166,4.1416,4.1416,4.2895,4.4008,4.4786,4.4786,4.5587,4.693,4.6135,4.7058,4.9211,4.966,5.0514,5.173,5.3888,5.4897,5.539,5.6926,5.7734,5.8101,5.8101,5.8523,5.9224,6.0253,6.0628,6.0721,6.1419,6.1653,6.1739,6.2295,6.2721,6.315,6.3693,6.4904,6.568,6.4572,6.5917,6.7205,6.6172,6.7256,6.8205,6.7606,6.839,6.9021,6.843,6.699,6.5089,6.2751,6.3151,6.3912,6.4459,6.372,6.3114,6.3028,6.2539,6.2364,6.2732,6.3116,6.3463,6.374,6.4718,6.5516,6.6018,6.6018,6.6339,6.6834,6.6834,6.6834,6.6834,6.6834,6.6834,6.6834,6.6834,6.6834,1.1423,1.1541,1.1778,1.2196,1.2274,1.2245,1.2245,1.2245,1.2245,1.2245,1.3631,1.5367,1.7115,1.855,2.0197,2.2292,2.2324,2.2277,2.2816,2.2886,2.3073,2.3589,2.4574,2.566,2.674,2.8296,2.9937,3.1637,3.2536,3.3719,3.5276,3.5942,3.6881,3.8242,3.8807,3.9355,3.9849,4.0347,4.0638,4.0638,4.2555,4.4059,4.5208,4.5979,4.7018,4.8346,4.7391,4.8263,5.0358,4.9988,5.0517,5.1686,5.3166,5.396,5.4405,5.5877,5.6425,5.6472,5.6846,5.7406,5.8195,5.9224,5.9552,5.9692,6.0347,6.0857,6.1223,6.1817,6.2483,6.315,6.3693,6.5351,6.6579,6.5434,6.7245,6.8903,6.7846,6.8916,6.9879,6.9334,7.015,7.0727,7.015,6.8713,6.7138,6.5547,6.5959,6.6491,6.6778,6.5806,6.5014,6.4879,6.4439,6.4268,6.4595,6.49,6.5259,6.5494,6.6349,6.6834,6.6834,6.6834,6.6834,6.6834,6.6834,6.6834,6.6834,6.6834,6.6834,6.6834,6.6834,6.6834,1.1163,1.13,1.1636,1.1699,1.1946,1.2232,1.2307,1.2307,1.2307,1.2396,1.3621,1.5173,1.6696,1.8247,1.9825,2.1297,2.1551,2.1738,2.2239,2.2347,2.2535,2.3089,2.3621,2.4487,2.5817,2.8694,3.076,3.1409,3.1471,3.213,3.3648,3.383,3.4947,3.7322,3.7442,3.8266,3.9777,3.9813,3.9854,3.9936,4.1274,4.2373,4.3285,4.5337,4.7103,4.8429,4.8429,4.9129,5.0358,5.0358,5.0803,5.1566,5.2486,5.3403,5.4275,5.5133,5.5404,5.5498,5.6565,5.6892,5.7079,5.8108,5.8476,5.8476,5.8523,5.9224,6.0019,6.0019,6.1444,6.3018,6.306,6.5021,6.7025,6.6944,6.8165,6.9373,6.9295,7.0574,7.1316,6.9685,7.2035,7.3746,7.2128,7.1478,7.12,7.12,6.9281,6.8133,6.8891,6.8669,6.8261,6.7908,6.6646,6.6359,6.7746,6.6227,6.5829,6.7382,6.712,6.6867,6.6834,6.6834,6.6834,6.6834,6.6834,6.6834,6.6834,6.6834,6.6834,6.6834,6.6834,6.6834,1.1907,1.1652,1.1498,1.197,1.1946,1.2133,1.3251,1.3506,1.3911,1.5347,1.6881,1.81,1.8505,1.9899,2.1066,2.1478,2.1551,2.1657,2.1762,2.1785,2.2305,2.3694,2.4812,2.5933,2.7134,2.8364,2.9606,3.0692,3.0798,3.1183,3.2098,3.3291,3.423,3.4835,3.6054,3.7262,3.8573,3.9149,4.0193,4.169,4.3567,4.4593,4.4911,4.6502,4.779,4.8817,4.8817,4.9439,5.0358,5.0358,5.048,5.0762,5.1566,5.2446,5.3442,5.4853,5.5404,5.5404,5.5724,5.5864,5.6004,5.7032,5.736,5.75,5.8289,5.871,5.8985,5.9266,6.145,6.3745,6.402,6.7266,7.0087,6.8824,7.0727,7.2523,7.1316,7.2336,7.3396,7.2988,7.3617,7.4186,7.404,7.3176,7.2398,7.1907,7.0062,6.8732,6.9012,6.8891,6.8796,6.8701,6.835,6.8133,6.8229,6.7811,6.7487,6.7447,6.7349,6.7186,6.6867,6.6834,6.6834,6.6834,6.6834,6.6834,6.6834,6.6834,6.6834,6.6834,6.6834,6.6834,1.2174,1.1682,1.1241,1.1711,1.185,1.2242,1.3881,1.4398,1.4994,1.6569,1.8174,1.9239,1.9239,2.0519,2.1551,2.1551,2.1551,2.1732,2.2262,2.19,2.2323,2.4287,2.5624,2.6817,2.7924,2.8317,2.8938,3.0013,3.0118,3.0396,3.1038,3.2018,3.2794,3.338,3.4695,3.6258,3.8079,3.8859,4.0161,4.1923,4.362,4.4638,4.5041,4.639,4.7513,4.8401,4.8401,4.8954,4.9804,4.9804,4.9976,5.048,5.1606,5.2406,5.3042,5.4385,5.5133,5.5404,5.5404,5.5404,5.5537,5.6058,5.6331,5.6425,5.7032,5.7861,5.8671,5.8863,6.1336,6.3904,6.4139,6.7597,7.0761,6.9761,7.1913,7.4003,7.2988,7.3543,7.4259,7.4259,7.4259,7.4368,7.4788,7.3467,7.2217,7.172,7.0569,6.9626,6.9102,6.9044,6.9044,6.9044,6.9044,6.8891,6.8701,6.8542,6.8286,6.79,6.7609,6.7349,6.712,6.6956,6.6641,6.6134,6.6134,6.5851,6.5311,6.5311,6.5311,6.5311,6.5311,6.5311,1.2025,1.159,1.1195,1.1519,1.1948,1.2724,0.0,1.5123,1.5775,1.691,1.828,1.9248,1.9327,2.0494,2.154,2.1587,2.1551,2.1985,2.3164,2.2419,2.2671,2.5168,2.6268,2.7255,2.827,2.8374,2.8687,2.9376,2.9402,2.9716,3.0365,3.0656,3.1417,3.2794,3.3743,3.5485,3.8091,3.8847,3.9937,4.143,4.2503,4.3509,4.4404,4.5458,4.6414,4.7339,4.7386,4.7934,4.8656,4.8784,4.9336,5.0222,5.1911,5.2581,5.2689,5.3772,5.4637,5.5217,5.5396,5.5404,5.5404,5.5404,5.5404,5.5396,5.5551,5.6976,5.8586,5.8818,6.1288,6.3905,6.398,6.7037,7.0025,7.0025,7.2005,7.3864,7.3864,7.3864,7.3864,7.3864,7.3864,7.3973,7.4406,7.2867,7.14,7.0982,7.0821,7.0324,6.916,6.9044,6.9044,6.9044,6.9044,6.9044,6.9044,6.8701,6.8478,6.8446,6.7868,6.7544,6.7447,6.6951,6.6166,6.5125,6.5012,6.4359,6.3168,6.3168,6.3168,6.3168,6.3168,6.3117,0.0,0.0,0.0,0.0,0.0,0.0,0.0,1.6076,1.6491,1.8271,1.8951,1.9362,1.9785,2.0475,2.1082,2.148,2.1551,2.1985,2.3164,2.3103,2.4143,2.736,2.722,2.7255,2.827,2.8374,2.8436,2.859,2.8625,2.8934,2.9716,3.1418,3.2468,3.272,3.467,3.6556,3.8244,3.8422,3.9987,4.2934,4.3189,4.3759,4.4638,4.4856,4.5093,4.5305,4.6032,4.6456,4.6668,4.7555,4.8019,4.8309,5.0012,5.0614,5.0764,5.3107,5.4029,5.4283,5.5077,5.5404,5.5404,5.5404,5.5404,5.5551,5.6549,5.7102,5.7779,5.9379,6.2093,6.4694,6.5307,6.794,7.0475,7.0475,7.0854,7.1268,7.1268,7.1268,7.1268,7.1268,7.1268,7.1478,7.2194,7.1965,7.1491,7.104,7.0033,6.9277,6.9044,6.9044,6.9044,6.9044,6.9044,6.9044,6.9044,6.8891,6.8732,6.8446,6.8318,6.7997,6.7479,6.6359,6.555,6.5125,6.4102,6.3394,6.3168,6.3168,6.3168,6.3168,6.3168,6.2522,0.0,0.0,0.0,0.0,0.0,0.0,0.0,0.0,0.0,0.0,0.0,1.9046,1.9604,0.0,2.0565,2.1611,2.1929,2.2631,2.4249,2.434,2.5209,2.8049,2.7916,2.7798,2.8309,2.8374,2.8374,2.8374,2.8374,2.8559,2.8934,3.0735,3.1874,3.2179,3.4365,3.6385,3.81,3.8696,4.0124,4.2361,4.2569,4.2927,4.3352,4.3352,4.3607,4.4038,4.4505,4.4971,4.5438,4.6414,4.7173,4.779,4.9303,4.9816,5.0055,5.2832,5.3513,5.3357,5.5505,5.5549,5.4895,5.6624,5.673,5.6463,5.7676,5.8412,5.919,6.0526,6.2768,6.4866,6.5593,6.7755,6.9666,6.9666,7.014,7.0591,7.0591,7.0591,7.0591,7.0591,7.073,7.104,7.1645,7.085,7.0054,7.0027,6.9393,6.9044,6.9044,6.9044,6.852,6.7183,6.7066,6.7066,6.7066,6.7066,6.7497,6.8643,6.8542,6.7998,6.6991,6.6203,6.507,6.3509,6.2824,6.211,6.1337,6.1337,6.1337,6.1367,6.1817,6.1547,0.0,0.0,0.0,0.0,0.0,0.0,0.0,0.0,0.0,0.0,0.0,0.0,0.0,0.0,0.0,2.159,2.2381,2.3461,2.5364,2.5687,2.6382,2.8168,2.8498,2.8618,2.8611,2.8764,2.8827,2.8827,2.9001,2.9139,2.9139,3.0692,3.1853,3.2366,3.4414,3.6257,3.7913,3.8952,4.0064,4.1257,4.1595,0.0,4.1985,4.1985,4.2375,4.3062,4.3062,4.3522,4.4244,4.4971,4.5974,4.7153,4.8481,4.9132,4.9666,5.273,5.3399,5.304,5.5854,5.5618,5.4646,5.7586,5.7931,5.7421,5.8808,5.9996,0.0,6.2116,6.3586,6.5078,6.5773,6.7167,6.8458,6.8458,6.9124,6.9823,6.9823,6.9823,6.9823,6.9823,7.0132,7.0563,7.0901,6.9668,6.8579,6.8574,6.8869,6.8928,6.8637,6.8869,6.823,6.6077,6.5845,6.5845,6.5845,6.4972,6.5728,6.8811,6.7774,6.6546,6.5418,6.4713,6.3236,6.0824,6.0481,6.0051,5.9535,5.9477,5.9477,5.942,5.8161,5.8386,0.0,0.0,0.0,0.0,0.0,0.0,0.0,0.0,0.0,0.0,0.0,0.0,0.0,0.0,0.0,0.0,2.2672,2.4179,2.5491,2.7046,2.8114,2.8338,2.8996,2.9426,2.9425,3.0054,3.0451,3.0451,3.134,3.1816,3.1816,3.3734,0.0,0.0,0.0,3.7487,3.8096,3.8548,3.945,4.0719,4.0785,4.121,4.1985,4.1985,4.2036,4.2155,4.2155,4.2205,4.2325,4.2375,4.342,4.5025,4.6409,4.7548,4.8834,5.2609,5.3942,5.4022,5.5201,0.0,0.0,5.6887,5.7234,5.7578,5.9765,6.1046,6.2081,6.3863,6.4976,6.5773,6.6538,6.6881,6.706,6.706,6.7173,6.7285,6.7285,6.7285,6.7285,6.7285,6.7582,6.7943,6.8236,6.8651,6.8547,6.7446,6.8288,6.8579,6.7446,6.8288,6.8928,6.8579,6.8579,0.0,6.8579,6.4361,6.378,6.8695,6.4592,6.1894,6.1492,5.9215,5.7726,5.717,5.5759,5.6673,5.9853,5.9593,5.9477,5.928,5.022,4.9583,0.0,0.0,0.0,0.0,0.0,0.0,0.0,0.0,0.0,0.0,0.0,0.0,0.0,0.0,0.0,0.0,2.3335,2.4739,2.573,2.6928,2.7819,2.8231,2.8566,2.8811,2.8893,3.0119,3.096,3.096,3.231,3.3165,3.3165,3.4796,3.5717,3.5717,3.7123,3.7937,3.8097,3.8513,3.8936,3.9518,3.9646,3.9923,4.0305,4.0305,4.0634,4.121,4.121,4.1709,4.2593,4.312,4.3674,4.4341,0.0,0.0,0.0,0.0,5.1512,5.2537,5.5478,5.5686,5.5034,5.747,5.807,5.8189,6.0194,6.1519,6.2726,6.4282,6.5179,6.5906,6.667,6.6834,6.6834,6.6834,6.6834,6.6834,6.6834,6.6834,6.6834,6.6834,6.7292,0.0,6.7843,6.851,6.8811,6.8288,6.8637,6.8811,6.8288,6.8695,6.8462,6.6892,6.6775,6.6775,6.6775,6.474,0.0,0.0,0.0,6.5348,6.4503,6.2676,0.0,0.0,0.0,5.3572,5.4888,5.131,0.0,0.0,4.9649,4.9666,0.0,0.0,0.0,0.0,0.0,0.0,0.0,0.0,0.0,0.0,0.0,0.0,0.0,0.0,0.0,0.0,2.3782,2.5334,2.6199,2.6805,2.7333,2.78,2.8455,2.8844,2.873,3.0539,3.1679,3.1679,3.3191,3.4191,3.4451,3.5659,3.6455,3.6695,3.7703,3.8257,3.8257,3.8608,3.8799,3.8799,3.8958,3.9053,3.9053,3.9053,3.9467,4.0232,4.0394,4.1257,4.2661,4.345,4.4146,4.4798,4.6386,4.7823,4.9024,4.9267,5.0095,5.159,5.5142,5.5339,5.4499,5.7632,5.835,5.8374,6.0142,6.1403,6.2617,6.4086,6.4985,6.5726,6.6646,6.6834,6.6834,6.6834,6.6834,6.6834,6.6834,6.6834,6.6834,6.6834,6.739,6.7875,6.7972,6.8574,6.8869,6.852,6.8753,6.8869,6.852,6.8811,6.8288,6.6368,6.6194,6.6194,6.6194,6.4856,6.5496,6.8811,6.7675,6.6775,6.6515,6.4595,6.2211,5.9435,5.5041,5.2128,0.0,0.0,0.0,0.0,0.0,0.0,0.0,0.0,0.0,0.0,0.0,0.0,0.0,0.0,0.0,0.0,0.0,0.0,0.0,0.0,0.0,0.0,0.0,0.0,2.6902,2.7021,2.7021,2.7057,2.9195,3.0356,2.9593,3.172,3.3172,3.3172,3.4152,3.5119,3.6042,3.6806,3.7698,3.8567,3.8672,3.8672,3.8672,3.8926,3.9053,3.9053,3.9053,3.9053,3.9053,3.9053,3.9096,3.9127,3.9822,4.0654,4.1719,4.2345,4.4088,4.6507,4.7963,4.8701,4.9084,4.9973,5.1048,5.2259,5.3507,5.3898,5.4237,5.6597,5.7368,5.7708,5.953,6.0559,6.1545,6.3436,6.4515,6.5432,6.6552,6.6834,6.6834,6.6834,6.6834,6.6834,6.6834,6.6834,6.6834,6.6834,6.739,6.7972,6.8382,6.8732,6.8579,6.733,6.8171,0.0,6.7271,6.823,6.8954,6.8928,6.8928,6.8928,6.8928,6.4245,6.3518,6.8695,6.4273,6.2617,6.5089,6.1482,5.8256,5.5814,5.5211,5.3218,4.9826,0.0,0.0,0.0,0.0,0.0,0.0,0.0,0.0,0.0,0.0,0.0,0.0,0.0,0.0,0.0,0.0,0.0,0.0,0.0,0.0,0.0,0.0,0.0,0.0,2.6801,2.7013,2.7013,2.7758,2.815,2.7914,3.0263,3.2043,3.2559,3.4609,3.597,3.6264,3.6515,3.6791,3.7129,3.7129,3.7129,3.7129,3.7825,3.8152,3.8152,3.8152,3.8741,3.9705,3.9551,4.0176,4.1399,4.1965,4.2841,4.3826,4.465,4.5239,4.5634,4.6101,4.6837,4.7591,4.7916,4.9237,5.1063,5.178,5.2354,5.2987,5.4977,5.616,5.7176,5.9004,6.0296,6.1359,6.2363,6.3228,6.3933,6.4296,6.5061,6.5714,6.5714,6.6303,6.6834,6.6834,6.6834,6.6956,6.7218,6.6343,6.5302,6.4246,6.7417,6.8751,6.4589,6.8213,7.1025,6.9704,7.0665,7.1205,7.0602,7.0541,7.0175,6.9336,6.7909,6.8008,7.0271,6.724,6.603,6.762,6.4713,6.2228,6.0508,6.0343,5.5428,4.5499,0.0,0.0,0.0,0.0,0.0,0.0,0.0,0.0,0.0,0.0,0.0,0.0,0.0,0.0,0.0,0.0,0.0,0.0,0.0,0.0,0.0,0.0,0.0,0.0,0.0,0.0,2.7482,2.7555,0.0,2.763,2.9474,3.0908,3.1406,3.3215,3.4648,3.5355,3.5527,3.594,3.6596,3.6873,3.699,3.699,3.7565,3.7838,3.7838,3.8136,3.88,3.9763,3.9879,4.0625,4.1828,4.2439,4.3198,4.4192,4.5358,4.5676,4.5354,4.5354,4.5959,4.6778,4.6778,4.8298,5.0384,5.0715,5.1948,5.3623,5.4788,5.5025,5.5189,5.6554,5.6971,5.7355,5.9249,6.047,6.1476,6.283,6.382,6.4416,6.4416,6.5005,6.565,6.6134,6.5577,6.5398,6.6722,6.6027,6.4706,6.3003,6.5519,6.6872,6.4192,6.7174,7.0095,7.132,7.2234,7.2581,7.2033,7.2001,7.1768,7.0815,7.1025,7.1142,7.1099,6.9669,6.843,6.7637,6.6295,6.4062,6.0782,6.0073,5.487,0.0,0.0,0.0,0.0,0.0,0.0,0.0,0.0,0.0,0.0,0.0,0.0,0.0,0.0,0.0,0.0,0.0,0.0,0.0,0.0,0.0,0.0,0.0,0.0,0.0,0.0,0.0,2.8284,2.8444,0.0,0.0,0.0,0.0,2.98,3.0323,3.1446,3.3396,3.3965,3.506,3.6918,3.7552,3.794,3.8013,3.8058,3.8086,3.8144,3.8912,3.9307,3.9409,4.0107,4.0501,4.0603,4.1301,4.2087,4.2946,4.4353,4.514,4.5592,4.5509,4.5753,4.6196,4.6359,4.7881,4.9978,5.0249,5.2573,5.5502,5.5341,5.372,5.1862,5.2155,5.0709,0.0,0.0,5.6202,5.7979,6.1815,6.283,6.2943,6.3055,6.3112,6.3507,6.4755,6.3272,6.2499,6.5245,6.5872,6.5408,6.3774,0.0,6.2886,6.5127,6.4821,6.63,7.183,7.2944,7.3266,7.3209,7.3463,7.3491,7.3153,7.3317,7.2786,7.1151,7.1124,6.9443,6.5573,6.6151,6.3398,5.6684,5.4745,0.0,0.0,0.0,0.0,0.0,0.0,0.0,0.0,0.0,0.0,0.0,0.0,0.0,0.0,0.0,0.0,0.0,0.0,0.0,0.0,0.0,0.0,0.0,0.0,0.0,0.0,2.6413,2.7288,2.8121,2.7677,2.7229,0.0,0.0,0.0,0.0,0.0,0.0,3.1382,3.1591,3.2527,3.4454,3.4674,3.5425,3.6767,3.7563,3.8229,3.8828,3.9044,3.9719,4.0863,4.0852,4.1611,4.2915,4.3572,4.4095,4.4378,4.2522,4.1787,4.1689,4.0196,3.974,4.0097,4.1902,4.3558,4.5348,4.8549,5.0565,5.1396,4.9469,4.9388,4.9222,4.5189,0.0,0.0,0.0,0.0,5.1801,5.6456,5.8346,5.9417,6.1307,6.2491,6.3281,6.3563,6.3359,6.274,6.1657,6.0195,5.7423,5.2243,5.5493,0.0,5.4217,6.1214,6.7619,6.9573,7.3346,7.5665,7.5174,7.5201,7.4788,7.3765,7.3027,7.269,7.2805,7.0133,6.8867,6.9563,6.4787,6.0298,5.6335,0.0,0.0,0.0,0.0,0.0,0.0,0.0,0.0,0.0,0.0,0.0,0.0,0.0,0.0,0.0,0.0,0.0,0.0,0.0,0.0,0.0,0.0,0.0,0.0,0.0,0.0,0.0,2.524,2.6711,2.7861,2.6955,2.6367,0.0,0.0,0.0,0.0,0.0,0.0,0.0,0.0,0.0,3.1968,3.2442,3.3189,3.4221,3.6043,3.7202,3.7626,3.9001,4.0117,4.0994,4.1207,4.1807,4.2799,4.32,4.3524,4.3595,4.1113,4.0021,3.9636,0.0,0.0,0.0,0.0,4.0678,4.268,4.4875,4.6552,4.7439,4.5504,0.0,0.0,0.0,0.0,0.0,0.0,0.0,4.9382,5.3207,5.6286,5.8741,6.0152,6.0999,6.1706,6.2423,5.9341,5.6331,5.6084,5.4682,5.2064,4.7605,4.9635,0.0,0.0,0.0,6.4652,6.8152,7.3627,7.6975,7.6603,7.6706,7.6126,7.4706,7.4094,7.3412,7.2397,7.0446,6.8543,6.6708,6.1987,5.6596,0.0,0.0,0.0,0.0,0.0,0.0,0.0,0.0,0.0,0.0,0.0,0.0,0.0,0.0,0.0,0.0,0.0,0.0,0.0,0.0,0.0,0.0,0.0,0.0,0.0,0.0,0.0,0.0,0.0,2.5998,2.7597,0.0,0.0,0.0,0.0,0.0,0.0,0.0,0.0,0.0,0.0,0.0,0.0,0.0,3.1671,3.19,3.4212,3.5435,3.5546,3.8257,3.9654,3.9833,4.0536,4.0994,4.1281,4.0759,0.0,4.2081,3.9753,0.0,0.0,0.0,0.0,0.0,0.0,0.0,0.0,0.0,0.0,0.0,0.0,0.0,0.0,0.0,0.0,0.0,0.0,0.0,0.0,0.0,0.0,5.8122,5.7952,5.832,5.8859,5.9514,5.2939,4.747,4.9132,4.8735,4.7516,0.0,0.0,0.0,0.0,0.0,0.0,6.6799,7.346,7.7488,7.7316,7.7563,7.6996,7.5352,7.5216,7.4016,7.1182,7.0447,6.7235,6.0793,5.8598,0.0,0.0,0.0,0.0,0.0,0.0,0.0,0.0,0.0,0.0,0.0,0.0,0.0,0.0,0.0,0.0,0.0,0.0,0.0,0.0,0.0,0.0,0.0,0.0,0.0,0.0,0.0,0.0,0.0,0.0,0.0,0.0,0.0,0.0,0.0,0.0,0.0,0.0,0.0,0.0,0.0,0.0,0.0,0.0,0.0,0.0,0.0,0.0,0.0,0.0,3.4712,3.5539,3.6564,3.6737,3.7883,3.9622,3.6527,3.8093,4.243,3.747,0.0,0.0,0.0,0.0,0.0,0.0,0.0,0.0,0.0,0.0,0.0,0.0,0.0,0.0,0.0,0.0,0.0,0.0,0.0,0.0,0.0,0.0,5.0677,5.0095,5.2283,5.3308,4.8922,0.0,0.0,0.0,0.0,0.0,0.0,0.0,0.0,0.0,0.0,0.0,6.3276,7.1863,7.721,7.6208,7.6148,7.5556,7.4105,7.2903,7.2028,7.15,6.5824,6.1472,0.0,0.0,0.0,0.0,0.0,0.0,0.0,0.0,0.0,0.0,0.0,0.0,0.0,0.0,0.0,0.0,0.0,0.0,0.0,0.0,0.0,0.0,0.0,0.0,0.0,0.0,0.0,0.0,0.0,0.0,0.0,0.0,0.0,0.0,0.0,0.0,0.0,0.0,0.0,0.0,0.0,0.0,0.0,0.0,0.0,0.0,0.0,0.0,0.0,0.0,0.0,0.0,0.0,0.0,0.0,0.0,0.0,0.0,3.5177,3.4837,0.0,0.0,0.0,0.0,0.0,0.0,0.0,0.0,0.0,0.0,0.0,0.0,0.0,0.0,0.0,0.0,0.0,0.0,0.0,0.0,0.0,0.0,0.0,0.0,0.0,0.0,0.0,0.0,0.0,0.0,0.0,0.0,0.0,0.0,0.0,0.0,0.0,0.0,0.0,0.0,6.015,6.9331,7.5348,7.4744,7.4702,7.411,7.2686,7.1897,6.9945,6.6108,6.1898,0.0,0.0,0.0,0.0,0.0,0.0,0.0,0.0,0.0,0.0,0.0,0.0,0.0,0.0,0.0,0.0,0.0,0.0,0.0,0.0,0.0,0.0,0.0,0.0,0.0,0.0,0.0,0.0,0.0,0.0,0.0,0.0,0.0,0.0,0.0,0.0,0.0,0.0,0.0,0.0,0.0,0.0,0.0,0.0,0.0,0.0,0.0,0.0,0.0,0.0,0.0,0.0,0.0,0.0,0.0,0.0,0.0,0.0,0.0,3.322,3.1551,0.0,0.0,0.0,0.0,0.0,0.0,0.0,0.0,0.0,0.0,0.0,0.0,0.0,0.0,0.0,0.0,0.0,0.0,0.0,0.0,0.0,0.0,0.0,0.0,0.0,0.0,0.0,0.0,0.0,0.0,0.0,0.0,0.0,0.0,0.0,0.0,0.0,0.0,0.0,0.0,5.8572,6.7578,7.3584,7.3255,7.3255,7.2597,7.1173,7.1041,6.8081,6.1109,5.813,0.0,0.0,0.0,0.0,0.0,0.0,0.0,0.0,0.0,0.0,0.0,0.0,0.0,0.0,0.0,0.0,0.0,0.0,0.0,0.0,0.0,0.0,0.0,0.0,0.0,0.0,0.0,0.0,0.0,0.0,0.0,0.0,0.0,0.0,0.0,0.0,0.0,0.0,0.0,0.0,0.0,0.0,0.0,0.0,0.0,0.0,0.0,0.0,0.0,0.0,0.0,0.0,0.0,0.0,0.0,0.0,0.0,0.0,0.0,0.0,0.0,0.0,0.0,0.0,0.0,0.0,0.0,0.0,0.0,0.0,0.0,0.0,0.0,0.0,0.0,0.0,0.0,0.0,0.0,0.0,0.0,0.0,0.0,0.0,0.0,0.0,0.0,0.0,0.0,0.0,0.0,0.0,0.0,0.0,0.0,0.0,0.0,0.0,0.0,0.0,0.0,5.9906,6.8191,7.3189,7.1831,7.1722,7.1107,6.955,6.9397,6.6921,6.1043,0.0,0.0,0.0,0.0,0.0,0.0,0.0,0.0,0.0,0.0,0.0,0.0,0.0,0.0,0.0,0.0,0.0,0.0,0.0,0.0,0.0,0.0,0.0,0.0,0.0,0.0,0.0,0.0,0.0,0.0,0.0,0.0,0.0,0.0,0.0,0.0,0.0,0.0,0.0,0.0,0.0,0.0,0.0,0.0,0.0,0.0,0.0,0.0,0.0,0.0,0.0,0.0,0.0,0.0,0.0,0.0,0.0,0.0,0.0,0.0,0.0,0.0,0.0,0.0,0.0,0.0,0.0,0.0,0.0,0.0,0.0,0.0,0.0,0.0,0.0,0.0,0.0,0.0,0.0,0.0,0.0,0.0,0.0,0.0,0.0,0.0,0.0,0.0,0.0,0.0,0.0,0.0,0.0,0.0,0.0,0.0,0.0,0.0,0.0,0.0,0.0,0.0,5.8788,6.6198,7.0734,7.023,7.0164,6.9879,6.9266,6.92,6.5278,5.5978,0.0,0.0,0.0,0.0,0.0,0.0,0.0,0.0,0.0,0.0,0.0,0.0,0.0,0.0,0.0,0.0,0.0,0.0,0.0,0.0,0.0,0.0,0.0,0.0,0.0,0.0,0.0,0.0,0.0,0.0,0.0,0.0,0.0,0.0,0.0,0.0,0.0,0.0,0.0,0.0,0.0,0.0,0.0,0.0,0.0,0.0,0.0,0.0,0.0,0.0,0.0,0.0,0.0,0.0,0.0,0.0,0.0,0.0,0.0,0.0,0.0,0.0,0.0,0.0,0.0,0.0,0.0,0.0,0.0,0.0,0.0,0.0,0.0,0.0,0.0,0.0,0.0,0.0,0.0,0.0,0.0,0.0,0.0,0.0,0.0,0.0,0.0,0.0,0.0,0.0,0.0,0.0,0.0,0.0,0.0,0.0,0.0,0.0,0.0,0.0,0.0,0.0,5.7915,6.4752,6.92,6.92,6.8827,6.8762,6.9134,6.8827,6.3786,5.2623,0.0,0.0,0.0,0.0,0.0,0.0,0.0,0.0,0.0,0.0,0.0,0.0,0.0,0.0,0.0,0.0,0.0,0.0,0.0,0.0,0.0,0.0,0.0,0.0,0.0,0.0,0.0,0.0,0.0,0.0,0.0,0.0,0.0,0.0,0.0,0.0,0.0,0.0,0.0,0.0,0.0,0.0,0.0,0.0,0.0,0.0,0.0,0.0,0.0,0.0,0.0,0.0,0.0,0.0,0.0,0.0,0.0,0.0,0.0,0.0,0.0,0.0,0.0,0.0,0.0,0.0,0.0,0.0,0.0,0.0,0.0,0.0,0.0,0.0,0.0,0.0,0.0,0.0,0.0,0.0,0.0,0.0,0.0,0.0,0.0,0.0,0.0,0.0,0.0,0.0,0.0,0.0,0.0,0.0,0.0,0.0,0.0,0.0,0.0,0.0,0.0,0.0,5.7915,6.4752,6.92,6.92,6.7928,6.7665,6.9069,6.7928,6.2753,0.0,0.0,0.0,0.0,0.0,0.0,0.0,0.0,0.0,0.0,0.0,0.0,0.0,0.0,0.0,0.0,0.0,0.0,0.0,0.0,0.0,0.0,0.0,0.0,0.0,0.0,0.0,0.0,0.0,0.0,0.0,0.0,0.0,0.0,0.0,0.0,0.0,0.0,0.0,0.0,0.0,0.0,0.0,0.0,0.0,0.0,0.0,0.0,0.0,0.0,0.0,0.0,0.0,0.0,0.0,0.0,0.0,0.0,0.0,0.0,0.0,0.0,0.0,0.0,0.0,0.0,0.0,0.0,0.0,0.0,0.0,0.0,0.0,0.0,0.0,0.0,0.0,0.0,0.0,0.0,0.0,0.0,0.0,0.0,0.0,0.0,0.0,0.0,0.0,0.0,0.0,0.0,0.0,0.0,0.0,0.0,0.0,0.0,0.0,0.0,0.0,0.0,0.0,5.7586,6.1353,6.4509,6.7402,6.6482,6.6219,6.76,6.7337,6.3128,5.3971,0.0,0.0,0.0,0.0,0.0,0.0,0.0,0.0,0.0,0.0,0.0,0.0,0.0,0.0,0.0,0.0,0.0,0.0,0.0,0.0,0.0,0.0,0.0,0.0,0.0,0.0,0.0,0.0,0.0,0.0,0.0,0.0,0.0,0.0,0.0,0.0,0.0,0.0,0.0,0.0,0.0,0.0,0.0,0.0,0.0,0.0,0.0,0.0,0.0,0.0,0.0,0.0,0.0,0.0,0.0,0.0,0.0,0.0,0.0,0.0,0.0,0.0,0.0,0.0,0.0,0.0,0.0,0.0,0.0,0.0,0.0,0.0,0.0,0.0,0.0,0.0,0.0,0.0,0.0,0.0,0.0,0.0,0.0,0.0,0.0,0.0,0.0,0.0,0.0,0.0,0.0,0.0,0.0,0.0,0.0,0.0,0.0,0.0,0.0,0.0,0.0,0.0,0.0,6.1287,6.4904,6.76,6.6613,6.6284,6.7731,6.7337,6.3325,5.4611,0.0,0.0,0.0,0.0,0.0,0.0,0.0,0.0,0.0,0.0,0.0,0.0,0.0,0.0,0.0,0.0,0.0,0.0,0.0,0.0,0.0,0.0,0.0,0.0,0.0,0.0,0.0,0.0,0.0,0.0,0.0,0.0,0.0,0.0,0.0,0.0,0.0,0.0,0.0,0.0,0.0,0.0,0.0,0.0,0.0,0.0,0.0,0.0,0.0,0.0,0.0,0.0,0.0,0.0,0.0,0.0,0.0,0.0,0.0,0.0,0.0,0.0,0.0,0.0,0.0,0.0,0.0,0.0,0.0,0.0,0.0,0.0,0.0,0.0,0.0,0.0,0.0,0.0,0.0,0.0,0.0,0.0,0.0,0.0,0.0,0.0,0.0,0.0,0.0,0.0,0.0,0.0,0.0,0.0,0.0,0.0,0.0,0.0,0.0,0.0,0.0,0.0,0.0,6.372,6.8674,6.9025,6.7776,6.7468,6.8959,6.7731,6.326,5.4742,4.9992,0.0,0.0,0.0,0.0,0.0,0.0,0.0,0.0,0.0,0.0,0.0,0.0,0.0,0.0,0.0,0.0,0.0,0.0,0.0,0.0,0.0,0.0,0.0,0.0,0.0,0.0,0.0,0.0,0.0,0.0,0.0,0.0,0.0,0.0,0.0,0.0,0.0,0.0,0.0,0.0,0.0,0.0,0.0,0.0,0.0,0.0,0.0,0.0,0.0,0.0,0.0,0.0,0.0,0.0,0.0,0.0,0.0,0.0,0.0,0.0,0.0,0.0,0.0,0.0,0.0,0.0,0.0,0.0,0.0,0.0,0.0,0.0,0.0,0.0,0.0,0.0,0.0,0.0,0.0,0.0,0.0,0.0,0.0,0.0,0.0,0.0,0.0,0.0,0.0,0.0,0.0,0.0,0.0,0.0,0.0,0.0,0.0,0.0,0.0,0.0,0.0,0.0,6.2095,6.3917,6.7205,6.6284,6.6021,6.7468,6.6219,6.2668,5.6241,4.9597,0.0,0.0,0.0,0.0,0.0,0.0,0.0,0.0,0.0,0.0,0.0,0.0,0.0,0.0,0.0,0.0,0.0,0.0,0.0,0.0,0.0,0.0,0.0,0.0,0.0,0.0,0.0,0.0,0.0,0.0,0.0,0.0,0.0,0.0,0.0,0.0,0.0,0.0,0.0,0.0,0.0,0.0,0.0,0.0,0.0,0.0,0.0,0.0,0.0,0.0,0.0,0.0,0.0,0.0,0.0,0.0,0.0,0.0,0.0,0.0,0.0,0.0,0.0,0.0,0.0,0.0,0.0,0.0,0.0,0.0,0.0,0.0,0.0,0.0,0.0,0.0,0.0,0.0,0.0,0.0,0.0,0.0,0.0,0.0,0.0,0.0,0.0,0.0,0.0,0.0,0.0,0.0,0.0,0.0,0.0,0.0,0.0,0.0,0.0,0.0,0.0,0.0,5.6899,6.03,6.7337,6.7381,6.6921,6.7029,6.635,6.2865,5.5763,4.9137,0.0,0.0,0.0,0.0,0.0,0.0,0.0,0.0,0.0,0.0,0.0,0.0,0.0,0.0,0.0,0.0,0.0,0.0,0.0,0.0,0.0,0.0,0.0,0.0,0.0,0.0,0.0,0.0,0.0,0.0,0.0,0.0,0.0,0.0,0.0,0.0,0.0,0.0,0.0,0.0,0.0,0.0,0.0,0.0,0.0,0.0,0.0,0.0,0.0,0.0,0.0,0.0,0.0,0.0,0.0,0.0,0.0,0.0,0.0,0.0,0.0,0.0,0.0,0.0,0.0,0.0,0.0,0.0,0.0,0.0,0.0,0.0,0.0,0.0,0.0,0.0,0.0,0.0,0.0,0.0,0.0,0.0,0.0,0.0,0.0,0.0,0.0,0.0,0.0,0.0,0.0,0.0,0.0,0.0,0.0,0.0,0.0,0.0,0.0,0.0,0.0,0.0,0.0,5.8094,6.6966,6.8301,6.817,6.7139,6.6634,6.2865,5.4545,0.0,0.0,0.0,0.0,0.0,0.0,0.0,0.0,0.0,0.0,0.0,0.0,0.0,0.0,0.0,0.0,0.0,0.0,0.0,0.0,0.0,0.0,0.0,0.0,0.0,0.0,0.0,0.0,0.0,0.0,0.0,0.0,0.0,0.0,0.0,0.0,0.0,0.0,0.0,0.0,0.0,0.0,0.0,0.0,0.0,0.0,0.0,0.0,0.0,0.0,0.0,0.0,0.0,0.0,0.0,0.0,0.0,0.0,0.0,0.0,0.0,0.0,0.0,0.0,0.0,0.0,0.0,0.0,0.0,0.0,0.0,0.0,0.0,0.0,0.0,0.0,0.0,0.0,0.0,0.0,0.0,0.0,0.0,0.0,0.0,0.0,0.0,0.0,0.0,0.0,0.0,0.0,0.0,0.0,0.0,0.0,0.0,0.0,0.0,0.0,0.0,0.0,0.0,0.0,5.8901,6.1681,6.418,6.6021,6.6963,6.4879,6.078,5.4414,0.0,0.0,0.0,0.0,0.0,0.0,0.0,0.0,0.0,0.0,0.0,0.0,0.0,0.0]}],[{"header":{"parameterUnit":"kt","parameterCategory":2,"dx":1,"dy":1,"la1":29.285339999999998,"la2":30.599998999999997,"lo1":-89.70041500000002,"lo2":-87.6738589999976,"nx":112,"ny":82,"refTime":"2022-10-08T00:00:00:Z","depth":0,"parameterNumber":2,"parameterNumberName":"V-component_of_WINDS"},"data":[10.38,10.5476,10.5147,9.4756,9.2653,9.0363,7.9506,7.7611,7.798,7.7465,0.0,0.0,0.0,0.0,0.0,0.0,0.0,0.0,0.0,6.8643,0.0,0.0,0.0,0.0,0.0,0.0,0.0,10.1505,10.1931,10.592,11.554,11.7139,11.8223,11.912,11.8903,11.8806,11.8806,11.8806,11.8999,11.9514,12.0457,12.1165,12.168,12.3098,12.3806,12.3806,12.4279,12.4472,12.4472,12.4472,12.5052,12.576,12.4859,12.5567,12.6812,12.4537,12.4064,12.4472,12.4472,12.4472,12.4472,12.4472,12.4472,12.4708,12.5567,12.5889,12.5759,12.5363,12.5196,12.4926,12.357,12.2575,12.1658,12.1025,11.9535,11.8352,11.86,11.8007,11.7184,11.5836,11.5643,11.4943,11.2751,11.2378,11.2087,11.1098,11.0982,11.0691,10.9985,10.9869,10.9578,10.8714,10.8597,10.8423,10.8065,10.8007,10.7832,10.7318,10.7259,10.7259,10.7259,10.7259,10.7259,10.7259,10.7259,10.7259,10.7259,10.7259,10.7259,10.7259,10.7259,10.7259,9.8146,9.9492,9.897,8.7519,8.5259,8.3305,7.3418,7.1767,7.2114,0.0,0.0,0.0,0.0,0.0,0.0,0.0,0.0,0.0,0.0,0.0,7.0583,7.2196,0.0,0.0,0.0,0.0,9.4486,10.1636,10.2062,10.599,11.5045,11.6612,11.7663,11.8607,11.8846,11.8903,11.8806,11.8806,11.8806,11.8806,11.9707,12.0199,12.0263,12.168,12.2325,12.2325,12.284,12.3033,12.3033,12.3033,12.3613,12.4386,12.342,12.4193,12.5438,12.3162,12.2647,12.3033,12.3033,12.3033,12.3033,12.3033,12.3033,12.3226,12.4193,12.445,12.4388,12.3963,12.3864,12.3489,12.2099,12.1046,12.0012,11.8609,11.7606,11.6756,11.6386,11.6229,11.5888,11.457,11.4321,11.3635,11.1352,11.0284,10.9761,10.9761,10.9761,10.9412,10.8705,10.8589,10.824,10.7376,10.7259,10.7259,10.7259,10.7259,10.7259,10.7259,10.7259,10.7259,10.7259,10.7259,10.7259,10.7259,10.7259,10.7259,10.7259,10.7259,10.7259,10.7259,10.6852,10.6387,9.5122,9.2887,9.0529,8.0222,7.7684,7.6105,7.0124,7.0604,7.1969,0.0,0.0,0.0,0.0,0.0,0.0,0.0,0.0,0.0,0.0,6.8667,7.2365,7.7127,8.3913,8.9936,9.4299,8.9639,9.1192,10.3012,9.8491,10.072,11.3446,11.5503,11.6564,11.7222,11.8647,11.9184,11.8806,11.8806,11.8806,11.8806,11.8806,11.8806,11.8806,12.0199,12.0843,12.0907,12.2325,12.2904,12.2904,12.2904,12.2904,12.2969,12.2904,12.2904,12.2711,12.1358,12.1745,12.2904,12.2904,12.2904,12.2904,12.2904,12.2904,12.2904,12.2969,12.2969,12.2969,12.3033,12.3033,12.3033,12.3033,12.3033,12.1954,11.811,11.7086,11.5967,11.2015,11.1177,11.1127,11.1076,11.1025,11.1025,11.0916,10.8888,10.7259,10.7259,10.7259,10.7259,10.7259,10.7259,10.7259,10.7259,10.7259,10.7259,10.7259,10.7259,10.7259,10.7259,10.7259,10.7259,10.7259,10.7259,10.7259,10.7259,10.7259,10.7259,10.7259,10.7259,10.7259,10.7201,10.5922,10.4642,8.7298,8.759,8.8286,8.1175,8.0062,7.9124,7.3336,0.0,0.0,0.0,0.0,0.0,0.0,0.0,0.0,0.0,0.0,7.6145,7.2657,7.939,8.5551,8.7879,8.9929,9.3738,10.0427,9.9674,10.1898,10.9516,10.4554,10.5111,11.4042,11.5651,11.6829,11.8009,11.9133,11.9558,11.9224,11.9224,11.9064,11.8806,11.8806,11.8806,11.8806,11.9192,11.9321,11.9385,11.9772,11.9965,11.9965,11.9965,12.0585,12.1358,12.0351,11.9965,11.99,11.9514,11.9578,11.9965,11.9965,11.9965,11.9965,11.9965,11.9965,12.0094,12.1165,12.1487,12.168,12.2711,12.3033,12.3033,12.3033,12.226,12.1174,12.0103,11.7975,11.6168,11.6092,11.4997,11.3549,11.2116,11.1826,11.1103,10.872,10.7725,10.7259,10.7259,10.7259,10.7259,10.7259,10.7259,10.7259,10.7259,10.7259,10.7259,10.7259,10.7259,10.7259,10.7259,10.7259,10.7259,10.7259,10.7259,10.7259,10.7259,10.7259,10.7259,10.7259,10.7259,10.6794,10.5863,10.4526,10.3759,0.0,0.0,0.0,0.0,0.0,0.0,7.2391,0.0,6.9967,0.0,0.0,0.0,0.0,0.0,0.0,0.0,7.567,7.9847,7.631,8.4629,9.194,9.4176,9.8231,10.1833,10.439,10.4161,10.6197,11.2118,10.7117,10.6723,11.3397,11.4808,11.569,11.6324,11.7962,11.8571,11.824,11.8821,11.8984,11.8806,11.8806,11.8806,11.8806,11.8806,11.8806,11.8806,11.8806,11.8806,11.8806,11.8806,11.9256,11.9941,11.9128,11.8806,11.8806,11.8806,11.8806,11.8806,11.8806,11.8806,11.8806,11.8806,11.8806,11.8935,11.9772,12.0006,12.0199,12.1036,12.069,12.0081,12.0081,11.8788,11.7324,11.6548,11.4874,11.3439,11.3469,11.2593,11.1469,11.0337,11.0145,10.9474,10.7621,10.7259,10.7259,10.7259,10.7259,10.7259,10.7259,10.7259,10.7259,10.7259,10.7259,10.7259,10.7259,10.7259,10.7259,10.7259,10.7259,10.7259,10.7259,10.6736,10.6212,10.5679,10.5631,10.5631,10.5631,10.5631,10.4991,10.3711,10.2955,10.2257,0.0,0.0,0.0,0.0,7.854,0.0,0.0,0.0,7.2621,6.8652,0.0,6.8818,6.9189,0.0,0.0,6.9625,7.8608,8.4245,8.016,8.8283,9.5716,9.8738,10.7088,11.1035,10.7286,10.5674,10.7055,11.2153,10.7844,10.7186,11.2285,11.3569,11.399,11.3658,11.5884,11.695,11.6582,11.792,11.8589,11.8548,11.8677,11.8806,11.8806,11.8806,11.8806,11.8806,11.8806,11.8806,11.8806,11.8806,11.8806,11.8806,11.8806,11.8806,11.8806,11.8806,11.8806,11.8806,11.8806,11.8806,11.8806,11.8806,11.8806,11.8806,11.8806,11.8806,11.8806,11.8806,11.7531,11.6188,11.6188,11.4863,11.3148,11.1152,11.0517,10.9814,10.7982,10.7456,10.7259,10.7259,10.7259,10.7259,10.7259,10.7259,10.7259,10.7259,10.7259,10.7259,10.7259,10.7259,10.7259,10.7259,10.7259,10.7259,10.7259,10.7143,10.7085,10.7085,10.691,10.6852,10.6852,10.5747,10.4584,10.3468,10.341,10.341,10.341,10.341,10.2711,10.1268,10.1268,10.0628,0.0,0.0,0.0,0.0,0.0,7.4922,0.0,0.0,0.0,8.6139,8.4822,8.3235,8.5783,8.459,8.4208,8.7174,9.357,9.7042,9.3683,10.2127,10.8859,10.9553,11.1364,11.2219,11.143,11.1101,11.1364,11.2482,11.1561,11.143,11.2482,11.3822,11.4502,11.4495,11.5699,11.6238,11.5846,11.6963,11.736,11.7067,11.8226,11.8806,11.8806,11.8806,11.8806,11.8806,11.8806,11.8806,11.8806,11.8806,11.8806,11.8806,11.8806,11.8806,11.8806,11.8806,11.8806,11.8806,11.8806,11.8806,11.8806,11.8806,11.8806,11.8806,11.8806,11.8806,11.8806,11.8806,11.8498,11.8212,11.8212,11.7902,11.7134,11.5185,11.3548,11.1885,10.9908,10.8311,10.7259,10.7259,10.7259,10.7259,10.7259,10.7259,10.7259,10.7259,10.7259,10.7259,10.7259,10.7259,10.7259,10.7259,10.7259,10.7259,10.7259,10.6329,10.5747,10.5747,10.47,10.4166,10.4166,10.3933,10.3701,10.341,10.341,10.341,10.341,10.341,10.2199,9.9885,9.9885,9.9768,0.0,0.0,0.0,7.5803,0.0,0.0,0.0,7.487,7.6519,8.3556,8.401,8.4464,8.9083,8.9873,9.0292,9.1638,9.8019,10.3307,10.4653,10.9287,11.2548,11.2548,11.2548,11.2548,11.2548,11.2548,11.2548,11.2548,11.2548,11.2548,11.2548,11.3057,11.3343,11.3343,11.4354,11.4803,11.4578,11.5628,11.6031,11.59,11.7082,11.7711,11.7711,11.8484,11.8806,11.8806,11.8806,11.8806,11.8806,11.8806,11.8806,11.8806,11.8806,11.8806,11.8806,11.8806,11.8806,11.8806,11.8806,11.8806,11.8806,11.8806,11.8806,11.8806,11.8806,11.8806,11.8806,11.8806,11.8025,11.7301,11.7301,11.6568,11.5614,11.4602,11.3619,11.2639,11.1703,11.0736,10.9814,10.8888,10.7934,10.6852,10.5573,10.5863,10.6096,10.5446,10.5388,10.5388,10.5388,10.5388,10.5388,10.5388,10.5388,10.5388,10.5388,10.4758,10.4351,10.4351,10.3769,10.341,10.341,10.2828,10.2432,10.2432,10.1792,10.1443,10.1443,10.1443,10.0803,9.9536,9.9536,9.9536,0.0,0.0,0.0,0.0,0.0,0.0,7.2289,7.3554,7.68,8.2942,8.5311,8.787,9.3287,9.5821,9.6782,9.5739,10.1447,10.7622,11.2244,11.2725,11.2548,11.2548,11.2548,11.2548,11.2548,11.2548,11.2548,11.2548,11.2548,11.2548,11.2548,11.2228,11.2085,11.2085,11.2799,11.3193,11.3119,11.4136,11.462,11.4505,11.5679,11.623,11.6294,11.7389,11.7969,11.7969,11.8226,11.8355,11.8419,11.8677,11.8484,11.7969,11.7969,11.7969,11.7969,11.7969,11.7969,11.7969,11.7969,11.7969,11.7969,11.7969,11.7969,11.7969,11.8291,11.8355,11.8419,11.8677,11.7342,11.5742,11.54,11.3936,11.2495,11.2092,11.1863,11.1545,11.1185,11.1277,11.0989,10.9564,10.8119,10.6288,10.3806,10.4293,10.4642,10.3584,10.341,10.341,10.341,10.341,10.341,10.341,10.341,10.341,10.341,10.3177,10.306,10.306,10.2781,10.2606,10.2606,10.1617,10.1094,10.1094,10.0059,9.9536,9.9536,9.9536,9.9536,9.9536,9.9536,9.9536,0.0,0.0,0.0,0.0,7.2848,0.0,8.9512,9.0258,9.1862,10.7025,10.9289,10.9565,11.2908,11.2764,11.2029,11.1867,11.2704,11.3574,11.4143,11.3322,11.2548,11.2548,11.2548,11.2548,11.2548,11.2548,11.2548,11.2548,11.2548,11.2548,11.2548,11.2477,11.2477,11.2477,11.2216,11.1986,11.1594,11.2644,11.298,11.2636,11.4079,11.4749,11.4749,11.4878,11.4942,11.5007,11.6294,11.6874,11.7003,11.8291,11.726,11.4942,11.4942,11.4942,11.4942,11.4942,11.4942,11.4942,11.4942,11.4942,11.4942,11.4942,11.4942,11.52,11.6488,11.6874,11.7132,11.8419,11.7342,11.5443,11.3725,11.2269,11.0773,10.9126,10.7919,10.658,10.4841,10.5415,10.6311,10.6637,10.658,10.5789,10.3798,10.3526,10.3584,10.3468,10.341,10.341,10.341,10.341,10.341,10.341,10.341,10.341,10.341,10.2315,10.1675,10.1675,10.0628,9.9943,9.9943,9.9827,9.971,9.971,9.9594,9.9536,9.9536,9.9536,9.9536,9.9536,9.9536,9.9536,0.0,0.0,0.0,7.2826,0.0,0.0,8.4721,8.7881,9.2251,10.4743,10.7739,10.9678,11.4412,11.6135,11.6621,11.5807,11.5747,11.52,11.3565,11.3531,11.3393,11.2654,11.2548,11.2548,11.2548,11.2548,11.2548,11.2548,11.2548,11.2548,11.2548,11.2548,11.2548,11.2548,11.2371,11.2228,11.2049,11.2276,11.2199,11.1792,11.3055,11.3434,11.3268,11.4105,11.4491,11.4556,11.5135,11.5393,11.5457,11.6037,11.5586,11.4491,11.4491,11.4491,11.4491,11.4491,11.4491,11.4491,11.4491,11.4491,11.4491,11.4491,11.4491,11.462,11.52,11.5393,11.5522,11.6101,11.5712,11.4922,11.4017,11.3409,11.2554,11.0724,10.9905,10.9019,10.7179,10.7213,10.6582,10.3004,10.3555,10.3867,10.1524,10.1792,10.2024,10.1268,10.1152,10.1152,10.1152,10.1152,10.1152,10.1152,10.1152,10.1152,10.1152,10.0687,10.0338,10.0338,9.9827,9.9536,9.9536,9.9536,9.9536,9.9536,9.9536,9.9536,9.9536,9.9536,9.9536,9.9536,9.9536,9.9536,6.736,0.0,0.0,0.0,0.0,0.0,8.5931,8.979,9.4524,10.3511,10.6273,10.875,11.4341,11.6497,11.7275,11.7068,11.644,11.5431,11.3873,11.3838,11.3599,11.2654,11.2548,11.2548,11.2548,11.2548,11.2548,11.2548,11.2548,11.2548,11.2548,11.2548,11.2548,11.2548,11.2548,11.2442,11.2228,11.1941,11.1544,11.1069,11.1874,11.2026,11.1787,11.2817,11.3268,11.3332,11.3719,11.3654,11.3268,11.3268,11.3268,11.3268,11.3268,11.3268,11.3268,11.3268,11.3268,11.3268,11.3268,11.3268,11.3268,11.3268,11.3268,11.3397,11.3783,11.3912,11.3976,11.4363,11.3759,11.2978,11.2978,11.187,11.0572,10.9214,10.8609,10.8022,10.6792,10.653,10.5152,10.0419,10.1036,10.1734,9.9827,10.0338,10.0628,9.9652,9.9536,9.9536,9.9536,9.9536,9.9536,9.9536,9.9536,9.9536,9.9536,9.9536,9.9536,9.9536,9.9536,9.9536,9.9536,9.9536,9.9536,9.9536,9.9536,9.9536,9.9536,9.9536,9.9303,9.9013,9.9013,9.878,0.0,0.0,0.0,8.0751,8.3075,8.7158,10.2483,10.3727,10.3868,11.1609,11.2261,11.2784,11.7258,11.6072,11.523,11.7731,11.5986,11.4835,11.6298,11.4277,11.2583,11.2548,11.2548,11.2548,11.2548,11.2548,11.2548,11.2548,11.2548,11.2548,11.2548,11.2548,11.2548,11.2548,11.2548,11.2192,11.1435,11.1398,11.0995,11.0252,11.0279,11.0279,11.0279,11.0306,11.0343,11.0408,11.1825,11.1632,11.0343,11.0343,11.0343,11.0343,11.0343,11.0343,11.0343,11.0343,11.0343,11.0343,11.0343,11.0343,11.0343,11.0343,11.0343,11.0601,11.2018,11.2366,11.2688,11.4105,11.1837,10.9026,10.9026,10.5458,10.1825,10.1779,10.0846,9.9867,9.9822,9.9776,9.9776,9.9581,9.9594,9.9594,9.9536,9.9536,9.9536,9.9536,9.9536,9.9536,9.9536,9.9536,9.9536,9.9536,9.9536,9.9536,9.9536,9.9536,9.9536,9.9536,9.9536,9.9536,9.9536,9.9536,9.9536,9.9536,9.9536,9.9536,9.9536,9.9536,9.8896,9.7631,9.7631,9.708,6.6375,7.0668,7.6246,8.4412,8.9642,9.4571,10.1942,10.5955,10.8842,11.1447,11.2484,11.3313,11.482,11.2849,11.1588,11.3449,11.3941,11.3611,11.2417,11.3077,11.3103,11.1376,11.1921,11.2548,11.2548,11.2548,11.2548,11.2548,11.2548,11.2548,11.2548,11.2548,11.2548,11.2548,11.2548,11.2406,11.2157,11.2157,11.1761,11.0995,11.0995,11.07,11.0215,11.0215,11.0215,11.0279,11.073,11.0113,10.8889,10.9791,11.0215,11.0215,11.0215,11.0215,11.0215,11.0215,11.0215,11.0215,11.0215,11.0215,11.0215,11.0215,11.0215,11.0343,11.0757,11.0923,11.1052,11.1529,11.0724,10.9761,10.9761,10.7639,10.4863,10.2564,10.1647,10.0996,9.9751,9.9536,9.9536,9.9536,9.9536,9.9536,9.9536,9.9536,9.9536,9.9536,9.9536,9.9536,9.9536,9.9536,9.9536,9.9536,9.9536,9.9536,9.9536,9.9536,9.9536,9.9536,9.9536,9.9536,9.9536,9.9536,9.9536,9.9536,9.9536,9.8709,9.7066,9.7066,9.6892,9.6382,9.6382,9.6194,6.8572,7.3007,7.8164,8.8073,9.4832,9.9993,10.3632,10.7528,11.032,11.032,11.0743,11.1236,11.1728,10.9937,10.8845,11.0334,11.1036,11.102,10.9911,11.1034,11.1297,10.9644,11.0817,11.1789,11.1789,11.225,11.2548,11.2548,11.2548,11.2548,11.2548,11.2548,11.2548,11.2548,11.2548,11.2548,11.2548,11.2406,11.1751,11.0646,11.0646,11.0067,10.9102,10.8955,10.8918,10.8982,10.995,10.9886,10.9139,10.9865,11.0215,11.0215,11.0215,11.0215,11.0215,11.0215,11.0215,11.0215,11.0215,11.0215,11.0215,11.0215,11.0215,11.0215,11.0215,10.98,10.9279,10.9279,10.8327,10.736,10.736,10.5971,10.4065,10.182,10.1306,10.0951,9.9751,9.9536,9.9536,9.9536,9.9536,9.9536,9.9536,9.9536,9.9536,9.9536,9.9536,9.9536,9.9536,9.9536,9.9536,9.9536,9.9536,9.9536,9.9536,9.9536,9.9536,9.9536,9.9536,9.9536,9.9536,9.9536,9.9303,9.8838,9.8838,9.7836,9.5786,9.5786,9.5553,9.5146,9.5146,9.4855,6.9518,7.3884,7.8516,9.2136,9.8893,10.3373,10.7739,10.8725,10.8725,10.8725,10.7645,10.7082,10.8279,10.7434,10.7082,10.8443,10.7653,10.7344,10.872,10.8114,10.7546,10.7389,10.898,11.008,11.0211,11.146,11.2315,11.2416,11.2548,11.2548,11.2548,11.2548,11.2548,11.2548,11.2548,11.2548,11.2548,11.2157,11.1144,10.9409,10.9409,10.8658,10.7321,10.6938,10.6731,10.6731,10.9515,11.0681,11.0644,11.0364,11.0215,11.0215,11.0215,11.0215,11.0215,11.0215,11.0215,11.0215,11.0215,11.0215,11.0215,11.0215,11.0215,11.0215,11.0215,10.8985,10.7637,10.7558,10.5068,10.2518,10.2431,10.104,9.966,9.966,9.9627,9.9536,9.9536,9.9536,9.9536,9.9536,9.9536,9.9478,9.942,9.942,9.942,9.9361,9.9303,9.9361,9.9361,9.9361,9.9361,9.9361,9.9361,9.9303,9.9245,9.9303,9.9361,9.9361,9.9361,9.9303,9.9303,9.9303,9.8722,9.7559,9.7398,9.6803,9.5612,9.5612,9.4972,9.3808,9.3808,9.3125,7.6896,8.4149,9.0236,9.969,10.2928,10.4406,10.673,10.7293,10.7293,10.7293,10.7011,10.6096,10.4125,10.4406,10.5111,10.5463,10.6212,10.6227,10.4773,10.5368,10.5285,10.345,10.4621,10.6068,10.712,10.8501,10.9817,11.0869,11.1921,11.2548,11.2548,11.2548,11.2548,11.2548,11.2548,11.2548,11.2548,11.2442,11.1996,11.1275,11.1275,11.0935,11.032,11.0212,10.9185,10.7441,10.866,10.9183,10.9248,10.9977,11.0215,11.0215,11.0215,11.0215,11.0215,11.0215,11.0215,11.0215,11.0215,11.0215,11.0215,11.0215,11.0215,11.0215,11.0215,10.9913,10.9279,10.7873,10.6819,10.5849,10.4588,10.2951,10.1512,10.1512,10.0504,9.9536,9.9536,9.9536,9.9536,9.9536,9.9536,9.9187,9.8257,9.8082,9.7792,9.6892,9.6776,9.6964,9.7559,9.7138,9.6964,9.7559,9.708,9.6499,9.5859,9.6382,9.7022,9.7559,9.708,9.6776,9.6776,9.6776,9.6601,9.631,9.5335,9.4172,9.295,9.295,9.2776,9.2427,9.2427,9.2252,7.5401,8.4342,9.3544,10.1379,10.3843,10.4618,10.5533,10.5674,10.5674,10.5674,10.5181,10.4125,10.2365,10.2787,10.335,10.335,10.4125,10.4221,10.2796,10.3425,10.3394,10.1579,10.276,10.3853,10.4161,10.5542,10.6692,10.7515,10.8896,11.0048,11.0671,11.1263,11.1855,11.2548,11.2548,11.2548,11.2548,11.2548,11.2442,11.2228,11.1537,11.084,11.0003,10.9831,10.9777,10.9832,10.9865,10.9973,11.0111,11.0191,11.0327,11.0439,11.029,11.0215,11.0215,11.0215,11.0215,11.0215,11.0215,11.0215,11.0215,11.0215,11.0215,11.0215,11.0215,10.9622,10.8793,10.7794,10.6376,10.4943,10.4,10.2431,10.104,10.104,10.0293,9.9187,9.8127,9.7895,9.7895,9.7895,9.7895,9.7662,9.6964,9.6789,9.6557,9.5903,9.5786,9.5961,9.644,9.6077,9.6019,9.644,9.6077,9.5612,9.5103,9.5553,9.6019,9.644,9.6077,9.5786,9.5786,9.5786,9.5553,9.4972,9.3691,9.266,9.1962,9.1962,9.1962,9.1962,9.1962,9.1962,7.2076,8.1015,9.2227,9.983,10.2717,10.3843,10.4054,10.3914,10.3843,10.4054,10.2646,10.145,10.145,10.1613,10.1754,10.1754,10.1872,10.1968,10.1832,10.1994,10.1769,10.0676,10.1768,10.22,10.1419,10.2614,10.3504,10.3701,10.5016,10.6463,10.7876,10.9159,11.0474,11.1921,11.2022,11.2052,11.2285,11.2285,11.2315,11.2548,11.1263,11.008,10.8862,10.852,10.9867,11.2513,11.1797,11.1653,11.1869,11.0737,11.0476,11.0774,11.0364,11.0215,11.0215,11.0215,11.0215,11.0215,11.0215,11.0215,11.0215,11.0215,11.0215,11.0215,11.0215,10.8819,10.7164,10.6966,10.4409,10.1676,10.1415,10.0257,9.9058,9.9058,9.9058,9.8418,9.631,9.5786,9.5786,9.5786,9.5786,9.5786,9.5786,9.5714,9.5495,9.5321,9.5321,9.5321,9.5321,9.5321,9.5321,9.5321,9.5321,9.5321,9.5321,9.5321,9.5321,9.5321,9.5321,9.5321,9.5321,9.5321,9.4797,9.3691,9.2543,9.1962,9.1962,9.1962,9.1962,9.1962,9.1962,9.1962,8.2863,8.758,9.1945,9.8514,10.0345,10.0886,10.2154,10.145,10.0909,10.2154,10.0204,9.8162,9.8162,9.9289,10.0134,10.0134,10.1261,10.1741,10.076,10.0679,10.0231,9.9089,9.8476,9.8535,9.9478,10.0016,10.0776,10.1991,10.3504,10.5016,10.6397,10.6726,10.7515,10.8927,10.8993,10.9585,11.0737,11.0803,11.1395,11.2548,11.2285,11.2052,11.1789,11.1754,11.2017,11.2513,11.2049,11.1905,11.1905,11.1032,11.0737,11.0774,11.0364,11.0215,11.0215,11.0215,11.0215,11.0215,11.0215,11.0215,11.0215,11.0215,11.0215,11.0215,11.0215,10.8284,10.5726,10.4236,10.1462,9.8713,9.7287,9.669,9.6485,9.6485,9.6485,9.6368,9.5946,9.5786,9.5786,9.5786,9.5786,9.5786,9.5786,9.4913,9.3823,9.2776,9.2601,9.2601,9.2601,9.2601,9.2601,9.2601,9.2601,9.2601,9.2601,9.2601,9.2601,9.2601,9.2601,9.2601,9.2601,9.2601,9.2485,9.2311,9.2078,9.1962,9.1962,9.1962,9.1962,9.1962,9.1962,9.1962,8.0065,8.5539,9.11,9.4128,9.6684,9.8937,10.0486,9.9641,9.8726,9.95,9.8444,9.7388,9.7388,9.7951,9.8514,9.8514,9.9148,9.9394,9.8853,9.9484,9.96,9.842,9.8527,9.8559,9.8064,9.8139,9.8248,9.8274,9.969,10.1202,10.2649,10.3372,10.4819,10.712,10.7186,10.7844,10.9256,10.9322,11.0014,11.146,11.146,11.1789,11.2482,11.1,11.0343,11.0308,11.0745,11.0936,11.1143,11.1109,11.1216,11.1362,11.0737,11.0514,11.0476,11.029,10.9726,10.9147,10.9147,10.8632,10.7988,10.7988,10.7988,10.7988,10.7988,10.6957,10.5486,10.3815,10.1559,9.9286,9.755,9.6511,9.5786,9.5786,9.4797,9.3808,9.3808,9.3808,9.3808,9.3808,9.3808,9.3808,9.3808,9.3241,9.266,9.2078,9.1962,9.1962,9.1962,9.1962,9.1962,9.1962,9.1962,9.1962,9.1962,9.1962,9.1962,9.1962,9.1962,9.1962,9.1962,9.1962,9.1962,9.1962,9.1962,9.1962,9.1962,9.1962,9.1962,9.1962,9.1222,9.0931,7.6755,8.2863,9.0115,9.1151,9.3635,9.6472,9.8726,9.774,9.6402,9.6402,9.612,9.5979,9.6331,9.6402,9.6472,9.6824,9.7176,9.7388,9.7388,9.8444,9.8862,9.7928,9.8821,9.8807,9.7383,9.6828,9.6357,9.5694,9.6422,9.7585,9.9001,10.015,10.1925,10.4622,10.4687,10.5411,10.6824,10.7152,10.8107,10.9488,10.9817,11.054,11.1526,10.9322,10.827,10.8336,10.9141,10.967,10.9944,11.039,11.0739,11.0954,11.0196,10.9904,10.983,10.9424,10.8567,10.7629,10.7629,10.6857,10.5955,10.5955,10.5955,10.5883,10.5528,10.5007,10.4098,10.2529,10.057,9.8643,9.7286,9.5973,9.4972,9.4972,9.3458,9.1962,9.1962,9.1962,9.1962,9.1962,9.1962,9.1962,9.1962,9.1962,9.1962,9.1962,9.1729,9.1512,9.1512,9.1512,9.1512,9.1512,9.1787,9.1962,9.1962,9.1962,9.1962,9.1962,9.1962,9.1962,9.1962,9.138,9.1089,9.1089,9.1089,9.1089,9.1089,9.1089,9.1089,9.1089,9.0059,8.9594,8.2248,8.5346,8.934,9.3544,9.284,9.2157,9.6613,9.5254,9.3122,9.3122,9.2016,9.1452,9.284,9.3122,9.3614,9.5022,9.6451,9.7388,9.7388,9.7529,9.7577,9.747,9.6943,9.6951,9.7813,9.639,9.5812,9.6786,9.5937,9.6073,9.7485,9.7651,9.8506,10.0053,10.0118,10.0776,10.2254,10.3701,10.5082,10.6562,10.7844,10.8533,10.8664,10.8401,10.827,10.827,10.8367,10.8433,10.8433,10.8151,10.8077,10.8042,10.7239,10.6954,10.6882,10.6486,10.6277,10.6148,10.6148,10.6084,10.5955,10.5955,10.5955,10.5637,10.4245,10.1861,9.922,9.7553,9.4978,9.2715,9.2547,9.2437,9.2311,9.2311,9.2136,9.1962,9.1962,9.1962,9.1962,9.1962,9.1962,9.1962,9.1962,9.1962,9.1962,9.1962,9.0931,9.0175,9.0175,9.0175,9.0175,9.0175,9.1222,9.1962,9.1962,9.1962,9.1962,9.1962,9.1962,9.1962,9.1962,8.9693,8.8413,8.8413,8.8413,8.8413,8.8413,8.8413,8.8413,8.8413,8.8297,8.8239,7.3782,7.7302,8.1596,8.3427,8.7932,9.2066,9.2931,9.2227,9.1573,9.2559,9.2207,9.1714,9.1362,9.2066,9.2629,9.2277,9.3565,9.455,9.455,9.5395,9.5958,9.5958,9.6525,9.6904,9.6927,9.6257,9.5894,9.5914,9.5517,9.5481,9.6073,9.6073,9.6731,9.8177,9.8243,9.8901,10.0316,10.0973,10.2517,10.4819,10.5377,10.518,10.4359,10.5246,10.5706,10.5706,10.5706,10.62,10.7055,10.7705,10.803,10.7996,10.7411,10.7201,10.7131,10.653,10.5734,10.4988,10.4739,10.4124,10.3339,10.2281,10.1954,10.1599,10.0009,9.8621,9.7301,9.5702,9.4392,9.3217,9.2197,9.1962,9.1787,9.0931,9.0757,9.0524,8.9751,8.9577,8.9577,8.9577,8.9577,8.9577,8.9577,8.9577,8.9577,8.9577,8.917,8.8821,8.8821,8.8821,8.8821,8.8821,8.9286,8.9577,8.9577,8.9577,8.9577,8.9577,8.9577,8.9577,8.9577,8.8588,8.8064,8.8064,8.8064,8.8064,8.8064,8.8064,8.8064,8.8006,8.725,8.6901,6.911,7.1826,7.5558,7.6879,8.2934,8.8617,8.8918,8.8636,8.9129,9.2136,9.1995,9.1151,9.0517,9.0889,9.1151,9.0467,9.1714,9.2699,9.2699,9.3685,9.4389,9.4389,9.5422,9.6089,9.587,9.5452,9.506,9.493,9.4681,9.4597,9.4597,9.4991,9.5744,9.6761,9.6731,9.7257,9.8212,9.8672,9.9953,10.2057,10.2912,10.2517,10.1071,10.2649,10.3306,10.3372,10.3832,10.4556,10.5542,10.6561,10.7021,10.6987,10.6548,10.6343,10.6171,10.5481,10.4553,10.3608,10.3328,10.2579,10.1667,10.0446,9.9762,9.9005,9.7309,9.6467,9.5788,9.4177,9.369,9.3464,9.2239,9.1671,9.0989,8.971,8.9419,8.9129,8.8239,8.8064,8.8064,8.8064,8.8064,8.8064,8.8064,8.8064,8.8064,8.8064,8.8064,8.789,8.7541,8.7483,8.7483,8.7483,8.7832,8.8064,8.8064,8.8064,8.8064,8.8064,8.8064,8.7715,8.6959,8.6901,8.6901,8.6901,8.6901,8.6901,8.6901,8.6901,8.6901,8.6901,8.5931,8.5524,7.2438,7.1912,7.3023,7.7566,7.8763,8.01,8.4694,8.4572,8.5205,9.1432,9.0256,8.8566,9.0115,8.9129,8.8636,9.0095,9.1714,9.2699,9.2699,9.277,9.277,9.277,9.3114,9.3821,9.4966,9.3559,9.3013,9.4012,9.35,9.315,9.315,9.4465,9.5284,9.5284,9.5284,9.5284,9.5284,9.6665,9.7419,9.7485,10.0347,10.0907,9.9593,10.1005,10.1662,10.1794,10.3306,10.403,10.403,10.403,10.403,10.3997,10.3602,10.3236,10.2833,10.246,10.2117,10.1841,10.1905,10.1841,10.1841,10.1841,10.0723,9.9005,9.7309,9.5749,9.4137,9.2448,9.1962,9.1962,9.1962,9.0989,8.971,8.8355,8.8064,8.8064,8.8064,8.8064,8.8064,8.8064,8.8064,8.8064,8.8064,8.8064,8.8064,8.8064,8.8064,8.7599,8.628,8.6105,8.6105,8.6105,8.7308,8.8064,8.8064,8.8064,8.8064,8.8064,8.8064,8.6901,8.4264,8.4206,8.4206,8.4206,8.4206,8.4206,8.4206,8.4206,8.4206,8.4206,8.4148,8.4148,6.8399,6.9487,7.1443,7.6105,7.7988,7.9959,8.4623,8.7036,8.8707,9.0748,9.0306,8.9481,8.8918,9.0095,9.11,9.0467,9.1714,9.2699,9.2699,9.2699,9.2699,9.2699,9.2852,9.2857,9.2816,9.2991,9.2746,9.2032,9.2428,9.236,9.1725,9.3019,9.3808,9.3808,9.4728,9.5284,9.5284,9.5678,9.6402,9.7419,9.8309,9.8506,9.8112,9.9527,10.0184,10.025,10.1794,10.2386,10.2517,10.3569,10.403,10.3997,10.3833,10.3734,10.3569,10.3171,10.2802,10.2463,10.219,10.2014,10.1667,10.0481,9.9762,9.882,9.6062,9.484,9.4096,9.2406,9.1962,9.1687,9.0815,8.9693,8.8355,8.7076,8.6727,8.6494,8.5582,8.5408,8.5408,8.5408,8.5408,8.5408,8.5408,8.5408,8.5408,8.5408,8.5408,8.5233,8.4826,8.4826,8.4826,8.4826,8.5175,8.5408,8.5408,8.5408,8.5408,8.5408,8.5408,8.5059,8.4245,8.4148,8.4148,8.4148,8.4148,8.4148,8.4148,8.4148,8.4148,8.4148,8.4148,8.4148,6.8521,6.9607,7.0961,7.5467,7.6386,7.7389,8.2179,8.3377,8.3941,8.5755,8.6107,8.6159,8.6262,8.934,9.1503,9.0537,9.1714,9.2699,9.2699,9.2699,9.2699,9.2699,9.2699,9.2544,9.2172,9.2332,9.1887,9.0579,9.1234,9.1245,9.0211,9.1536,9.2559,9.3085,9.3939,9.4662,9.5284,9.5284,9.5678,9.6533,9.6533,9.6533,9.6599,9.8046,9.8672,9.8835,10.0184,10.0873,10.0973,10.2517,10.3109,10.3175,10.3767,10.3866,10.3734,10.347,10.3171,10.2768,10.2361,10.2186,10.1672,9.9943,9.8894,9.7863,9.5237,9.4015,9.33,9.2197,9.1613,9.0757,8.9012,8.7908,8.7017,8.5698,8.5408,8.5175,8.4323,8.4148,8.4148,8.4148,8.4148,8.4148,8.4148,8.4148,8.4148,8.4148,8.4148,8.4148,8.4148,8.4148,8.4148,8.4148,8.4148,8.4148,8.4148,8.4148,8.4148,8.4148,8.4148,8.4148,8.4148,8.4148,8.4148,8.4148,8.4148,8.4148,8.4148,8.4148,8.4148,8.4148,8.4148,8.4148,7.1327,7.1324,7.1351,7.5332,7.4459,7.3872,7.8315,7.5664,7.3489,7.775,7.858,7.9464,8.2232,8.6524,8.9904,9.0447,9.1593,9.2509,9.2699,9.2649,9.2649,9.2699,9.2699,9.2658,9.2514,9.1741,9.0745,8.9464,9.0,8.9858,8.8764,9.0023,9.1404,9.2756,9.2887,9.361,9.5087,9.5087,9.5087,9.5087,9.5218,9.5284,9.5284,9.6599,9.7221,9.7353,9.8738,9.9395,9.9461,10.0939,10.1531,10.1662,10.3241,10.357,10.3306,10.3437,10.3204,10.2802,10.2429,10.2258,10.1949,10.0015,9.8238,9.6659,9.4959,9.3323,9.1955,9.1887,9.0757,8.9187,8.6745,8.6047,8.564,8.4439,8.4148,8.4148,8.4148,8.4148,8.4148,8.4148,8.4148,8.4148,8.4148,8.4148,8.4148,8.4148,8.409,8.4071,8.4071,8.3954,8.3858,8.3858,8.3858,8.3954,8.4071,8.4071,8.3974,8.3954,8.3858,8.3858,8.3858,8.4012,8.4071,8.4071,8.409,8.409,8.4071,8.409,8.409,8.4071,8.409,8.4148,6.7509,6.9137,7.0882,7.3043,7.6785,8.0128,8.0883,7.7421,7.3977,7.3795,7.3763,7.4328,7.6163,8.0188,8.5238,9.1221,9.0685,9.0358,9.2458,9.1855,9.1633,9.2579,9.2699,9.2088,9.0517,9.1568,9.0994,8.766,8.8862,8.9014,8.7267,8.8577,8.9497,8.9798,9.0878,9.2193,9.361,9.361,9.361,9.361,9.4758,9.5284,9.5284,9.5613,9.5744,9.581,9.7257,9.7848,9.798,9.9427,10.0053,10.0184,10.1662,10.2124,10.2191,10.3373,10.3635,10.3204,10.2836,10.2497,10.1949,10.0015,9.9042,9.82,9.5316,9.3501,9.2086,9.0821,8.878,8.6861,8.628,8.5408,8.4497,8.4206,8.4148,8.4148,8.4148,8.4148,8.4148,8.4148,8.4148,8.4148,8.4148,8.4148,8.4148,8.4148,8.3411,8.2809,8.2809,8.1936,8.1317,8.1317,8.1317,8.1762,8.2751,8.2809,8.2402,8.1412,8.1317,8.1317,8.1317,8.2285,8.2809,8.2809,8.3664,8.3722,8.2809,8.3722,8.3664,8.2867,8.3722,8.4148,6.8626,7.1742,7.3843,7.1025,7.3133,7.5456,7.3893,7.0838,6.8067,6.7145,6.6919,6.8533,7.3568,7.5311,7.897,8.8234,8.913,8.94,9.161,9.1901,9.2153,9.2882,9.2923,9.2473,9.135,9.1676,9.088,8.8264,8.8576,8.8248,8.674,8.742,8.8182,8.884,8.9563,9.0681,9.2128,9.1441,9.1441,9.2128,9.3545,9.4268,9.4268,9.4955,9.5284,9.5284,9.6073,9.6402,9.6533,9.798,9.8572,9.8703,10.0118,10.0644,10.0808,10.163,10.2191,10.2554,10.2059,10.1725,10.1053,9.8146,9.7192,9.6595,9.3402,9.1941,9.103,8.9531,8.721,8.5233,8.5233,8.471,8.4148,8.4148,8.4148,8.4148,8.4148,8.4148,8.4148,8.4148,8.3722,8.3353,8.3353,8.2888,8.248,8.248,8.1936,8.1566,8.1566,8.0889,8.0481,8.0481,8.0481,8.0772,8.1471,8.1566,8.1238,8.054,8.0481,8.0481,8.0481,8.1121,8.1566,8.1566,8.2131,8.2131,8.1566,8.2131,8.2131,8.1566,8.219,8.248,7.0922,7.4862,7.6802,7.0221,6.861,6.7989,6.5681,6.2785,6.0613,6.0601,6.0386,6.2679,7.0988,7.0929,7.2771,8.2335,8.5969,8.8271,9.0344,9.1819,9.285,9.3237,9.3202,9.3094,9.2903,9.2046,9.0903,8.9512,8.8708,8.7786,8.6779,8.6724,8.7223,8.8445,8.8511,8.9103,9.0315,8.9366,8.9431,9.0644,9.2128,9.2887,9.315,9.4334,9.5021,9.5284,9.5284,9.5284,9.535,9.6533,9.7059,9.7191,9.8638,9.9198,9.9198,9.9461,10.0316,10.1206,10.0461,9.9967,9.9064,9.5369,9.4065,9.3496,9.0571,8.9536,8.9129,8.7832,8.5873,8.4148,8.4148,8.4148,8.4148,8.4148,8.4148,8.4148,8.4148,8.4071,8.3896,8.3896,8.2984,8.2148,8.2148,8.118,8.0481,8.0481,8.0307,8.019,8.019,8.0016,7.9899,7.9899,7.9899,7.9958,8.019,8.019,8.0074,7.9899,7.9899,7.9899,7.9899,7.9899,7.9958,8.019,8.0365,8.0365,8.019,8.0365,8.0365,8.019,8.0365,8.0481,6.871,7.1479,7.418,7.395,7.1916,7.0168,7.0632,6.4985,5.9636,5.955,5.8097,5.8178,6.2194,6.5697,6.9103,7.2434,7.8478,8.4162,8.8412,8.9378,9.0589,9.3044,9.3269,9.2902,9.2025,9.2485,9.1633,8.8831,8.9077,8.8601,8.6767,8.6724,8.679,8.7026,8.7026,8.7092,8.7355,8.8314,8.8971,8.9168,9.0615,9.193,9.315,9.3347,9.4071,9.5284,9.5284,9.5284,9.5284,9.5481,9.5613,9.5744,9.7125,9.7717,9.7848,9.9067,9.9658,9.9698,9.8345,9.6648,9.4733,9.2421,9.1499,9.0846,8.89,8.7599,8.6454,8.5117,8.4439,8.4148,8.4148,8.4148,8.4148,8.4148,8.4148,8.4148,8.4148,8.3411,8.2693,8.2693,8.1645,8.0772,8.0772,8.0598,8.0481,8.0481,7.955,7.8816,7.8816,7.7885,7.7152,7.7152,7.7152,7.7653,7.87,7.8816,7.8351,7.721,7.7152,7.7152,7.7152,7.7152,7.7675,7.8816,7.9899,7.9958,7.8816,7.9958,7.9899,7.8874,7.9958,8.0481,6.8357,6.9453,7.0806,7.1349,7.0252,6.8924,6.8529,6.5354,6.2084,6.0891,5.919,5.9069,6.2752,6.3778,6.6056,7.2108,7.6637,8.108,8.5774,8.8015,8.9599,9.0932,9.1815,9.2032,9.1571,9.1612,9.1014,8.9584,8.8725,8.7827,8.6929,8.6806,8.6724,8.6724,8.6724,8.6724,8.6724,8.7355,8.7684,8.7656,8.9103,9.0155,9.0784,9.1601,9.2785,9.4071,9.4071,9.4531,9.5284,9.5284,9.5284,9.535,9.5941,9.6205,9.6336,9.6963,9.7717,9.8188,9.6725,9.5311,9.3707,9.0649,8.9545,8.9087,8.7474,8.6105,8.4943,8.4323,8.4148,8.4148,8.4148,8.4148,8.4148,8.4148,8.4148,8.4012,8.3353,8.2809,8.2207,8.1508,8.0307,7.9398,7.9398,7.8816,7.8351,7.8351,7.7885,7.7443,7.7443,7.6977,7.657,7.657,7.657,7.6803,7.7443,7.7443,7.721,7.6629,7.657,7.657,7.657,7.657,7.6861,7.7443,7.806,7.806,7.7443,7.806,7.806,7.7536,7.8118,7.8351,6.9362,0.0,7.0847,7.1219,7.0539,6.9392,0.0,6.6751,6.5067,6.3091,6.0965,6.0534,6.4134,6.2746,6.3516,7.1195,7.442,7.7432,8.1786,8.5354,8.7977,8.9119,9.0187,9.0879,9.0879,9.0199,8.9778,8.9897,8.8129,8.7012,8.7091,8.6875,8.6779,8.6724,8.6724,8.6724,8.6724,8.6724,8.6724,8.6724,8.7815,8.8511,8.8905,8.9957,9.1273,9.2624,9.2624,9.3413,9.4728,9.4728,9.4955,9.5284,9.5284,9.5284,9.5284,9.5284,9.5941,9.6679,9.5204,9.4202,9.2972,8.9472,8.8077,8.7359,8.607,8.5001,8.4148,8.4148,8.4148,8.4148,8.4148,8.4148,8.4148,8.4148,8.3954,8.3527,8.2614,8.1915,8.118,8.019,7.8932,7.806,7.806,7.721,7.657,7.657,7.657,7.657,7.657,7.657,7.657,7.657,7.657,7.657,7.657,7.6047,7.5815,7.6105,7.6105,7.628,7.657,7.657,7.657,7.657,7.657,7.657,7.657,7.657,7.657,7.657,7.657,7.657,0.0,7.5229,7.7977,7.9471,7.7522,7.5202,7.5128,7.1257,0.0,6.5554,6.2187,6.0002,6.1766,6.1505,6.1732,6.3847,6.807,7.2208,7.5419,7.9843,8.4338,8.8691,8.9315,8.9386,8.9386,8.8464,8.8015,8.851,8.742,8.6812,8.7078,8.7064,8.6929,8.6724,8.6724,8.6724,8.6724,8.6724,8.6724,8.6724,8.679,8.7552,8.884,8.8971,8.976,9.1141,9.1141,9.193,9.3282,9.3282,9.4005,9.5284,9.5284,9.5284,9.5284,9.5284,9.535,9.5169,9.3715,9.2373,9.0882,8.8915,8.6848,8.5053,8.4516,8.4206,8.4148,8.4148,8.4148,8.4148,8.4148,8.4148,8.4148,8.4148,8.3353,8.2498,8.2439,8.054,7.8758,7.87,7.7653,7.6745,7.6745,7.6629,7.657,7.657,7.657,7.657,7.657,7.657,7.657,7.657,7.657,7.657,7.657,7.4361,7.3523,7.4686,7.4778,7.5326,7.6512,7.657,7.657,7.657,7.657,7.657,7.657,7.657,7.657,7.657,7.657,7.657,7.4272,7.6566,7.8199,7.7763,7.6723,7.5303,7.3224,7.0393,6.7426,6.451,6.1983,6.0254,6.0261,6.0065,6.1338,6.5586,6.9497,7.3436,7.7544,8.1341,8.3998,8.4766,8.655,8.7746,8.7746,8.7241,8.7029,8.7205,8.5598,8.513,8.6158,8.586,8.5596,8.549,8.549,8.5871,8.6724,8.6724,8.6724,8.6724,8.6724,8.696,8.7486,8.7486,8.8248,8.9629,8.9629,9.0484,0.0,9.1799,9.2624,9.3939,9.3939,9.4465,9.5284,9.5284,9.5284,9.4917,9.2601,9.1263,9.0186,8.7748,8.6196,8.5202,8.4783,8.4668,8.4591,8.4264,8.4148,8.4148,8.4148,8.4148,8.4148,8.4148,8.3295,8.2207,8.1391,7.9783,7.8292,7.7443,7.6919,7.657,7.657,7.657,7.657,7.657,7.5873,7.5384,7.5384,7.4652,7.4129,7.4129,7.4129,7.4129,7.4129,7.3256,7.2941,7.3406,7.3465,7.3639,7.4129,7.4977,7.5384,7.5384,7.6164,7.657,7.657,7.657,7.657,7.657,7.657,7.657,7.612,7.8199,7.9685,7.909,7.8496,7.716,7.3372,7.1219,6.8703,6.4137,6.1815,6.0436,5.9865,5.9516,6.0918,6.5901,6.9821,7.3793,7.8472,8.1841,8.3641,8.3054,8.4838,8.6122,8.6122,8.5483,8.5252,8.5716,8.3966,8.3444,8.4905,8.4592,8.4295,8.4295,8.4284,8.4565,8.5357,8.5449,8.5593,8.5973,8.5973,8.6236,8.6724,8.6724,8.7223,8.8182,8.8182,8.8971,9.0286,9.0286,9.1141,9.2493,9.2953,9.3742,9.4597,9.5087,9.4947,9.4302,9.2343,9.0862,8.9568,8.764,8.6419,8.5656,8.524,8.5126,8.4974,8.4341,8.4148,8.4148,8.4148,8.4148,8.4071,8.3664,8.2693,8.1412,8.0132,7.8816,7.7653,7.6745,7.657,7.657,7.657,7.657,7.657,7.657,7.55,7.4662,7.4662,7.3523,7.2675,7.2675,7.2675,7.2418,7.1603,7.1545,7.172,7.2127,7.2185,7.2301,7.2708,7.3581,7.4046,7.4046,7.4884,7.5582,7.5931,7.5931,7.6164,7.657,7.657,7.657,7.7902,8.0724,8.3556,8.5096,8.4289,8.1848,7.6871,7.4421,7.1375,6.4899,6.2,6.0602,6.0594,5.9859,6.0318,6.3481,6.7671,7.2223,7.6933,8.0271,8.284,8.4355,8.4569,8.4569,8.4569,8.3045,8.2616,8.406,8.2563,8.2123,8.3303,8.3345,8.3345,8.3345,8.3139,8.2863,8.265,8.2624,8.3221,8.4341,8.4341,8.5157,8.6658,8.6658,8.6697,8.6724,8.6724,8.7486,8.884,8.884,8.9629,9.1075,9.2493,9.3055,9.3252,9.4662,9.4333,9.3113,9.3113,9.1196,8.8827,8.8827,8.7604,8.6069,8.5656,8.5543,8.5354,8.4418,8.4148,8.4148,8.4148,8.4148,8.3896,8.2693,8.145,8.0132,7.8816,7.7501,7.657,7.657,7.657,7.657,7.657,7.657,7.657,7.657,7.5442,7.4604,7.4604,7.3465,7.265,7.265,7.265,7.1661,6.9218,6.9044,6.9567,7.0879,7.0938,7.1429,7.265,7.2708,7.2708,7.2708,7.2675,7.3348,7.4662,7.4662,7.5268,7.657,7.657,7.657,7.7902,8.0724,8.3036,8.2293,8.1773,7.9842,7.3744,7.107,6.8033,6.1497,5.9652,5.9084,5.8602,5.9158,6.0872,6.4614,6.8235,7.2223,7.6933,8.0271,8.2412,8.284,8.3927,8.4569,8.4569,8.4106,8.3515,8.2745,8.1586,8.1321,8.2147,8.1229,8.1,8.1877,8.1804,8.2141,8.2863,8.2863,8.2975,8.3155,8.3155,8.3802,8.5065,8.5065,8.5617,8.6724,8.6724,8.6894,8.7355,8.7355,8.821,8.9497,8.9957,9.0692,9.1671,9.206,9.1992,9.1428,9.0458,8.9595,8.8651,8.764,8.6972,8.6419,8.6069,8.5769,8.5429,8.4859,8.4476,8.4148,8.4148,8.4148,8.3896,8.2693,8.145,8.0132,7.8816,7.7501,7.657,7.657,7.657,7.657,7.657,7.5849,7.521,7.521,7.3406,7.2043,7.2043,7.0905,7.0091,7.0091,7.0091,6.98,6.907,6.9044,6.916,6.9567,6.9567,6.9742,7.0059,7.0963,7.1487,7.1487,7.2301,7.2883,7.329,7.329,7.3465,7.3838,7.3838,7.3838,7.6977,7.9348,8.129,8.0928,8.0853,7.9059,7.2548,7.0161,6.7411,6.0174,5.8682,5.8571,5.8106,5.9054,6.1291,6.5514,6.8662,7.228,7.6861,8.0271,8.2198,8.2198,8.3641,8.4569,8.4569,8.4569,8.3878,8.218,8.0907,8.0398,8.0767,7.9962,7.9825,8.0508,8.0575,8.0834,8.1434,8.1434,8.1619,8.1942,8.1942,8.2517,8.3644,8.3644,8.4448,8.5749,8.5749,8.6105,8.6724,8.6724,8.7223,8.8023,8.8042,8.855,8.9381,8.9401,8.9402,8.9234,8.8376,8.801,8.7856,8.6972,8.6318,8.5946,8.6077,8.5994,8.5656,8.5088,8.4706,8.4438,8.4225,8.3838,8.3062,8.1296,8.0307,7.9376,7.806,7.7152,7.657,7.657,7.657,7.657,7.657,7.55,7.4662,7.4662,7.2567,7.0938,7.0938,6.98,6.9044,6.9044,6.9044,6.9044,6.9044,6.9044,6.9044,6.9044,6.9044,6.9044,6.9044,6.9742,7.0149,7.0149,7.0905,7.1487,7.201,7.201,7.2243,7.2675,7.214,7.187,7.5356,7.6988,7.8693,8.0425,8.0946,7.929,7.2446,7.0933,6.8603,6.0425,5.8702,5.8695,5.8668,5.9677,6.189,6.619,6.9299,7.2693,7.6963,8.0144,8.2071,8.2198,8.3498,8.4426,8.4569,8.4569,8.3914,8.2298,8.0628,7.9676,7.9492,7.9492,7.9492,7.9492,7.9492,7.9354,7.9188,7.9188,7.9714,8.0689,8.0689,8.1338,8.2477,8.2477,8.3115,8.4236,8.4236,8.5026,8.65,8.65,8.6565,8.6719,8.6654,8.6679,8.6698,8.6683,8.6618,8.654,8.654,8.6424,8.6378,8.6498,8.56,8.4726,8.5518,8.5883,8.5816,8.5026,8.4877,8.4821,8.4302,8.3295,8.1799,7.9456,7.87,7.8176,7.6861,7.657,7.657,7.657,7.657,7.657,7.6454,7.5326,7.4429,7.4313,7.2276,7.0763,7.0763,6.9742,6.9044,6.9044,6.9044,6.9044,6.9044,6.9044,6.9044,6.9044,6.9044,6.9044,6.9044,6.9044,6.9044,6.9044,6.9044,6.9504,7.0569,7.0569,7.0993,7.1927,7.062,7.0036,7.3708,7.5348,7.6988,7.8627,8.0043,7.9008,7.1003,7.0183,6.8775,6.0559,5.8839,5.8775,5.8475,6.137,6.451,6.638,7.1149,7.527,7.74,7.9316,8.0985,8.2071,8.2483,8.3196,8.4426,8.4569,8.4123,8.319,8.2101,8.0885,7.9561,7.9492,7.9492,7.9492,7.9492,7.9446,7.94,7.94,7.9462,7.9447,7.9447,8.0103,8.123,8.123,8.1876,8.3009,8.3009,8.367,8.4867,8.4867,8.5552,8.6588,8.5488,8.5123,8.5074,8.4059,8.3723,8.3664,8.3664,8.3693,8.3828,8.4822,8.4283,8.329,8.3422,8.4042,8.4488,8.4008,8.44,8.4821,8.4302,8.3295,8.2265,8.1741,8.0016,7.8176,7.6861,7.657,7.657,7.657,7.657,7.628,7.521,7.3988,7.2825,7.1869,7.044,6.9393,6.9393,6.916,6.9044,6.9044,6.9044,6.9044,6.9044,6.9044,6.9044,6.9044,6.9044,6.9044,6.9044,6.9044,6.9044,6.9044,6.9044,6.8504,6.7609,6.7609,6.713,6.6282,6.5942,6.5806,7.3345,7.4951,7.6601,7.8236,7.9289,7.8385,7.2443,7.1689,7.0197,6.2779,6.1207,6.0715,5.8925,6.2077,6.5433,6.6753,7.1267,7.5067,7.6561,7.8051,7.928,8.004,8.0739,8.1795,8.3284,8.302,8.2781,8.2781,8.1921,8.0821,7.9561,7.9492,7.9492,7.9492,7.9492,7.9492,7.9492,7.9492,7.94,7.9328,7.9328,7.9589,8.0061,8.0061,8.0689,8.1768,8.1643,8.2309,8.3552,8.3451,8.3896,8.4538,8.3181,8.2725,8.2597,8.1302,8.1272,8.1914,8.1914,8.2273,8.2811,8.2906,8.2392,8.1973,8.2632,8.3148,8.3434,8.2796,8.2998,8.323,8.2573,8.1492,8.054,8.054,7.9049,7.7384,7.6745,7.657,7.657,7.657,7.657,7.6164,7.4895,7.3581,7.2301,7.1112,6.9858,6.9044,6.9044,6.9044,6.9044,6.9044,6.9044,6.9044,6.9044,6.9044,6.9044,6.9044,6.9044,6.9044,6.9044,6.9044,6.8669,6.7883,6.7883,6.7114,6.564,6.564,6.5271,6.4493,6.3843,6.3498,7.2984,7.4479,7.5907,7.7477,7.7859,7.7014,7.3659,7.289,7.1165,6.507,6.3788,6.2961,6.0263,6.3151,6.6469,6.79,7.1682,7.4788,7.5858,7.7136,7.7954,7.7776,7.8907,8.0277,8.1691,8.1379,8.1256,8.1635,8.0811,7.9962,7.9113,7.9358,7.9492,7.9492,7.9492,7.9492,7.9492,7.9492,7.9492,7.9492,7.9492,7.9354,7.9145,7.9145,7.9647,8.0581,8.0295,8.0941,8.2192,8.1878,8.1852,8.1985,8.0766,8.0318,8.022,7.9089,7.9486,8.0478,8.0478,8.1196,8.1879,8.0837,8.0478,8.0717,8.1759,8.2273,8.2311,8.1543,8.1505,8.1466,8.0738,7.9587,7.8525,7.8525,7.7536,7.657,7.657,7.657,7.657,7.657,7.657,7.6105,7.457,7.3406,7.2243,7.0789,6.9684,6.9044,6.9044,6.9044,6.9044,6.9044,6.9044,6.9044,6.9044,6.9044,6.9044,6.9044,6.9044,6.8859,6.8637,6.8637,6.785,6.6336,6.6303,6.5606,6.4152,6.4152,6.4015,6.374,6.2557,6.2045,7.0875,7.1854,7.2378,7.4105,7.4479,7.3656,7.0345,6.9591,6.8545,6.4732,6.391,6.3761,6.3387,6.6604,6.9891,7.154,7.5219,7.7837,7.7812,7.7999,7.81,7.7954,7.8083,7.8813,8.0221,8.1509,8.1629,8.0146,7.9171,7.829,7.7502,7.8732,7.9492,7.9492,7.9492,7.9492,7.9492,7.9492,7.9492,7.9492,7.9492,7.9469,7.9423,7.9423,7.9418,7.9338,7.9034,7.9681,8.0659,7.939,7.9644,8.0593,7.9427,7.8999,7.8964,7.8789,7.8855,7.9008,7.9008,7.9127,7.9213,7.9034,7.9008,7.9068,7.9247,8.0144,8.0972,8.0436,8.0915,8.1502,8.1126,7.9768,7.8525,7.8525,7.7536,7.657,7.657,7.657,7.657,7.657,7.657,7.5815,7.3406,7.2825,7.1952,6.9626,6.916,6.9044,6.9044,6.9044,6.9044,6.9044,6.9044,6.9044,6.9044,6.9044,6.9044,6.9044,6.9044,6.8388,6.7081,6.6959,6.6303,6.4833,6.4833,6.4118,6.2697,6.2697,6.2045,6.0825,6.0644,6.0535,6.9378,7.0651,7.178,7.3432,7.388,7.3506,7.2079,7.1705,7.0808,6.7443,6.7518,6.7465,6.5333,6.7762,7.0542,7.1937,7.4223,7.6029,7.6813,7.6943,7.6888,7.6733,7.6719,7.7265,7.8677,7.89,7.8882,7.8568,7.796,7.7451,7.7167,7.7793,7.8598,7.9492,7.9492,7.9492,7.9492,7.9492,7.9492,7.9492,7.9492,7.9492,7.9492,7.9492,7.9191,7.8673,7.8839,7.8692,7.8242,7.7676,7.7562,7.764,7.688,7.6556,7.6643,7.7384,7.7632,7.7752,7.8436,7.8735,7.8735,7.8735,7.8735,7.8735,7.8735,7.9187,7.9564,7.8922,7.9119,7.9345,7.8685,7.7992,7.7443,7.7443,7.6977,7.657,7.657,7.657,7.657,7.657,7.657,7.5757,7.314,7.2675,7.1861,6.9393,6.9044,6.8701,6.7818,6.8452,6.9044,6.9044,6.9044,6.9044,6.9044,6.8229,6.7722,6.7722,6.6918,6.6194,6.5506,6.5472,6.4833,6.3359,6.3325,6.2645,6.1206,6.1206,6.0846,6.0244,6.0244,6.0244,6.7962,6.9237,7.0509,7.2228,7.2609,7.2609,7.2609,7.2609,7.1929,6.953,6.9904,6.9889,6.6927,6.8497,7.0522,7.1704,7.2939,7.425,7.5753,7.597,7.6002,7.5879,7.5865,7.6258,7.7134,7.6868,7.6564,7.6414,7.6475,7.6473,7.6268,7.6584,7.7413,7.8866,7.8866,7.9067,7.9492,7.9492,7.9492,7.9492,7.9492,7.9492,7.9492,7.9492,7.9075,7.8337,7.8673,7.7931,7.6591,7.6282,7.5756,7.5121,7.4709,7.4501,7.4494,7.5778,7.6496,7.6915,7.7898,7.8197,7.8257,7.8615,7.8735,7.8735,7.8735,7.8735,7.8634,7.8126,7.7912,7.7637,7.7025,7.6711,7.657,7.657,7.657,7.657,7.657,7.6289,7.6113,7.65,7.5878,7.4855,7.3398,7.2238,7.0739,6.8219,6.8165,6.785,6.6336,6.7048,6.7754,6.7875,6.8197,6.8261,6.7908,6.7146,6.6534,6.6171,6.5137,6.4357,6.4015,6.398,6.329,6.1868,6.1868,6.1349,6.0244,6.0244,6.0244,6.0244,6.0244,6.0244,6.6178,6.6708,6.7157,6.8864,6.9231,6.9231,6.9231,6.9231,6.9231,6.9081,6.9081,6.8918,6.8377,6.9336,7.0542,7.1698,7.2903,7.425,7.5753,7.597,7.6042,7.6029,7.5957,7.5961,7.5926,7.6786,7.6195,7.3532,7.4533,7.4804,7.3744,7.4946,7.6172,7.7256,7.7301,7.7994,7.9469,7.9492,7.9492,7.9492,7.9492,7.9492,7.9492,7.9492,7.9075,7.8289,7.8095,7.7438,7.65,7.5167,7.4237,7.3808,7.3856,7.3494,7.3178,7.4494,7.5718,7.6795,7.6855,7.6855,7.7094,7.835,7.8735,7.8735,7.8735,7.8735,7.8735,7.8701,7.8228,7.774,7.7706,7.7187,7.657,7.657,7.657,7.657,7.657,7.5379,7.4804,7.6289,7.4073,7.2468,7.3944,7.0987,6.7614,6.5149,6.5906,6.627,6.4833,6.4371,6.4371,6.4697,6.5972,6.6237,6.4867,6.5939,6.6105,6.4731,6.4561,6.3912,6.2557,6.2487,6.1833,6.039,6.0353,6.0317,6.0244,6.0244,6.0244,6.0244,6.0244,6.0244,6.606,6.649,6.7157,6.9836,6.9754,6.9006,6.9006,6.9006,6.9006,6.9006,6.9608,7.0036,6.965,6.9656,7.0189,7.1343,7.104,7.1217,7.2806,7.3022,7.3383,7.4395,7.4212,7.4323,7.5226,7.5471,7.4989,7.3324,7.3367,7.359,7.383,7.407,7.4858,7.6105,7.5912,7.6049,7.6653,7.7525,7.7994,7.7994,7.8491,7.8482,7.7866,7.7866,7.7488,7.6771,7.7162,7.6603,7.5328,7.4851,7.4277,7.3622,7.2909,7.2438,7.2349,7.3273,7.3896,7.4283,7.4283,7.4821,7.5718,7.7034,7.7513,7.7632,7.8436,7.8735,7.8668,7.8228,7.7887,7.7637,7.7094,7.6077,7.5307,7.636,7.4999,7.3744,7.4876,7.3801,7.2821,7.3377,7.2542,7.1943,7.2505,7.0208,6.7402,6.4909,6.3774,6.3012,6.2452,6.3098,6.3597,6.3789,6.4268,6.4439,6.4186,6.3809,6.3463,6.3186,6.2293,6.1564,6.1026,6.1026,6.0789,6.0244,6.0244,6.0244,6.0244,6.0244,6.0244,6.0244,6.0244,6.0244,6.4988,6.5661,6.7007,6.9169,6.9387,6.9006,6.9006,6.9006,6.9006,6.9006,6.952,6.9857,6.945,6.908,6.9012,6.9641,6.8833,6.8689,7.035,7.0566,7.1144,7.2733,7.3047,7.3478,7.4223,7.3237,7.2499,7.2437,7.2121,7.2414,7.3442,7.3287,7.3669,7.4853,7.4647,7.4703,7.5043,7.5982,7.6429,7.6429,7.6771,7.6795,7.6653,7.6902,7.6539,7.5797,7.6397,7.5849,7.4659,7.4724,7.4368,7.3559,7.2592,7.2098,7.1953,7.2166,7.222,7.228,7.2759,7.3477,7.4403,7.5718,7.6137,7.6316,7.7154,7.7719,7.8011,7.7541,7.7591,7.7637,7.7094,7.5593,7.4514,7.5522,7.3708,7.2056,7.3155,7.2148,7.1109,7.1641,7.0842,7.0266,7.0842,6.8414,6.5904,6.4273,6.198,6.0396,6.0193,6.1031,6.1764,6.1905,6.2364,6.2539,6.2311,6.1993,6.1726,6.1476,6.0665,6.0244,6.0244,6.0244,6.0244,6.0244,6.0244,6.0244,6.0244,6.0244,6.0244,6.0244,6.0244,6.0244,6.3106,6.4084,6.6415,6.6559,6.7749,6.8932,6.8918,6.8918,6.8918,6.898,6.8671,6.8267,6.791,6.751,6.7064,6.6531,6.6449,6.7027,6.8701,6.8905,6.9483,7.1059,7.2563,7.3317,7.2779,7.0137,6.9089,7.0546,7.0685,7.1221,7.2364,7.2446,7.2757,7.3447,7.3386,7.3901,7.4909,7.4976,7.4954,7.4911,7.4269,7.4609,7.5925,7.6489,7.6397,7.5744,7.5744,7.5292,7.4659,7.4659,7.4265,7.3644,7.2991,7.2417,7.1862,7.1205,7.0994,7.1114,7.24,7.2819,7.3058,7.4374,7.4761,7.4761,7.4821,7.5718,7.6735,7.6735,7.7159,7.7647,7.7613,7.5878,7.4113,7.4186,7.2858,7.1603,7.1679,7.042,6.9777,7.13,6.9034,6.7428,6.9047,6.5857,6.2993,6.2993,6.0691,5.8772,5.7999,5.8261,5.8623,5.9031,6.0339,6.0541,5.9216,6.0686,6.1118,5.9745,6.0039,6.0207,6.0244,6.0244,6.0244,6.0244,6.0244,6.0244,6.0244,6.0244,6.0244,6.0244,6.0244,6.0244,6.6676,6.5873,6.5206,6.7667,6.7749,6.7098,6.6809,6.6758,6.7062,6.7995,6.7865,6.755,6.744,6.7042,6.6685,6.6473,6.6449,6.6654,6.71,6.7172,6.7641,6.8936,6.9106,6.9018,6.8555,6.8795,6.9014,6.9037,6.9072,6.9732,7.1152,7.0686,7.1164,7.2727,7.2215,7.177,7.1506,7.2575,7.2697,7.1937,7.2239,7.2592,7.2931,7.2469,7.2719,7.3406,7.3406,7.3904,7.4659,7.4659,7.4576,7.4292,7.3644,7.302,7.2388,7.1325,7.0994,7.0994,7.1323,7.1502,7.1682,7.2998,7.3417,7.3597,7.4522,7.506,7.5327,7.501,7.4711,7.4471,7.4135,7.245,7.1011,7.2131,7.0266,6.8522,6.9777,6.8719,6.7698,6.8137,6.7457,6.6944,6.7106,6.5456,6.3701,6.2301,5.9905,5.8186,5.7972,5.7999,5.8111,5.8224,5.8635,5.8772,5.866,5.9142,5.9511,5.9672,5.9782,5.9966,6.0207,6.0244,6.0244,6.0244,6.0244,6.0244,6.0244,6.0244,6.0244,6.0244,6.0244,6.0244,6.6087,6.4402,6.2552,6.5168,6.4526,6.3911,6.6371,6.5794,6.5271,6.7394,6.753,6.7234,6.7234,6.6855,6.6449,6.6449,6.6449,6.639,6.6295,6.6415,6.6595,6.6955,6.6536,6.6064,6.5686,6.6509,6.7152,6.751,6.7547,6.8171,6.9713,6.9353,6.9829,7.1483,7.0939,7.0494,7.0133,7.0832,7.0714,6.9772,6.9891,7.0236,7.07,7.0004,7.0441,7.1673,7.1673,7.2492,7.375,7.375,7.4092,7.4576,7.3616,7.3048,7.2588,7.1682,7.1205,7.0994,7.0994,7.0994,7.1084,7.1832,7.2101,7.222,7.2998,7.3313,7.3348,7.3097,7.2533,7.1914,7.1704,7.0152,6.8932,6.9837,6.8392,6.7146,6.8137,6.7538,6.6863,6.6863,6.6863,6.6742,6.6385,6.4784,6.2985,6.112,5.9543,5.8423,5.7984,5.7935,5.7935,5.7935,5.7935,5.7999,5.8224,5.8411,5.8709,5.9155,5.9488,5.9782,6.0039,6.0222,6.0004,5.9547,5.9547,5.9293,5.8871,5.8871,5.8871,5.8871,5.8871,5.8871,6.2407,6.0866,5.9318,6.0493,5.9558,5.9863,0.0,6.4384,6.2976,6.5978,6.6478,6.6441,6.6577,6.6386,6.6293,6.6438,6.6449,6.6307,6.5985,6.6162,6.6076,6.5247,6.4812,6.4403,6.3964,6.3918,6.4527,6.5882,6.6037,6.6645,6.8101,6.8054,6.8542,6.9829,6.9375,6.9269,6.9521,6.9189,6.8653,6.794,6.7364,6.7804,6.9034,6.8436,6.8892,7.01,7.0252,7.0981,7.2051,7.224,7.3058,7.4108,7.3029,7.2454,7.2188,7.1764,7.1204,7.0755,7.0904,7.0994,7.0994,7.0994,7.0994,7.0904,7.0783,7.0912,7.107,7.0878,7.0272,6.9663,6.9593,6.8366,6.7181,6.7181,6.6853,6.6508,6.6508,6.6508,6.6508,6.6508,6.6508,6.6387,6.5901,6.3973,6.1726,5.9759,5.936,5.9008,5.8032,5.7935,5.7935,5.7935,5.7935,5.7935,5.7935,5.8224,5.8486,5.8523,5.9192,5.9561,5.9672,5.9887,5.9511,5.8511,5.8409,5.7886,5.6939,5.6939,5.6939,5.6939,5.6939,5.6769,0.0,0.0,0.0,0.0,0.0,0.0,0.0,5.7003,5.7042,5.8728,6.0106,6.141,6.263,6.3844,6.5005,6.6233,6.6449,6.6307,6.5985,6.5926,6.5552,6.4358,6.4418,6.4403,6.3964,6.3918,6.4056,6.4403,6.4388,6.5082,6.6645,6.5776,6.6111,6.793,6.6956,6.6119,6.5333,6.5228,6.5173,6.5098,6.502,6.5645,6.6884,6.6737,6.6853,6.7168,6.8326,6.8955,6.927,7.0504,7.1107,7.1369,7.1673,7.0876,6.9551,6.9602,6.9466,6.9557,7.0575,7.0994,7.0994,7.0994,7.0994,7.0783,6.9988,6.9734,6.9471,6.8008,6.7099,6.641,6.5807,6.4967,6.4367,6.4367,6.4289,6.417,6.417,6.417,6.417,6.417,6.417,6.3937,6.3243,6.2696,6.1737,5.9808,5.8764,5.813,5.7935,5.7935,5.7935,5.7935,5.7935,5.7935,5.7935,5.7999,5.8186,5.8523,5.8672,5.9044,5.9635,5.8839,5.8377,5.8511,5.7718,5.7143,5.6939,5.6939,5.6939,5.6939,5.6939,5.5498,0.0,0.0,0.0,0.0,0.0,0.0,0.0,0.0,0.0,0.0,0.0,5.7442,5.9017,0.0,6.2138,6.3549,6.4484,6.4804,6.4216,6.4993,6.4824,6.2816,6.2792,6.3176,6.3864,6.3918,6.3918,6.3918,6.3918,6.4334,6.5082,6.4167,6.4457,6.6252,6.5145,6.4475,6.436,6.4004,6.3747,6.3473,6.3334,6.3642,6.4272,6.4272,6.465,6.5366,6.6059,6.6751,6.7444,6.8892,6.9937,7.0437,6.92,6.8174,6.7338,6.7319,6.7652,6.8064,6.8391,6.9136,6.9947,6.9536,6.9744,6.996,6.8964,6.8241,6.7568,6.627,6.4998,6.3883,6.3136,6.2838,6.2659,6.2659,6.3154,6.3561,6.3561,6.3561,6.3561,6.3561,6.3407,6.3059,6.2486,6.1318,6.003,5.889,5.8228,5.7935,5.7935,5.7935,5.7495,5.6373,5.6275,5.6275,5.6275,5.6275,5.6825,5.8175,5.8411,5.8462,5.8234,5.7867,5.7316,5.6559,5.6072,5.5618,5.5228,5.5228,5.5228,5.5195,5.4691,5.3502,0.0,0.0,0.0,0.0,0.0,0.0,0.0,0.0,0.0,0.0,0.0,0.0,0.0,0.0,0.0,6.034,6.1911,6.2646,6.1901,6.3081,6.3205,6.0927,6.0941,6.1723,6.3146,6.3577,6.3715,6.3715,6.3636,6.3573,6.3573,6.2753,6.2854,6.4126,6.3137,6.2799,6.3411,6.2868,6.2436,6.2111,6.1885,0.0,6.2172,6.2172,6.2824,6.3918,6.3918,6.4524,6.5594,6.6751,6.7999,6.8849,6.5669,6.4612,6.4873,6.4971,6.5503,6.6087,6.5832,6.6725,6.8011,6.7648,6.8053,6.8583,6.78,6.6852,0.0,6.4888,6.3448,6.2027,6.1401,6.1346,6.1505,6.1505,6.224,6.2938,6.2938,6.2938,6.2938,6.2938,6.2595,6.2223,6.1837,5.9898,5.825,5.7668,5.7788,5.7837,5.7593,5.7788,5.7251,5.5446,5.525,5.525,5.525,5.4518,5.5153,5.7739,5.7438,5.6773,5.5872,5.576,5.5031,5.3635,5.345,5.3363,5.3371,5.3436,5.3436,5.3385,5.0336,4.9373,0.0,0.0,0.0,0.0,0.0,0.0,0.0,0.0,0.0,0.0,0.0,0.0,0.0,0.0,0.0,0.0,5.9941,6.0414,5.9872,5.952,5.9191,5.8832,5.9947,6.0836,6.1005,6.2135,6.2955,6.2955,6.2517,6.2191,6.2191,6.1172,0.0,0.0,0.0,5.9486,5.9369,5.9076,5.9391,6.0369,6.0324,6.0953,6.2172,6.2172,6.232,6.2423,6.2423,6.2572,6.2675,6.2824,6.3399,6.3856,6.0481,5.9978,6.1187,6.2212,6.2672,6.2903,6.3993,0.0,0.0,6.5948,6.635,6.6455,6.6448,6.5895,6.4921,6.317,6.2133,6.1401,6.0571,6.0419,6.0447,6.0447,6.0549,6.0651,6.0651,6.0651,6.0651,6.0651,6.032,5.9913,5.9579,5.8634,5.7582,5.6531,5.73,5.7544,5.6531,5.73,5.7837,5.7544,5.7544,0.0,5.7544,5.4065,5.3577,5.7642,5.438,5.2397,5.2635,5.0742,4.9795,4.9971,4.9277,5.0306,5.3129,5.3306,5.3436,5.3201,4.3034,4.0241,0.0,0.0,0.0,0.0,0.0,0.0,0.0,0.0,0.0,0.0,0.0,0.0,0.0,0.0,0.0,0.0,5.6249,5.6475,5.4943,5.5211,5.5873,5.6855,5.7452,5.8263,5.9322,6.0326,6.1008,6.1008,6.125,6.1482,6.1482,6.0574,6.0035,6.0035,5.9266,5.8839,5.8735,5.8463,5.8548,5.9072,5.8986,5.9258,5.9824,5.9824,6.0243,6.0953,6.0953,6.1258,6.1756,6.1297,6.137,6.1452,0.0,0.0,0.0,0.0,5.9453,6.0171,6.1009,6.2049,6.3031,6.32,6.3372,6.3572,6.4198,6.3566,6.259,6.2416,6.192,6.1257,6.0426,6.0244,6.0244,6.0244,6.0244,6.0244,6.0244,6.0244,6.0244,6.0244,5.9732,0.0,5.9105,5.8448,5.7739,5.73,5.7593,5.7739,5.73,5.7642,5.7447,5.6129,5.6031,5.6031,5.6031,5.4323,0.0,0.0,0.0,5.5016,5.4486,5.3001,0.0,0.0,0.0,4.6008,4.7504,4.4212,0.0,0.0,4.016,3.8673,0.0,0.0,0.0,0.0,0.0,0.0,0.0,0.0,0.0,0.0,0.0,0.0,0.0,0.0,0.0,0.0,5.2413,5.3114,5.1418,5.2046,5.3141,5.4267,5.4954,5.5779,5.669,5.7892,5.8574,5.8574,5.9041,5.952,5.9897,5.9274,5.9055,5.9443,5.8899,5.8631,5.8631,5.84,5.8274,5.8274,5.8168,5.8104,5.8104,5.8104,5.8649,5.9507,5.9397,5.9541,5.9947,5.919,5.9052,5.8846,5.5342,5.4712,5.5779,5.5564,5.6251,5.7359,5.8108,5.9279,6.0461,6.0665,6.082,6.1112,6.194,6.1336,6.0534,6.1416,6.1131,6.0558,6.0339,6.0244,6.0244,6.0244,6.0244,6.0244,6.0244,6.0244,6.0244,6.0244,5.9622,5.9068,5.8957,5.8374,5.7788,5.7495,5.7691,5.7788,5.7495,5.7739,5.73,5.569,5.5543,5.5543,5.5543,5.4421,5.4957,5.7739,5.6849,5.6031,5.5751,5.4141,5.2375,5.0483,4.639,4.3837,0.0,0.0,0.0,0.0,0.0,0.0,0.0,0.0,0.0,0.0,0.0,0.0,0.0,0.0,0.0,0.0,0.0,0.0,0.0,0.0,0.0,0.0,0.0,0.0,5.0796,5.0819,5.0819,5.0886,5.3009,5.3927,5.2439,5.4459,5.5895,5.5895,5.5391,5.5593,5.6986,5.6676,5.7091,5.8337,5.8358,5.8358,5.8358,5.8189,5.8104,5.8104,5.8104,5.8104,5.8104,5.8104,5.8167,5.8145,5.7672,5.6995,5.6315,5.575,5.5551,5.5241,5.1829,5.1658,5.3274,5.2546,5.3093,5.4352,5.5469,5.5935,5.6348,5.8608,5.9341,5.9434,5.9986,5.9707,5.9239,5.9675,5.9182,5.8851,5.999,6.0244,6.0244,6.0244,6.0244,6.0244,6.0244,6.0244,6.0244,6.0244,5.9622,5.8957,5.8598,5.8186,5.7544,5.6434,5.7203,0.0,5.6385,5.7251,5.7924,5.7837,5.7837,5.7837,5.7837,5.3968,5.3416,5.7642,5.4051,5.26,5.4616,5.159,4.8937,4.6886,4.6895,4.5252,4.1855,0.0,0.0,0.0,0.0,0.0,0.0,0.0,0.0,0.0,0.0,0.0,0.0,0.0,0.0,0.0,0.0,0.0,0.0,0.0,0.0,0.0,0.0,0.0,0.0,5.0075,5.0737,5.0737,5.1458,5.1244,4.9464,5.144,5.2676,5.2359,5.3485,5.441,5.4853,5.4778,5.4867,5.5371,5.5371,5.5371,5.5371,5.6276,5.6697,5.6697,5.6697,5.7032,5.7568,5.6288,5.5937,5.6268,5.5752,5.5082,5.4302,5.3626,5.1927,4.9638,4.8474,4.8926,5.0096,4.989,5.1042,5.2762,5.2806,5.3626,5.481,5.5945,5.5733,5.5456,5.7605,5.7469,5.6781,5.8155,5.8002,5.7565,5.7956,5.8582,5.9105,5.9105,5.9699,6.0244,6.0244,6.0244,6.0222,5.9929,5.8053,5.5773,5.3611,5.4898,5.5302,5.2478,5.3414,5.4746,5.5569,5.4962,5.4761,5.5658,5.5735,5.6196,5.7347,5.5855,5.5133,5.5709,5.4754,5.3232,5.1071,5.0617,4.972,4.8346,4.843,4.4485,3.6354,0.0,0.0,0.0,0.0,0.0,0.0,0.0,0.0,0.0,0.0,0.0,0.0,0.0,0.0,0.0,0.0,0.0,0.0,0.0,0.0,0.0,0.0,0.0,0.0,0.0,0.0,5.0484,4.9838,0.0,4.6558,4.7571,4.8283,4.796,4.9768,5.1367,5.2355,5.2239,5.26,5.3623,5.3526,5.3445,5.3445,5.434,5.4798,5.4798,5.459,5.4773,5.5298,5.3709,5.3243,5.3657,5.3175,5.2462,5.1628,5.0708,4.8874,4.6558,4.6558,4.6922,4.7395,4.7395,4.8881,5.077,5.0439,5.1891,5.3975,5.4312,5.3311,5.2372,5.4021,5.3359,5.2498,5.4589,5.5168,5.5414,5.6634,5.7464,5.7937,5.7937,5.8531,5.9176,5.9547,5.8917,5.8434,5.8772,5.7144,5.4717,5.1419,5.2291,5.254,4.9927,5.0275,5.169,5.411,5.3268,5.2794,5.3667,5.3582,5.402,5.5264,5.4993,5.4343,5.3394,5.3519,5.239,4.965,4.9674,4.9101,4.7755,4.6566,4.2246,0.0,0.0,0.0,0.0,0.0,0.0,0.0,0.0,0.0,0.0,0.0,0.0,0.0,0.0,0.0,0.0,0.0,0.0,0.0,0.0,0.0,0.0,0.0,0.0,0.0,0.0,0.0,4.9865,4.7929,0.0,0.0,0.0,0.0,4.2907,4.4483,4.6566,4.928,4.9075,5.007,5.2847,5.2586,5.24,5.2441,5.2502,5.2482,5.244,5.1873,5.1574,5.1592,5.0761,5.035,5.0365,4.9991,4.9332,4.8382,4.7097,4.6236,4.5791,4.5659,4.5306,4.4855,4.5014,4.639,4.8263,4.8419,5.0603,5.3364,5.3093,5.182,5.0137,4.917,4.7494,0.0,0.0,5.0605,5.2262,5.5719,5.6634,5.6736,5.6838,5.6888,5.7244,5.8241,5.6597,5.5295,5.6654,5.6509,5.4944,5.107,0.0,4.9132,4.8192,4.7583,4.8391,5.1889,5.203,5.1839,5.1919,5.1559,5.1519,5.1999,5.1635,5.1202,5.0752,5.0265,4.9877,4.975,4.8338,4.6699,4.4736,4.1535,0.0,0.0,0.0,0.0,0.0,0.0,0.0,0.0,0.0,0.0,0.0,0.0,0.0,0.0,0.0,0.0,0.0,0.0,0.0,0.0,0.0,0.0,0.0,0.0,0.0,0.0,4.4896,4.508,4.7502,4.511,4.2434,0.0,0.0,0.0,0.0,0.0,0.0,4.4302,4.434,4.5444,4.808,4.8109,4.8314,4.8736,4.9847,5.0104,4.9642,4.9472,4.9711,5.035,4.8686,4.8239,4.8613,4.8127,4.7649,4.7072,4.3698,4.2292,4.1962,3.9803,3.8968,3.9146,4.0775,4.234,4.3984,4.6021,4.8089,4.9308,4.5929,4.5904,4.6304,4.1498,0.0,0.0,0.0,0.0,4.6642,5.0777,5.2535,5.3616,5.5262,5.6329,5.7041,5.7295,5.6613,5.5021,5.1736,4.9456,4.5881,3.8923,4.0272,0.0,3.814,4.1095,4.4491,4.6762,4.7803,4.8553,4.9169,4.9128,4.9618,5.0994,5.019,4.9203,4.8074,4.7696,4.6451,4.3997,4.2578,4.0959,3.9218,0.0,0.0,0.0,0.0,0.0,0.0,0.0,0.0,0.0,0.0,0.0,0.0,0.0,0.0,0.0,0.0,0.0,0.0,0.0,0.0,0.0,0.0,0.0,0.0,0.0,0.0,0.0,4.2059,4.2851,4.4371,4.1706,3.9275,0.0,0.0,0.0,0.0,0.0,0.0,0.0,0.0,0.0,4.3599,4.3248,4.3253,4.3605,4.5262,4.5889,4.5542,4.6274,4.692,4.7367,4.5966,4.5524,4.5847,4.5574,4.463,4.3169,4.0712,3.9115,3.7985,0.0,0.0,0.0,0.0,3.8099,3.9626,4.1391,4.3268,4.4432,4.1378,0.0,0.0,0.0,0.0,0.0,0.0,0.0,4.4221,4.7803,5.0625,5.2891,5.4161,5.4923,5.5499,5.5837,5.1641,4.7215,4.5365,4.335,4.0041,3.4074,3.4755,0.0,0.0,0.0,4.0252,4.3105,4.5229,4.6595,4.7058,4.689,4.7108,4.7937,4.7203,4.6152,4.491,4.4448,4.3195,4.0679,3.8499,3.623,0.0,0.0,0.0,0.0,0.0,0.0,0.0,0.0,0.0,0.0,0.0,0.0,0.0,0.0,0.0,0.0,0.0,0.0,0.0,0.0,0.0,0.0,0.0,0.0,0.0,0.0,0.0,0.0,0.0,4.1505,4.101,0.0,0.0,0.0,0.0,0.0,0.0,0.0,0.0,0.0,0.0,0.0,0.0,0.0,3.8249,3.8355,3.9881,4.0629,4.0533,4.1979,4.2757,4.2903,4.2344,4.2219,4.2469,4.2023,0.0,3.9155,3.7972,0.0,0.0,0.0,0.0,0.0,0.0,0.0,0.0,0.0,0.0,0.0,0.0,0.0,0.0,0.0,0.0,0.0,0.0,0.0,0.0,0.0,0.0,5.199,5.1724,5.1996,5.2304,5.2135,4.3932,3.6921,3.7999,3.7269,3.5482,0.0,0.0,0.0,0.0,0.0,0.0,4.0236,4.3596,4.5587,4.5429,4.5007,4.4622,4.4275,4.3755,4.2949,4.1929,4.0929,3.9802,3.8404,3.5602,0.0,0.0,0.0,0.0,0.0,0.0,0.0,0.0,0.0,0.0,0.0,0.0,0.0,0.0,0.0,0.0,0.0,0.0,0.0,0.0,0.0,0.0,0.0,0.0,0.0,0.0,0.0,0.0,0.0,0.0,0.0,0.0,0.0,0.0,0.0,0.0,0.0,0.0,0.0,0.0,0.0,0.0,0.0,0.0,0.0,0.0,0.0,0.0,0.0,0.0,3.4979,3.5656,3.6564,3.6498,3.7391,3.8979,3.617,3.7394,4.0885,3.5635,0.0,0.0,0.0,0.0,0.0,0.0,0.0,0.0,0.0,0.0,0.0,0.0,0.0,0.0,0.0,0.0,0.0,0.0,0.0,0.0,0.0,0.0,4.4247,4.2596,4.4359,4.5029,3.9971,0.0,0.0,0.0,0.0,0.0,0.0,0.0,0.0,0.0,0.0,0.0,3.6948,4.212,4.531,4.4165,4.3964,4.3623,4.2947,4.2144,4.1533,4.1385,3.8004,3.567,0.0,0.0,0.0,0.0,0.0,0.0,0.0,0.0,0.0,0.0,0.0,0.0,0.0,0.0,0.0,0.0,0.0,0.0,0.0,0.0,0.0,0.0,0.0,0.0,0.0,0.0,0.0,0.0,0.0,0.0,0.0,0.0,0.0,0.0,0.0,0.0,0.0,0.0,0.0,0.0,0.0,0.0,0.0,0.0,0.0,0.0,0.0,0.0,0.0,0.0,0.0,0.0,0.0,0.0,0.0,0.0,0.0,0.0,3.3418,3.245,0.0,0.0,0.0,0.0,0.0,0.0,0.0,0.0,0.0,0.0,0.0,0.0,0.0,0.0,0.0,0.0,0.0,0.0,0.0,0.0,0.0,0.0,0.0,0.0,0.0,0.0,0.0,0.0,0.0,0.0,0.0,0.0,0.0,0.0,0.0,0.0,0.0,0.0,0.0,0.0,3.4771,4.0281,4.3831,4.3208,4.3129,4.2787,4.1912,4.1457,4.0281,3.8119,3.5692,0.0,0.0,0.0,0.0,0.0,0.0,0.0,0.0,0.0,0.0,0.0,0.0,0.0,0.0,0.0,0.0,0.0,0.0,0.0,0.0,0.0,0.0,0.0,0.0,0.0,0.0,0.0,0.0,0.0,0.0,0.0,0.0,0.0,0.0,0.0,0.0,0.0,0.0,0.0,0.0,0.0,0.0,0.0,0.0,0.0,0.0,0.0,0.0,0.0,0.0,0.0,0.0,0.0,0.0,0.0,0.0,0.0,0.0,0.0,3.0508,2.7822,0.0,0.0,0.0,0.0,0.0,0.0,0.0,0.0,0.0,0.0,0.0,0.0,0.0,0.0,0.0,0.0,0.0,0.0,0.0,0.0,0.0,0.0,0.0,0.0,0.0,0.0,0.0,0.0,0.0,0.0,0.0,0.0,0.0,0.0,0.0,0.0,0.0,0.0,0.0,0.0,3.3859,3.9066,4.2484,4.2294,4.2294,4.1914,4.104,4.0964,3.9257,3.5237,3.3562,0.0,0.0,0.0,0.0,0.0,0.0,0.0,0.0,0.0,0.0,0.0,0.0,0.0,0.0,0.0,0.0,0.0,0.0,0.0,0.0,0.0,0.0,0.0,0.0,0.0,0.0,0.0,0.0,0.0,0.0,0.0,0.0,0.0,0.0,0.0,0.0,0.0,0.0,0.0,0.0,0.0,0.0,0.0,0.0,0.0,0.0,0.0,0.0,0.0,0.0,0.0,0.0,0.0,0.0,0.0,0.0,0.0,0.0,0.0,0.0,0.0,0.0,0.0,0.0,0.0,0.0,0.0,0.0,0.0,0.0,0.0,0.0,0.0,0.0,0.0,0.0,0.0,0.0,0.0,0.0,0.0,0.0,0.0,0.0,0.0,0.0,0.0,0.0,0.0,0.0,0.0,0.0,0.0,0.0,0.0,0.0,0.0,0.0,0.0,0.0,0.0,3.4587,3.937,4.2256,4.1419,4.1304,4.1002,4.0206,4.0167,3.8686,3.5199,0.0,0.0,0.0,0.0,0.0,0.0,0.0,0.0,0.0,0.0,0.0,0.0,0.0,0.0,0.0,0.0,0.0,0.0,0.0,0.0,0.0,0.0,0.0,0.0,0.0,0.0,0.0,0.0,0.0,0.0,0.0,0.0,0.0,0.0,0.0,0.0,0.0,0.0,0.0,0.0,0.0,0.0,0.0,0.0,0.0,0.0,0.0,0.0,0.0,0.0,0.0,0.0,0.0,0.0,0.0,0.0,0.0,0.0,0.0,0.0,0.0,0.0,0.0,0.0,0.0,0.0,0.0,0.0,0.0,0.0,0.0,0.0,0.0,0.0,0.0,0.0,0.0,0.0,0.0,0.0,0.0,0.0,0.0,0.0,0.0,0.0,0.0,0.0,0.0,0.0,0.0,0.0,0.0,0.0,0.0,0.0,0.0,0.0,0.0,0.0,0.0,0.0,3.3941,3.8267,4.089,4.0547,4.0509,4.0396,4.0091,4.0053,3.7735,3.2278,0.0,0.0,0.0,0.0,0.0,0.0,0.0,0.0,0.0,0.0,0.0,0.0,0.0,0.0,0.0,0.0,0.0,0.0,0.0,0.0,0.0,0.0,0.0,0.0,0.0,0.0,0.0,0.0,0.0,0.0,0.0,0.0,0.0,0.0,0.0,0.0,0.0,0.0,0.0,0.0,0.0,0.0,0.0,0.0,0.0,0.0,0.0,0.0,0.0,0.0,0.0,0.0,0.0,0.0,0.0,0.0,0.0,0.0,0.0,0.0,0.0,0.0,0.0,0.0,0.0,0.0,0.0,0.0,0.0,0.0,0.0,0.0,0.0,0.0,0.0,0.0,0.0,0.0,0.0,0.0,0.0,0.0,0.0,0.0,0.0,0.0,0.0,0.0,0.0,0.0,0.0,0.0,0.0,0.0,0.0,0.0,0.0,0.0,0.0,0.0,0.0,0.0,3.3479,3.7431,4.0053,4.0053,3.9788,3.975,4.0015,3.9788,3.6827,3.0344,0.0,0.0,0.0,0.0,0.0,0.0,0.0,0.0,0.0,0.0,0.0,0.0,0.0,0.0,0.0,0.0,0.0,0.0,0.0,0.0,0.0,0.0,0.0,0.0,0.0,0.0,0.0,0.0,0.0,0.0,0.0,0.0,0.0,0.0,0.0,0.0,0.0,0.0,0.0,0.0,0.0,0.0,0.0,0.0,0.0,0.0,0.0,0.0,0.0,0.0,0.0,0.0,0.0,0.0,0.0,0.0,0.0,0.0,0.0,0.0,0.0,0.0,0.0,0.0,0.0,0.0,0.0,0.0,0.0,0.0,0.0,0.0,0.0,0.0,0.0,0.0,0.0,0.0,0.0,0.0,0.0,0.0,0.0,0.0,0.0,0.0,0.0,0.0,0.0,0.0,0.0,0.0,0.0,0.0,0.0,0.0,0.0,0.0,0.0,0.0,0.0,0.0,3.3479,3.7431,4.0053,4.0053,3.9218,3.9067,3.9977,3.9218,3.6185,0.0,0.0,0.0,0.0,0.0,0.0,0.0,0.0,0.0,0.0,0.0,0.0,0.0,0.0,0.0,0.0,0.0,0.0,0.0,0.0,0.0,0.0,0.0,0.0,0.0,0.0,0.0,0.0,0.0,0.0,0.0,0.0,0.0,0.0,0.0,0.0,0.0,0.0,0.0,0.0,0.0,0.0,0.0,0.0,0.0,0.0,0.0,0.0,0.0,0.0,0.0,0.0,0.0,0.0,0.0,0.0,0.0,0.0,0.0,0.0,0.0,0.0,0.0,0.0,0.0,0.0,0.0,0.0,0.0,0.0,0.0,0.0,0.0,0.0,0.0,0.0,0.0,0.0,0.0,0.0,0.0,0.0,0.0,0.0,0.0,0.0,0.0,0.0,0.0,0.0,0.0,0.0,0.0,0.0,0.0,0.0,0.0,0.0,0.0,0.0,0.0,0.0,0.0,3.3289,3.5422,3.7244,3.8915,3.8383,3.8231,3.9029,3.8877,3.6447,3.1199,0.0,0.0,0.0,0.0,0.0,0.0,0.0,0.0,0.0,0.0,0.0,0.0,0.0,0.0,0.0,0.0,0.0,0.0,0.0,0.0,0.0,0.0,0.0,0.0,0.0,0.0,0.0,0.0,0.0,0.0,0.0,0.0,0.0,0.0,0.0,0.0,0.0,0.0,0.0,0.0,0.0,0.0,0.0,0.0,0.0,0.0,0.0,0.0,0.0,0.0,0.0,0.0,0.0,0.0,0.0,0.0,0.0,0.0,0.0,0.0,0.0,0.0,0.0,0.0,0.0,0.0,0.0,0.0,0.0,0.0,0.0,0.0,0.0,0.0,0.0,0.0,0.0,0.0,0.0,0.0,0.0,0.0,0.0,0.0,0.0,0.0,0.0,0.0,0.0,0.0,0.0,0.0,0.0,0.0,0.0,0.0,0.0,0.0,0.0,0.0,0.0,0.0,0.0,3.5384,3.7472,3.9029,3.8459,3.8269,3.9105,3.8877,3.6561,3.1609,0.0,0.0,0.0,0.0,0.0,0.0,0.0,0.0,0.0,0.0,0.0,0.0,0.0,0.0,0.0,0.0,0.0,0.0,0.0,0.0,0.0,0.0,0.0,0.0,0.0,0.0,0.0,0.0,0.0,0.0,0.0,0.0,0.0,0.0,0.0,0.0,0.0,0.0,0.0,0.0,0.0,0.0,0.0,0.0,0.0,0.0,0.0,0.0,0.0,0.0,0.0,0.0,0.0,0.0,0.0,0.0,0.0,0.0,0.0,0.0,0.0,0.0,0.0,0.0,0.0,0.0,0.0,0.0,0.0,0.0,0.0,0.0,0.0,0.0,0.0,0.0,0.0,0.0,0.0,0.0,0.0,0.0,0.0,0.0,0.0,0.0,0.0,0.0,0.0,0.0,0.0,0.0,0.0,0.0,0.0,0.0,0.0,0.0,0.0,0.0,0.0,0.0,0.0,3.6789,3.9749,3.9902,3.918,3.8953,3.9864,3.9105,3.6523,3.1685,2.8827,0.0,0.0,0.0,0.0,0.0,0.0,0.0,0.0,0.0,0.0,0.0,0.0,0.0,0.0,0.0,0.0,0.0,0.0,0.0,0.0,0.0,0.0,0.0,0.0,0.0,0.0,0.0,0.0,0.0,0.0,0.0,0.0,0.0,0.0,0.0,0.0,0.0,0.0,0.0,0.0,0.0,0.0,0.0,0.0,0.0,0.0,0.0,0.0,0.0,0.0,0.0,0.0,0.0,0.0,0.0,0.0,0.0,0.0,0.0,0.0,0.0,0.0,0.0,0.0,0.0,0.0,0.0,0.0,0.0,0.0,0.0,0.0,0.0,0.0,0.0,0.0,0.0,0.0,0.0,0.0,0.0,0.0,0.0,0.0,0.0,0.0,0.0,0.0,0.0,0.0,0.0,0.0,0.0,0.0,0.0,0.0,0.0,0.0,0.0,0.0,0.0,0.0,3.5806,3.6903,3.8801,3.8269,3.8117,3.8953,3.8231,3.6181,3.243,2.8599,0.0,0.0,0.0,0.0,0.0,0.0,0.0,0.0,0.0,0.0,0.0,0.0,0.0,0.0,0.0,0.0,0.0,0.0,0.0,0.0,0.0,0.0,0.0,0.0,0.0,0.0,0.0,0.0,0.0,0.0,0.0,0.0,0.0,0.0,0.0,0.0,0.0,0.0,0.0,0.0,0.0,0.0,0.0,0.0,0.0,0.0,0.0,0.0,0.0,0.0,0.0,0.0,0.0,0.0,0.0,0.0,0.0,0.0,0.0,0.0,0.0,0.0,0.0,0.0,0.0,0.0,0.0,0.0,0.0,0.0,0.0,0.0,0.0,0.0,0.0,0.0,0.0,0.0,0.0,0.0,0.0,0.0,0.0,0.0,0.0,0.0,0.0,0.0,0.0,0.0,0.0,0.0,0.0,0.0,0.0,0.0,0.0,0.0,0.0,0.0,0.0,0.0,3.2809,3.4814,3.8877,3.8952,3.8686,3.865,3.8307,3.6295,3.2195,2.8334,0.0,0.0,0.0,0.0,0.0,0.0,0.0,0.0,0.0,0.0,0.0,0.0,0.0,0.0,0.0,0.0,0.0,0.0,0.0,0.0,0.0,0.0,0.0,0.0,0.0,0.0,0.0,0.0,0.0,0.0,0.0,0.0,0.0,0.0,0.0,0.0,0.0,0.0,0.0,0.0,0.0,0.0,0.0,0.0,0.0,0.0,0.0,0.0,0.0,0.0,0.0,0.0,0.0,0.0,0.0,0.0,0.0,0.0,0.0,0.0,0.0,0.0,0.0,0.0,0.0,0.0,0.0,0.0,0.0,0.0,0.0,0.0,0.0,0.0,0.0,0.0,0.0,0.0,0.0,0.0,0.0,0.0,0.0,0.0,0.0,0.0,0.0,0.0,0.0,0.0,0.0,0.0,0.0,0.0,0.0,0.0,0.0,0.0,0.0,0.0,0.0,0.0,0.0,3.3625,3.876,3.9484,3.9408,3.8763,3.8423,3.6295,3.1571,0.0,0.0,0.0,0.0,0.0,0.0,0.0,0.0,0.0,0.0,0.0,0.0,0.0,0.0,0.0,0.0,0.0,0.0,0.0,0.0,0.0,0.0,0.0,0.0,0.0,0.0,0.0,0.0,0.0,0.0,0.0,0.0,0.0,0.0,0.0,0.0,0.0,0.0,0.0,0.0,0.0,0.0,0.0,0.0,0.0,0.0,0.0,0.0,0.0,0.0,0.0,0.0,0.0,0.0,0.0,0.0,0.0,0.0,0.0,0.0,0.0,0.0,0.0,0.0,0.0,0.0,0.0,0.0,0.0,0.0,0.0,0.0,0.0,0.0,0.0,0.0,0.0,0.0,0.0,0.0,0.0,0.0,0.0,0.0,0.0,0.0,0.0,0.0,0.0,0.0,0.0,0.0,0.0,0.0,0.0,0.0,0.0,0.0,0.0,0.0,0.0,0.0,0.0,0.0,3.4049,3.5612,3.7054,3.8117,3.8612,3.7363,3.5047,3.1495,0.0,0.0,0.0,0.0,0.0,0.0,0.0,0.0,0.0,0.0,0.0,0.0,0.0,0.0]}]]]